[[{"header":{"parameterUnit":"m.s-1","parameterCategory":1,"la1":30.6,"la2":29.2853,"lo1":-89.7004,"lo2":-87.6739,"dx":0.0162,"dy":0.0183,"nx":112,"ny":82,"refTime":"2023-02-14T06:00:00:Z","depth":0,"parameterNumber":2,"parameterNumberName":"U-component_of_WINDS"},"data":[0.0,0.0,0.0,0.0,0.0,0.0,0.0,0.0,0.0,0.0,0.0,0.0,0.0,0.0,0.0,0.0,0.0,0.0,0.0,0.0,0.0,0.0,0.0,0.0,0.0,0.0,0.0,0.0,0.0,0.0,0.0,0.0,0.0,0.0,0.0,0.0,0.0,0.0,0.0,0.0,0.0,0.0,0.0,0.0,0.0,0.0,0.0,0.0,0.0,0.0,0.0,0.0,0.0,0.0,0.0,0.0,0.0,0.0,0.0,0.0,0.0,0.0,0.0,0.0,0.0,0.0,0.0,0.0,0.0,0.0,0.0,0.0,0.0,0.0,0.0,0.0,0.0,0.0,0.0,0.0,0.0,0.0,0.0,0.0,0.0,0.0,0.0,0.0,0.0,0.0,-7.1185,-7.2379,-7.4727,-7.6256,-7.6388,-7.7725,-7.7934,-7.6547,0.0,0.0,0.0,0.0,0.0,0.0,0.0,0.0,0.0,0.0,0.0,0.0,0.0,0.0,0.0,0.0,0.0,0.0,0.0,0.0,0.0,0.0,0.0,0.0,0.0,0.0,0.0,0.0,0.0,0.0,0.0,0.0,0.0,0.0,0.0,0.0,0.0,0.0,0.0,0.0,0.0,0.0,0.0,0.0,0.0,0.0,0.0,0.0,0.0,0.0,0.0,0.0,0.0,0.0,0.0,0.0,0.0,0.0,0.0,0.0,0.0,0.0,0.0,0.0,0.0,0.0,0.0,0.0,0.0,0.0,0.0,0.0,0.0,0.0,0.0,0.0,0.0,0.0,0.0,0.0,0.0,0.0,0.0,0.0,0.0,0.0,0.0,0.0,0.0,0.0,0.0,0.0,0.0,0.0,0.0,0.0,0.0,0.0,0.0,0.0,0.0,0.0,0.0,0.0,-7.0529,-7.2302,-7.364,-7.47,-7.5439,-7.5892,-7.6028,-7.5755,0.0,0.0,0.0,0.0,0.0,0.0,0.0,0.0,0.0,0.0,0.0,0.0,0.0,0.0,0.0,0.0,0.0,0.0,0.0,0.0,0.0,0.0,0.0,0.0,0.0,0.0,0.0,0.0,0.0,0.0,0.0,0.0,0.0,0.0,0.0,0.0,0.0,0.0,0.0,0.0,0.0,0.0,0.0,0.0,0.0,0.0,0.0,0.0,0.0,0.0,0.0,0.0,0.0,0.0,0.0,0.0,0.0,0.0,0.0,0.0,0.0,0.0,0.0,0.0,0.0,0.0,0.0,0.0,0.0,0.0,0.0,0.0,0.0,0.0,0.0,0.0,0.0,0.0,0.0,0.0,0.0,0.0,0.0,0.0,0.0,0.0,0.0,0.0,0.0,0.0,0.0,0.0,0.0,0.0,0.0,0.0,0.0,0.0,0.0,0.0,0.0,0.0,0.0,-6.9881,-7.0696,-7.2574,-7.3271,-7.396,-7.4857,-7.5009,-7.506,-7.506,-7.5696,0.0,0.0,0.0,0.0,0.0,0.0,0.0,0.0,0.0,0.0,0.0,0.0,0.0,0.0,0.0,0.0,0.0,0.0,0.0,0.0,0.0,0.0,0.0,0.0,0.0,0.0,0.0,0.0,0.0,0.0,0.0,0.0,0.0,0.0,0.0,0.0,0.0,0.0,0.0,0.0,0.0,0.0,0.0,0.0,0.0,0.0,0.0,0.0,0.0,0.0,0.0,0.0,0.0,0.0,0.0,0.0,0.0,0.0,0.0,0.0,0.0,0.0,0.0,0.0,0.0,0.0,0.0,0.0,0.0,0.0,0.0,0.0,0.0,0.0,0.0,0.0,0.0,0.0,0.0,0.0,0.0,0.0,0.0,0.0,0.0,0.0,0.0,0.0,0.0,0.0,0.0,0.0,0.0,0.0,0.0,0.0,0.0,0.0,0.0,0.0,0.0,0.0,-6.9702,-7.058,-7.2229,-7.2762,-7.3359,-7.4219,-7.4297,-7.4297,-7.4297,-7.4297,0.0,0.0,0.0,0.0,0.0,0.0,0.0,0.0,0.0,0.0,0.0,0.0,0.0,0.0,0.0,0.0,0.0,0.0,0.0,0.0,0.0,0.0,0.0,0.0,0.0,0.0,0.0,0.0,0.0,0.0,0.0,0.0,0.0,0.0,0.0,0.0,0.0,0.0,0.0,0.0,0.0,0.0,0.0,0.0,0.0,0.0,0.0,0.0,0.0,0.0,0.0,0.0,0.0,0.0,0.0,0.0,0.0,0.0,0.0,0.0,0.0,0.0,0.0,0.0,0.0,0.0,0.0,0.0,0.0,0.0,0.0,0.0,0.0,0.0,0.0,0.0,0.0,0.0,0.0,0.0,0.0,0.0,0.0,0.0,0.0,0.0,0.0,0.0,0.0,0.0,0.0,0.0,0.0,0.0,0.0,0.0,0.0,0.0,0.0,0.0,0.0,0.0,-6.8565,-6.9621,-7.0558,-7.1512,-7.2422,-7.332,-7.3398,-7.3398,-7.3398,-7.3398,0.0,0.0,0.0,0.0,0.0,0.0,0.0,0.0,0.0,0.0,0.0,0.0,0.0,0.0,0.0,0.0,0.0,0.0,0.0,0.0,0.0,0.0,0.0,0.0,0.0,0.0,0.0,0.0,0.0,0.0,0.0,0.0,0.0,0.0,0.0,0.0,0.0,0.0,0.0,0.0,0.0,0.0,0.0,0.0,0.0,0.0,0.0,0.0,0.0,0.0,0.0,0.0,0.0,0.0,0.0,0.0,0.0,0.0,0.0,0.0,0.0,0.0,0.0,0.0,0.0,0.0,0.0,0.0,0.0,0.0,0.0,0.0,0.0,0.0,0.0,0.0,0.0,0.0,0.0,0.0,0.0,0.0,0.0,0.0,0.0,0.0,0.0,0.0,0.0,0.0,0.0,0.0,0.0,0.0,0.0,0.0,0.0,0.0,0.0,0.0,0.0,0.0,-6.7735,-6.8942,-7.0458,-7.0975,-7.1523,-7.2422,-7.25,-7.25,-7.25,0.0,0.0,0.0,0.0,0.0,0.0,0.0,0.0,0.0,0.0,0.0,0.0,0.0,0.0,0.0,0.0,0.0,0.0,0.0,0.0,0.0,0.0,0.0,0.0,0.0,0.0,0.0,0.0,0.0,0.0,0.0,0.0,0.0,0.0,0.0,0.0,0.0,0.0,0.0,0.0,0.0,0.0,0.0,0.0,0.0,0.0,0.0,0.0,0.0,0.0,0.0,0.0,0.0,0.0,0.0,0.0,0.0,0.0,0.0,0.0,0.0,0.0,0.0,0.0,0.0,0.0,0.0,0.0,0.0,0.0,0.0,0.0,0.0,0.0,0.0,0.0,0.0,0.0,0.0,0.0,0.0,0.0,0.0,0.0,0.0,0.0,0.0,0.0,0.0,0.0,0.0,0.0,0.0,0.0,0.0,0.0,0.0,0.0,0.0,0.0,0.0,0.0,-6.6057,-6.7195,-6.8499,-6.9765,-7.039,-7.0937,-7.1523,-7.1601,-7.1601,-7.1601,0.0,0.0,0.0,0.0,0.0,0.0,0.0,0.0,0.0,0.0,0.0,0.0,0.0,0.0,0.0,0.0,0.0,0.0,0.0,0.0,0.0,0.0,0.0,0.0,0.0,0.0,0.0,0.0,0.0,0.0,0.0,0.0,0.0,0.0,0.0,0.0,0.0,0.0,0.0,0.0,0.0,0.0,0.0,0.0,0.0,0.0,0.0,0.0,0.0,0.0,0.0,0.0,0.0,0.0,0.0,0.0,0.0,0.0,0.0,0.0,0.0,0.0,0.0,0.0,0.0,0.0,0.0,0.0,0.0,0.0,0.0,0.0,0.0,0.0,0.0,0.0,0.0,0.0,0.0,0.0,0.0,0.0,0.0,0.0,0.0,0.0,0.0,0.0,0.0,0.0,0.0,0.0,0.0,0.0,0.0,0.0,0.0,0.0,0.0,0.0,0.0,0.0,-6.5393,-6.6982,-6.8203,-6.8203,-6.9687,-7.0703,-7.0703,-7.0703,-7.0703,0.0,0.0,0.0,0.0,0.0,0.0,0.0,0.0,0.0,0.0,0.0,0.0,0.0,0.0,0.0,0.0,0.0,0.0,0.0,0.0,0.0,0.0,0.0,0.0,0.0,0.0,0.0,0.0,0.0,0.0,0.0,0.0,0.0,0.0,0.0,0.0,0.0,0.0,0.0,0.0,0.0,0.0,0.0,0.0,0.0,0.0,0.0,0.0,0.0,0.0,0.0,0.0,0.0,0.0,0.0,0.0,0.0,0.0,0.0,0.0,0.0,0.0,0.0,0.0,0.0,0.0,0.0,0.0,0.0,0.0,0.0,0.0,0.0,0.0,0.0,0.0,0.0,0.0,0.0,0.0,0.0,0.0,0.0,0.0,0.0,0.0,0.0,0.0,0.0,0.0,0.0,0.0,0.0,0.0,0.0,0.0,0.0,0.0,0.0,0.0,0.0,0.0,0.0,-6.4541,-6.6123,-6.7734,-6.8984,-6.9531,-7.0273,-7.1523,-7.1055,-7.0703,-7.0703,0.0,0.0,0.0,0.0,0.0,0.0,0.0,0.0,0.0,0.0,0.0,0.0,0.0,0.0,0.0,0.0,0.0,0.0,0.0,0.0,0.0,0.0,0.0,0.0,0.0,0.0,0.0,0.0,0.0,0.0,0.0,0.0,0.0,0.0,0.0,0.0,0.0,0.0,0.0,0.0,0.0,0.0,0.0,0.0,0.0,0.0,0.0,0.0,0.0,0.0,0.0,0.0,0.0,0.0,0.0,0.0,0.0,0.0,0.0,0.0,0.0,0.0,0.0,0.0,0.0,0.0,0.0,0.0,0.0,0.0,0.0,0.0,0.0,0.0,0.0,0.0,0.0,0.0,0.0,0.0,0.0,0.0,0.0,0.0,0.0,0.0,0.0,0.0,0.0,0.0,0.0,0.0,0.0,0.0,0.0,0.0,0.0,0.0,0.0,0.0,0.0,0.0,-6.4267,-6.5777,-6.7305,-6.8359,-6.875,-6.9336,-7.039,-7.0,-6.9687,-6.9687,0.0,0.0,0.0,0.0,0.0,0.0,0.0,0.0,0.0,0.0,0.0,0.0,0.0,0.0,0.0,0.0,0.0,0.0,0.0,0.0,0.0,0.0,0.0,0.0,0.0,0.0,0.0,0.0,0.0,0.0,0.0,0.0,0.0,0.0,0.0,0.0,0.0,0.0,0.0,0.0,0.0,0.0,0.0,0.0,0.0,0.0,0.0,0.0,0.0,0.0,0.0,0.0,0.0,0.0,0.0,0.0,0.0,0.0,0.0,0.0,0.0,0.0,0.0,0.0,0.0,0.0,0.0,0.0,0.0,0.0,0.0,0.0,0.0,0.0,0.0,0.0,0.0,0.0,0.0,0.0,0.0,0.0,0.0,0.0,0.0,0.0,0.0,0.0,0.0,0.0,0.0,0.0,0.0,0.0,0.0,0.0,0.0,0.0,0.0,0.0,0.0,0.0,-6.4373,-6.582,-6.6953,-6.7109,-6.7851,-6.8359,-6.8437,-6.8359,-6.8281,-6.8203,0.0,0.0,0.0,0.0,0.0,0.0,0.0,0.0,0.0,0.0,0.0,0.0,0.0,0.0,0.0,0.0,0.0,0.0,0.0,0.0,0.0,0.0,0.0,0.0,0.0,0.0,0.0,0.0,0.0,0.0,0.0,0.0,0.0,0.0,0.0,0.0,0.0,0.0,0.0,0.0,0.0,0.0,0.0,0.0,0.0,0.0,0.0,0.0,0.0,0.0,0.0,0.0,0.0,0.0,0.0,0.0,0.0,0.0,0.0,0.0,-6.8862,-6.9265,0.0,0.0,0.0,0.0,0.0,0.0,0.0,0.0,0.0,0.0,0.0,0.0,0.0,0.0,0.0,0.0,0.0,0.0,0.0,0.0,0.0,0.0,0.0,0.0,0.0,0.0,0.0,0.0,0.0,0.0,0.0,0.0,0.0,0.0,0.0,0.0,0.0,0.0,0.0,0.0,-6.4296,-6.582,-6.7422,-6.8789,-6.9062,-6.9414,-7.0117,-6.9531,-6.8867,-6.8242,-6.7383,0.0,0.0,0.0,0.0,0.0,0.0,0.0,0.0,0.0,0.0,0.0,0.0,0.0,0.0,0.0,0.0,0.0,0.0,0.0,0.0,0.0,0.0,0.0,0.0,0.0,0.0,0.0,0.0,0.0,0.0,0.0,0.0,0.0,0.0,0.0,0.0,0.0,0.0,0.0,0.0,0.0,0.0,0.0,0.0,0.0,0.0,0.0,0.0,0.0,0.0,0.0,0.0,0.0,0.0,0.0,0.0,0.0,0.0,0.0,-6.8128,-6.8311,0.0,0.0,0.0,0.0,0.0,0.0,0.0,0.0,0.0,0.0,0.0,0.0,0.0,0.0,0.0,0.0,0.0,0.0,0.0,0.0,0.0,0.0,0.0,0.0,0.0,0.0,0.0,0.0,0.0,0.0,0.0,0.0,0.0,0.0,0.0,0.0,0.0,0.0,0.0,0.0,-6.4296,-6.6172,-6.7851,-6.8789,-6.918,-6.9414,-6.9492,-6.9062,-6.8476,-6.7617,-6.7148,0.0,0.0,0.0,0.0,0.0,0.0,0.0,0.0,0.0,0.0,0.0,0.0,0.0,0.0,0.0,0.0,0.0,0.0,0.0,0.0,0.0,0.0,0.0,0.0,0.0,0.0,0.0,0.0,0.0,0.0,0.0,0.0,0.0,0.0,0.0,0.0,0.0,0.0,0.0,0.0,0.0,0.0,0.0,0.0,0.0,0.0,0.0,0.0,0.0,0.0,0.0,0.0,0.0,-6.7063,-6.7834,-6.8091,-6.8091,-6.8091,-6.8091,-6.8091,-6.7944,-6.7724,-6.8421,0.0,0.0,0.0,0.0,0.0,0.0,0.0,0.0,0.0,0.0,0.0,0.0,0.0,0.0,0.0,0.0,0.0,0.0,0.0,0.0,0.0,0.0,-7.1975,-7.1975,-7.1398,-7.0898,-7.0898,0.0,0.0,0.0,0.0,0.0,0.0,0.0,0.0,0.0,0.0,0.0,-6.4297,-6.6562,-6.8242,-6.8398,-6.914,-6.9375,-6.8672,-6.8515,-6.8047,-6.7187,-6.6992,-6.6914,0.0,0.0,0.0,0.0,0.0,0.0,0.0,0.0,0.0,0.0,0.0,0.0,0.0,0.0,0.0,0.0,0.0,0.0,0.0,0.0,0.0,0.0,0.0,0.0,0.0,0.0,0.0,0.0,0.0,0.0,0.0,0.0,-6.4888,-6.5221,0.0,0.0,0.0,0.0,0.0,0.0,0.0,0.0,0.0,0.0,0.0,0.0,0.0,-6.398,-6.409,-6.4897,-6.5999,-6.7393,-6.7577,-6.8421,-6.9779,-6.9779,-6.9779,-6.9779,-6.9779,0.0,-6.7687,-6.7797,0.0,0.0,0.0,0.0,0.0,0.0,0.0,0.0,0.0,0.0,0.0,0.0,0.0,0.0,0.0,0.0,0.0,0.0,0.0,0.0,0.0,0.0,-7.1052,-7.1052,-7.0975,-7.0898,-7.0898,-7.0283,-6.9475,-6.8744,-6.7782,-6.6459,0.0,0.0,0.0,0.0,0.0,0.0,-6.4297,-6.6562,-6.8476,-6.9258,-7.0039,-7.0508,-7.039,-6.9726,-6.8945,-6.8086,-6.7305,-6.6914,-6.6914,-6.6914,0.0,0.0,0.0,0.0,0.0,0.0,0.0,0.0,0.0,0.0,0.0,0.0,0.0,0.0,0.0,0.0,0.0,0.0,0.0,0.0,0.0,0.0,0.0,0.0,0.0,0.0,0.0,0.0,0.0,-6.3546,-6.4851,-6.5856,-6.4861,-6.3796,0.0,0.0,0.0,0.0,0.0,0.0,0.0,0.0,0.0,-6.3539,-6.4787,-6.5448,-6.5448,-6.6696,-6.7687,-6.8385,-6.8825,-6.9412,-7.011,-7.011,-7.011,-7.011,-7.011,-6.9449,-6.8385,-6.8385,-6.8091,-6.7687,0.0,0.0,0.0,0.0,-7.0336,-7.2168,-7.2389,-7.3242,-7.4235,-7.4495,0.0,0.0,0.0,0.0,0.0,0.0,0.0,-7.1475,-7.1591,-7.1283,-7.1014,-7.1514,-7.0898,-7.0244,-7.0244,-6.9552,-6.8859,-6.8475,-6.7779,-6.6822,-6.5413,-6.4504,0.0,0.0,0.0,-6.4492,-6.4961,-6.6875,-6.8359,-6.8711,-6.9922,-7.0508,-7.0078,-6.9687,-6.9101,-6.8242,-6.7383,-6.6914,-6.6914,-6.6914,-6.6914,0.0,0.0,0.0,0.0,0.0,0.0,0.0,0.0,0.0,0.0,0.0,0.0,0.0,0.0,0.0,0.0,0.0,0.0,0.0,0.0,0.0,0.0,0.0,0.0,0.0,0.0,0.0,0.0,-6.3574,-6.4799,-6.6003,-6.5154,-6.4237,0.0,0.0,0.0,0.0,0.0,0.0,-6.3429,-6.4237,-6.4714,-6.4714,-6.6256,-6.71,-6.71,-6.8495,-6.9302,-6.9522,-7.011,-7.0513,-7.0697,-7.0697,-7.0697,-7.0697,-7.0697,-7.0146,-6.9192,-6.8972,-6.8421,-6.7687,-6.7687,-6.8097,-6.8705,-6.8705,-6.9922,-7.1598,-7.1598,-7.2433,-7.3514,-7.3514,-7.2899,-7.2168,-7.1937,0.0,0.0,0.0,0.0,-7.1052,-7.1706,-7.1245,-7.0744,-7.1398,-7.0437,-6.936,-6.936,-6.8859,-6.8321,-6.8129,-6.7702,-6.7113,-6.6231,-6.4978,0.0,-6.4843,-6.457,-6.4531,-6.5195,-6.6992,-6.8203,-6.8203,-6.9687,-7.0469,-6.9844,-6.9765,-6.9375,-6.8594,-6.7695,-6.7148,-6.6914,-6.6914,-6.6914,-6.6914,0.0,0.0,0.0,0.0,0.0,0.0,0.0,0.0,0.0,0.0,0.0,0.0,0.0,0.0,0.0,0.0,0.0,0.0,0.0,0.0,0.0,0.0,0.0,0.0,0.0,0.0,0.0,0.0,0.0,-6.5343,-6.5301,0.0,0.0,0.0,0.0,-6.2805,-6.3576,-6.4383,-6.5154,-6.5925,-6.6366,-6.6366,-6.7944,-6.8788,-6.8788,-6.9633,-7.044,-7.1211,-7.1248,-7.1651,-7.2386,-7.2386,-7.2386,-7.2386,-7.2386,-7.1505,-6.9963,-6.9229,-6.8421,-6.7687,-6.7687,-6.832,-6.9272,-6.9272,-7.0489,-7.214,-7.214,-7.2755,-7.3514,-7.3514,-7.2899,-7.2052,-7.1206,-7.0937,0.0,0.0,-7.0898,-7.0898,-7.0937,-7.036,-6.9783,-6.9821,-6.9129,-6.8475,-6.8475,-6.8436,-6.8167,-6.7321,-6.7277,-6.6919,-6.5414,0.0,-6.3867,-6.3241,-6.3789,-6.4336,-6.4375,-6.6601,-6.8203,-6.8203,-6.9687,-7.0664,-7.0625,-7.0625,-7.0273,-6.9492,-6.8633,-6.7773,-6.6914,-6.6914,-6.6914,-6.6914,-6.6914,0.0,0.0,0.0,0.0,0.0,0.0,0.0,0.0,0.0,0.0,0.0,0.0,0.0,0.0,0.0,0.0,0.0,0.0,0.0,0.0,0.0,0.0,0.0,0.0,0.0,0.0,0.0,0.0,-6.7396,-6.7614,0.0,-6.7504,-6.6549,-6.5962,-6.5962,-6.6219,-6.6512,-6.6843,-6.7614,-6.8054,-6.8054,-6.9633,-7.044,-7.044,-7.1248,-7.1798,-7.2092,-7.2092,-7.2239,-7.2496,-7.2496,-7.2496,-7.2496,-7.2496,-7.1872,-7.0807,-7.0,-6.9094,-6.8259,-6.8567,-6.919,-6.9811,-6.9811,-7.049,-7.136,-7.136,-7.1937,-7.2668,-7.2668,-7.2437,-7.1937,-7.0552,-7.0475,-7.0783,-7.0283,-7.0129,-7.0129,-7.0129,-6.9513,-6.8859,-6.8859,-6.8205,-6.7552,-6.7552,-6.7224,-6.6819,-6.6509,-6.663,-6.6411,-6.5406,-6.4687,-6.433,-6.4648,-6.4922,-6.5351,-6.5898,-6.7265,-6.8203,-6.8203,-6.9687,-7.0703,-7.0703,-7.0195,-6.9765,-6.9531,-6.8164,-6.7226,-6.6914,-6.6914,-6.6914,-6.6914,-6.6914,-6.6914,0.0,0.0,0.0,0.0,0.0,0.0,0.0,0.0,0.0,0.0,0.0,0.0,0.0,0.0,0.0,0.0,0.0,0.0,0.0,0.0,0.0,0.0,0.0,0.0,0.0,-6.404,-6.6214,-6.899,-6.9302,-6.9633,-7.044,-6.9265,-6.8605,-6.8898,-6.8641,-6.8752,-6.9265,-6.9816,-7.011,-7.011,-7.1431,-7.1982,-7.1725,-7.2239,-7.2496,-7.2496,-7.2496,-7.2496,-7.2496,-7.2496,-7.2496,-7.2496,-7.2496,-7.2055,-7.1248,-7.0642,-6.9791,-6.8931,-6.9003,-6.9353,-6.9847,-7.0061,-7.0463,-7.086,-7.0591,-7.086,-7.1321,-7.1014,-7.0937,-7.0706,-6.959,-6.9629,-6.9937,-6.9398,-6.9244,-6.9244,-6.9244,-6.8629,-6.7975,-6.7975,-6.7358,-6.6761,-6.6761,-6.6476,-6.6134,-6.5887,-6.5959,-6.5865,-6.5393,-6.4753,-6.4492,-6.5078,-6.5664,-6.625,-6.6836,-6.789,-6.8594,-6.8633,-6.9883,-7.0586,-7.0312,-7.0,-6.9492,-6.8672,-6.7539,-6.664,-6.6055,-6.6015,-6.6015,-6.6015,-6.6328,-6.6601,-6.6914,0.0,0.0,0.0,0.0,0.0,0.0,0.0,0.0,0.0,0.0,0.0,0.0,0.0,0.0,0.0,0.0,0.0,0.0,0.0,0.0,0.0,0.0,0.0,-6.3935,-6.4766,-6.6598,-6.9834,-7.022,-7.0587,-7.1394,-7.0734,-7.0587,-7.1358,-7.0697,-7.0917,-7.2496,-7.2569,-7.2569,-7.2532,-7.3303,-7.3303,-7.2496,-7.2496,-7.2496,-7.2496,-7.2496,-7.2496,-7.2496,-7.2496,-7.2496,-7.2496,-7.2496,-7.2055,-7.1304,-7.1042,-7.04,-6.9629,-6.8856,-6.8847,-6.9393,-6.9918,-7.0463,-7.0783,-6.9975,-6.9706,-6.9552,-6.8667,-6.8398,-6.8398,-6.8359,-6.8398,-6.8398,-6.8359,-6.8359,-6.8359,-6.8359,-6.7705,-6.7051,-6.7051,-6.656,-6.6109,-6.6109,-6.626,-6.6201,-6.5464,-6.5328,-6.5289,-6.525,-6.4753,-6.4336,-6.4336,-6.582,0.0,-6.6953,-6.8398,-6.9453,-6.9531,-7.0273,-7.039,-6.9609,-7.0195,-6.957,-6.707,-6.6836,-6.6055,-6.4375,-6.4297,-6.4297,-6.4336,-6.5156,-6.6015,-6.6875,0.0,0.0,0.0,0.0,0.0,0.0,0.0,0.0,0.0,0.0,0.0,0.0,0.0,0.0,0.0,0.0,0.0,0.0,0.0,0.0,0.0,-6.3321,-6.4621,-6.4838,-6.7076,-6.9701,-7.2422,-7.323,-7.3891,-7.4698,-7.4037,-7.367,-7.3891,-7.3707,-7.378,-7.4221,-7.4258,-7.3964,-7.3377,-7.356,-7.3303,-7.2496,-7.2496,-7.2496,-7.2496,-7.2496,-7.2496,-7.2496,-7.2496,-7.2496,-7.2496,-7.2496,-7.2055,-7.1304,-7.1042,-7.04,-6.9724,-6.9655,-6.9738,-6.9957,-7.0494,-7.0777,-7.0783,-6.9975,-6.9706,-6.9552,-6.8667,-6.8398,-6.8282,-6.7667,-6.7898,-6.8282,-6.7628,-6.7475,-6.7475,-6.7475,-6.6859,-6.6244,-6.6244,-6.6135,-6.6109,-6.6109,-6.6322,-6.651,-6.6297,-6.5837,-6.5307,-6.4682,-6.496,-6.5234,-6.5234,-6.6719,-6.7851,-6.7851,-6.9297,-7.0351,-7.0351,-7.1133,-7.1289,-7.043,-6.9453,-6.832,-6.6992,-6.5703,-6.4805,-6.4336,-6.4297,-6.4609,-6.5234,-6.5469,-6.5703,0.0,0.0,0.0,0.0,0.0,0.0,0.0,0.0,0.0,0.0,0.0,0.0,0.0,0.0,0.0,0.0,0.0,0.0,0.0,0.0,0.0,0.0,-6.5452,-6.7186,-6.859,-7.014,-7.1982,-7.4404,-7.5139,-7.5726,-7.6533,-7.6203,-7.5909,-7.5909,-7.5616,-7.5542,-7.5909,-7.5616,-7.5212,-7.4698,-7.4698,-7.4147,-7.301,-7.301,-7.2826,-7.2496,-7.2496,-7.2496,-7.2496,-7.2496,-7.2496,-7.2496,-7.2165,-7.1945,-7.1688,-7.0544,-7.0077,-7.0171,0.0,0.0,0.0,0.0,-7.0898,-7.0783,-6.9975,-6.9475,-6.9013,-6.8129,-6.7628,-6.7244,-6.6744,-6.6936,-6.7244,-6.6744,-6.659,-6.659,-6.659,-6.6244,-6.5909,-6.5951,-6.6129,-6.6244,-6.6295,-6.6525,-6.6618,-6.6266,-6.6168,0.0,-6.5469,-6.5508,-6.5703,-6.6094,-6.7617,-6.8828,-6.9219,-7.043,-7.125,-7.125,-7.1719,-7.164,-7.0781,-6.9453,0.0,0.0,0.0,-6.3984,-6.3242,-6.3203,0.0,0.0,0.0,-6.539,-6.6133,-6.664,0.0,0.0,-6.6914,-6.7383,0.0,0.0,0.0,0.0,0.0,0.0,0.0,0.0,0.0,0.0,0.0,0.0,0.0,0.0,0.0,0.0,-6.7757,-7.0513,-7.3523,-7.3413,-7.3854,-7.5983,-7.624,-7.6533,-7.7268,-7.7304,-7.7304,-7.7304,-7.6644,-7.657,-7.7268,-7.6644,0.0,0.0,0.0,-7.5322,-7.3707,-7.3707,-7.3303,-7.2496,-7.2496,-7.2496,-7.2496,-7.2496,-7.2496,-7.2459,-7.1762,-7.1798,-7.2202,-7.0092,-6.9962,-7.0883,-7.0308,-7.0129,-7.0266,-7.0748,-7.0898,-7.0783,-6.986,0.0,0.0,-6.7282,-6.6474,-6.5897,-6.5897,-6.5897,-6.5897,-6.5897,-6.5897,-6.5897,-6.5897,-6.5897,-6.5933,-6.6089,-6.6244,-6.6435,-6.6557,-6.6745,-6.6719,-6.6015,-6.6523,-6.7031,-6.7031,-6.6406,-6.6172,-6.7031,-6.8515,-6.9844,-7.0586,-7.1445,-7.1992,-7.1992,-7.1992,0.0,-7.0781,-6.9883,-6.8359,-6.5898,-6.4726,-6.3476,-6.1914,-6.1758,-6.2539,-6.4258,-6.4297,-6.5156,-6.6914,-6.6914,-6.6914,-6.6914,-6.6914,-6.7422,0.0,0.0,0.0,0.0,0.0,0.0,0.0,0.0,0.0,0.0,0.0,0.0,0.0,0.0,0.0,-6.7728,-7.0748,-7.345,-7.5359,-7.6056,-7.657,-7.7011,-7.7084,-7.7157,-7.7304,-7.7304,-7.7304,-7.7304,-7.7194,-7.7157,-7.7304,-7.7157,-7.679,-7.613,-7.6093,-7.5322,-7.3707,-7.3707,-7.3303,-7.2496,-7.2496,0.0,-7.2496,-7.2496,-7.2496,-7.2496,-7.2349,-7.1982,-7.1561,-7.1479,-7.1358,-7.118,-7.0407,-7.0362,-7.0777,-7.0871,-7.0898,-7.0667,-6.9167,-6.8552,-6.8167,-6.6628,-6.6013,-6.5897,-6.5897,-6.5897,0.0,-6.5897,-6.5897,-6.5897,-6.5897,-6.5897,-6.5933,-6.6089,-6.6244,-6.6435,-6.6557,-6.6745,-6.707,-6.7578,-6.7812,-6.7969,-6.7969,-6.7812,-6.7969,-6.8789,-6.9805,-7.0508,-7.0664,-7.1445,-7.1992,-7.1992,-7.1992,-7.164,-7.0781,-6.9883,-6.8594,-6.6758,-6.4492,-6.3086,-6.2773,-6.207,-6.2539,-6.4258,-6.4297,-6.5156,-6.6914,-6.6914,-6.6914,-6.6914,-6.6914,-6.7695,0.0,0.0,0.0,0.0,0.0,0.0,0.0,0.0,0.0,0.0,0.0,-6.0996,-6.2594,0.0,-6.7981,-7.0811,-7.2994,-7.4882,-7.6497,-7.7047,-7.7304,-7.7304,-7.7304,-7.7304,-7.7304,-7.7304,-7.7304,-7.7304,-7.7304,-7.7304,-7.7304,-7.7304,-7.7121,-7.6717,-7.6717,-7.613,-7.4918,-7.4515,-7.3891,-7.3083,-7.2679,-7.2496,-7.2496,-7.2496,-7.2496,-7.2496,-7.2092,-7.1908,-7.1892,-7.1635,-7.1261,-7.084,-7.0296,-7.0432,-7.0898,-7.0898,-7.0898,-7.0783,-6.9937,-6.909,-6.8321,-6.7936,-6.6936,-6.5974,-6.6359,-6.6205,-6.5897,-6.5897,-6.5897,-6.5897,-6.5897,-6.6205,-6.6444,-6.6278,-6.698,-6.7626,-6.7429,-6.7496,-6.7812,-6.8633,-6.8476,-6.8476,-6.9297,-6.9453,-6.9453,-6.9453,-7.0156,-7.0859,-7.1289,-7.1719,-7.1992,-7.1992,-7.1992,-7.1836,-7.1406,-6.9765,-6.8242,-6.6992,-6.4844,-6.3633,-6.3633,-6.3242,-6.3633,-6.4922,-6.4961,-6.5586,-6.6914,-6.6914,-6.6914,-6.6914,-6.6914,-6.7578,0.0,0.0,0.0,0.0,0.0,0.0,0.0,0.0,-5.7479,-5.9362,-6.1574,-6.3753,-6.6025,-6.8318,-7.075,-7.3502,-7.4735,-7.5836,-7.7157,-7.7304,-7.7304,-7.7304,-7.7304,-7.7304,-7.7304,-7.7304,-7.7304,-7.7304,-7.7304,-7.7304,-7.7304,-7.7304,-7.7304,-7.7304,-7.7304,-7.6937,-7.6093,-7.5469,-7.4735,-7.3927,-7.3266,-7.2973,-7.2973,-7.2973,-7.2899,-7.2679,-7.1872,-7.1965,-7.2632,-7.1724,-7.132,-7.1176,-7.0946,-7.1044,-7.136,-7.1014,-7.0898,-7.0898,-7.0706,-6.9783,-6.8744,-6.9283,-6.8052,-6.6474,-6.6936,-6.6628,-6.6128,-6.6128,-6.6013,-6.5974,-6.6282,-6.6744,-6.707,-6.6927,-6.7788,-6.8572,-6.8275,-6.8203,-6.8437,-6.9258,-6.9023,-6.9101,-7.0469,-7.0859,-7.0742,-7.0078,-7.0547,-7.1211,-7.1914,-7.1992,-7.1992,-7.1992,-7.1992,-7.1992,-7.1992,-6.9961,-6.832,-6.7422,-6.5742,-6.4726,-6.457,-6.4375,-6.4726,-6.5586,-6.5586,-6.6015,-6.6914,-6.6914,-6.6914,-6.6914,-6.6914,-6.7383,-4.962,-5.0753,-5.2257,-5.402,-5.4465,-5.5246,0.0,-5.992,-6.1925,-6.493,-6.6902,-6.8604,-7.0328,-7.2013,-7.3538,-7.4625,-7.6056,-7.7121,-7.7304,-7.7304,-7.7304,-7.7304,-7.7304,-7.7304,-7.7304,-7.7304,-7.7304,-7.7304,-7.7304,-7.7304,-7.7304,-7.7304,-7.7304,-7.7304,-7.7304,-7.6937,-7.6093,-7.6019,-7.5579,-7.4771,-7.4698,-7.4625,-7.4625,-7.4625,-7.4258,-7.3523,-7.2716,-7.2743,-7.329,-7.3205,-7.3282,-7.3531,-7.3491,-7.3379,-7.3014,-7.1475,-7.0898,-7.0783,-7.009,-6.9706,-6.9436,-6.8783,-6.8359,-6.7975,-6.7321,-6.7051,-6.6974,-6.6974,-6.6436,-6.6244,-6.7744,-6.7628,-6.7378,-6.8365,-6.8177,-6.7831,-6.8119,-6.8203,-6.8437,-6.9258,-6.9961,-7.0469,-7.0664,-7.1328,-7.1836,-7.1719,-7.1797,-7.1875,-7.1992,-7.1992,-7.1992,-7.1992,-7.1992,-7.1992,-7.1992,-7.1015,-7.0039,-6.918,-6.7539,-6.625,-6.5508,-6.4726,-6.4726,-6.5586,-6.5586,-6.6015,-6.6914,-6.6914,-6.6914,-6.6914,-6.6914,-6.7383,-5.1111,-5.24,-5.3844,-5.5511,-5.619,-5.708,-5.9254,-6.18,-6.433,-6.6567,-6.9113,-7.1505,-7.312,-7.4331,-7.5359,-7.6203,-7.6864,-7.7304,-7.7304,-7.7304,-7.7304,-7.7304,-7.7304,-7.7304,-7.7304,-7.7304,-7.7304,-7.7304,-7.7304,-7.7304,-7.7304,-7.7304,-7.7304,-7.7304,-7.7304,-7.7157,-7.6827,-7.635,-7.5946,-7.5579,-7.5139,-7.4918,-7.4918,-7.4918,-7.4735,-7.4331,-7.3425,-7.3432,-7.4025,-7.3457,-7.3477,-7.387,-7.3336,-7.3265,-7.336,-7.2091,-7.1668,-7.1552,-7.0706,-7.009,-6.9706,-6.9821,-6.9206,-6.8436,-6.8552,-6.8244,-6.7744,-6.7244,-6.6859,-6.6628,-6.6898,-6.7398,-6.7918,-6.8132,-6.9072,-6.9819,-6.9681,-6.9258,-6.9297,-7.0664,-7.043,-7.0312,-7.1289,-7.1758,-7.1992,-7.1992,-7.1992,-7.1992,-7.1992,-7.1992,-7.1992,-7.1992,-7.1992,-7.1992,-7.1992,-7.0781,-6.9844,-6.9492,-6.7851,-6.6758,-6.6367,-6.6015,-6.5976,-6.6367,-6.5859,-6.5781,-6.6133,-6.5625,-6.5664,-6.6133,-6.6133,-6.6601,-5.2524,-5.3849,-5.5344,-5.7239,-5.8118,-5.9004,-6.0966,-6.3583,-6.6279,-6.8315,-7.1078,-7.3556,-7.5262,-7.6056,-7.6644,-7.7231,-7.7524,-7.7598,-7.7341,-7.7524,-7.7598,-7.7341,-7.7121,-7.7084,-7.7304,-7.7304,-7.7304,-7.7304,-7.7304,-7.7304,-7.7304,-7.7304,-7.7304,-7.7304,-7.7304,-7.7304,-7.7304,-7.6717,-7.6423,-7.6423,-7.5836,-7.5579,-7.5579,-7.5322,-7.5249,-7.5139,-7.4238,-7.4234,-7.481,-7.4004,-7.3989,-7.4423,-7.3772,-7.3814,-7.4091,-7.3206,-7.2745,-7.2437,-7.1552,-7.086,-7.0437,-7.0783,-7.009,-6.9167,-6.959,-6.9244,-6.8629,-6.7975,-6.7628,-6.7436,-6.7321,-6.8013,-6.8767,-6.8754,-6.9967,-7.1065,-7.0775,-7.0195,-7.0117,-7.1406,-7.0859,-7.0586,-7.1797,-7.1992,-7.1992,-7.1992,-7.1992,-7.1992,-7.1992,-7.1992,-7.1992,-7.1992,-7.1992,-7.1992,-7.1992,-7.0664,-6.9726,-6.9492,-6.8086,-6.7148,-6.6914,-6.6914,-6.6914,-6.6914,-6.6055,-6.5586,-6.5586,-6.4961,-6.4961,-6.5625,-6.5859,-6.6289,0.0,0.0,-5.6393,-5.9268,-6.0013,-6.0891,-6.3945,-6.5902,-6.7994,-7.1421,-7.3441,-7.508,-7.6862,-7.7268,-7.7304,-7.7304,-7.8002,-7.8259,-7.7451,-7.8038,-7.8259,-7.7414,-7.6607,-7.646,-7.7231,-7.7304,-7.7304,-7.7304,-7.7304,-7.7304,-7.7304,-7.7304,-7.7304,-7.7304,-7.7304,-7.7304,-7.7304,-7.7304,-7.7268,-7.7268,-7.7268,-7.7268,-7.7231,-7.6423,-7.6056,-7.6019,-7.5175,-7.5102,-7.5456,-7.5418,-7.5627,-7.5908,-7.5908,-7.5938,-7.5822,-7.4938,-7.413,-7.336,-7.2476,-7.2129,-7.1975,-7.1168,-7.086,-7.0667,-6.9937,-6.9667,-6.9667,-6.9629,-6.9013,-6.8744,-7.0321,-7.0206,-6.9962,-7.1109,-7.0809,-7.0325,-7.0619,-7.0664,-7.0664,-7.0742,-7.1367,-7.1953,-7.1992,-7.1992,-7.1992,-7.1992,-7.1992,-7.1992,-7.1992,-7.1992,-7.1992,-7.1992,-7.1992,-7.1992,-7.1992,-7.1172,-7.0312,-6.9531,-6.8672,-6.7773,-6.6914,-6.6914,-6.6914,-6.6914,-6.6055,-6.5586,-6.5586,-6.5586,-6.5586,-6.5625,-6.6484,-6.6875,0.0,0.0,-5.849,-6.0994,-6.2719,-6.4187,-6.5731,-6.8234,-7.0506,-7.1693,-7.2046,-7.2438,-7.3001,-7.3711,-7.4133,-7.4133,-7.6152,-7.7671,-7.7378,-7.7561,-7.7635,-7.7341,-7.7084,-7.7011,-7.7304,-7.6827,-7.6754,-7.7268,-7.7304,-7.7304,-7.7304,-7.7304,-7.7304,-7.7304,-7.7304,-7.7304,-7.7304,-7.7304,-7.7304,-7.7304,-7.7304,-7.7304,-7.7304,-7.646,-7.6093,-7.608,-7.5522,-7.5351,-7.5507,-7.574,-7.5923,-7.6015,-7.6015,-7.6015,-7.5976,-7.5668,-7.5399,-7.4899,-7.2899,-7.1822,-7.1283,-7.1014,-7.0898,-7.086,-7.0591,-7.0514,-7.0398,-6.986,-6.9475,-6.9244,-6.9244,-6.9475,-6.9847,-7.0503,-7.0862,-7.1143,-7.1478,-7.1094,-7.0859,-7.1445,-7.1328,-7.1328,-7.1914,-7.1992,-7.1992,-7.1992,-7.1992,-7.1992,-7.1992,-7.1992,-7.1992,-7.1992,-7.1992,-7.1758,-7.1172,-7.0859,-7.0117,-6.8711,-6.8359,-6.7812,-6.6953,-6.6914,-6.6914,-6.6914,-6.5469,-6.4726,-6.4726,-6.3594,-6.3594,-6.4726,-6.5039,-6.5781,0.0,-5.8916,-6.0825,-6.3328,-6.5222,-6.6677,-6.7455,-6.9475,-7.1159,-7.1261,-7.086,-7.0479,-7.0558,-7.1139,-7.1648,-7.1648,-7.4128,-7.613,-7.6423,-7.6717,-7.7011,-7.7304,-7.7047,-7.7011,-7.7304,-7.657,-7.6423,-7.7268,-7.7304,-7.7304,-7.7304,-7.7304,-7.7304,-7.7304,-7.7304,-7.7304,-7.7304,-7.7304,-7.7304,-7.7304,-7.7304,-7.7304,-7.7304,-7.679,-7.6387,-7.608,-7.608,-7.584,-7.5507,-7.5924,-7.6056,-7.6015,-7.6015,-7.6015,-7.6015,-7.6015,-7.5784,-7.5284,-7.3668,-7.2745,-7.2206,-7.1937,-7.1629,-7.136,-7.136,-7.1168,-7.0783,-7.0283,-7.0129,-7.0014,-6.9436,-6.9706,-7.0232,-7.058,-7.1095,-7.1572,-7.1947,-7.1562,-7.1328,-7.1875,-7.1562,-7.1328,-7.1914,-7.1992,-7.1992,-7.1992,-7.1992,-7.1992,-7.1992,-7.1992,-7.1992,-7.1992,-7.1992,-7.1758,-7.1211,-7.0898,-7.0117,-6.8711,-6.8359,-6.7812,-6.6953,-6.6914,-6.6914,-6.6914,-6.5508,-6.4609,-6.4297,-6.3164,-6.3203,-6.4297,-6.4609,-6.5547,-5.9472,-6.1366,-6.3226,-6.6102,-6.7421,-6.8233,-6.8977,-6.9688,-7.0274,-7.0441,-6.9817,-6.9296,0.0,0.0,-7.0003,-7.0003,-7.2206,-7.4147,-7.4918,-7.5726,-7.6497,-7.7231,-7.668,-7.6533,-7.7268,-7.6607,-7.6497,-7.7268,-7.7304,-7.7304,-7.7304,-7.7304,-7.7304,-7.7304,-7.7304,-7.7304,-7.7304,-7.7304,-7.7304,-7.7304,-7.7304,-7.7304,-7.7304,-7.7304,-7.6864,-7.6213,-7.6718,-7.6443,-7.5588,-7.6084,-7.6174,-7.6015,-7.6015,-7.6015,-7.6015,-7.6015,-7.5476,-7.4784,-7.4784,-7.4668,-7.4437,-7.3745,-7.2899,-7.2129,-7.2168,-7.1629,-7.0975,-7.0975,-7.0975,-7.0975,-7.0975,-7.0937,-7.1004,-7.1381,-7.1485,-7.1572,-7.1947,-7.1992,-7.1992,-7.1992,-7.1992,-7.1992,-7.1992,-7.1992,-7.1992,-7.1992,-7.1992,-7.1992,-7.1992,-7.1992,-7.1992,-7.1992,-7.1992,-7.1992,-7.1953,-7.1211,-7.0351,-6.9414,-6.8672,-6.7851,-6.6953,-6.6914,-6.6914,-6.6914,-6.6055,-6.5195,-6.4375,-6.4336,-6.4336,-6.4375,-6.5195,-6.6055,-6.1133,-6.3294,-6.5155,-6.6474,-6.8233,-6.9654,-6.9857,-7.006,-6.9877,-6.8829,-6.7093,-6.5551,-6.453,-6.6918,-6.9051,-6.9051,-7.3207,-7.646,-7.668,-7.7414,-7.7818,-7.7378,-7.7708,-7.7781,-7.7378,-7.7121,-7.7084,-7.7304,-7.7304,-7.7304,-7.7304,-7.7304,-7.7304,-7.7304,-7.7304,-7.7304,-7.7304,-7.7304,-7.7304,-7.7304,-7.7304,-7.7304,-7.7304,-7.7304,-7.7127,-7.6827,-7.678,-7.657,-7.6161,-7.6092,-7.6041,-7.6015,-7.6015,-7.6015,-7.6015,-7.6015,-7.5861,-7.5668,-7.5668,-7.4437,-7.2899,-7.336,-7.2476,-7.136,-7.2014,-7.2052,-7.186,-7.186,-7.186,-7.186,-7.186,-7.1398,-7.1004,-7.1381,-7.1485,-7.1572,-7.1947,-7.1992,-7.1992,-7.1992,-7.1992,-7.1992,-7.1992,-7.1992,-7.1992,-7.1992,-7.1992,-7.1992,-7.1992,-7.1992,-7.1992,-7.1992,-7.1992,-7.1758,-7.1094,-7.1406,-7.0742,-6.8633,-6.8867,-6.8437,-6.6953,-6.6914,-6.6914,-6.6914,-6.6055,-6.5508,-6.5273,-6.4609,-6.4648,-6.5273,-6.5508,-6.6055,-6.3168,-6.5222,-6.6914,-6.803,-6.9485,-7.05,-6.9857,-6.9722,-6.918,-6.732,-6.5425,-6.3768,-6.2618,-6.5294,-6.7682,0.0,0.0,0.0,-7.6166,-7.6974,-7.7598,-7.7855,-7.8295,-7.8552,-7.8405,-7.7745,-7.7488,-7.7855,-7.7524,-7.7304,-7.7304,-7.7304,-7.7304,-7.7304,-7.7304,-7.7304,-7.7304,-7.7304,-7.7304,-7.7304,-7.7304,-7.7304,-7.7304,-7.7592,-7.7515,-7.711,-7.7123,-7.707,-7.692,-7.6286,-7.6245,-7.6515,-7.613,-7.6015,-7.6015,-7.6015,-7.6015,-7.6015,-7.6015,-7.4822,-7.3437,-7.4322,-7.3668,-7.2668,-7.3168,-7.3053,-7.2783,-7.2783,-7.2514,-7.2283,-7.2668,-7.2129,-7.1659,-7.243,-7.2613,-7.2702,-7.304,-7.3125,-7.3125,-7.3125,-7.3125,-7.3125,-7.3125,-7.2812,-7.2578,-7.2578,-7.2226,-7.1992,-7.1992,-7.1992,-7.1992,-7.1992,-7.1992,-7.1797,-7.1328,-7.1719,-7.1211,-6.9414,-6.9375,-6.8867,-6.7539,-6.7109,-6.6914,-6.6914,-6.6406,-6.5976,-6.5586,-6.5117,-6.5117,-6.5586,-6.5586,-6.6055,-6.529,-6.6981,-6.8538,-6.9857,-7.0669,-7.0804,-6.9417,-6.8944,-6.8166,-6.5865,0.0,-6.326,-6.2415,-6.4488,-6.6415,-6.6763,0.0,-7.3259,-7.4992,-7.5909,-7.6974,-7.8442,-7.8589,-7.8883,-7.9543,-7.8222,-7.7671,-7.8516,-7.7818,-7.7304,-7.7304,-7.7304,-7.7304,-7.7304,-7.7304,-7.7304,-7.7304,-7.7304,-7.7304,-7.7304,-7.7304,-7.7365,-7.745,-7.8072,-7.8006,-7.7517,-7.7707,-7.7836,-7.787,-7.6785,-7.6707,-7.7207,-7.6476,-7.6092,-7.6015,-7.6015,-7.6015,-7.6015,-7.6015,-7.5515,-7.5014,-7.5745,-7.5361,-7.4553,-7.4668,-7.4207,-7.3668,-7.3668,-7.3129,-7.2706,-7.3476,-7.3014,-7.2662,-7.3729,-7.4014,-7.4104,-7.4525,-7.4609,-7.4609,-7.4609,-7.4609,-7.4609,-7.4609,-7.3984,-7.3476,-7.3476,-7.2812,-7.2344,-7.2344,-7.2148,-7.1992,-7.1992,-7.1992,-7.1992,-7.1992,-7.1992,-7.164,-7.0742,-7.0039,-6.9219,-6.8242,-6.7461,-6.7031,-6.6914,-6.6914,-6.6523,-6.5781,-6.5781,-6.5781,-6.5781,-6.5781,-6.6172,-6.6339,-6.8166,-6.9857,-7.0128,-7.0297,-7.0161,-6.9316,-6.8132,0.0,0.0,-6.37,-6.3091,-6.1738,-6.4002,-6.6808,-6.8963,-7.156,-7.4242,-7.6521,-7.7635,-7.8259,0.0,-7.8589,-7.8662,-7.8772,-7.7892,-7.7671,-7.8516,-7.7818,-7.7304,-7.7304,-7.7304,-7.7304,-7.7304,-7.7304,-7.7304,-7.7304,-7.7304,-7.7304,-7.7304,-7.7304,-7.7629,-7.8146,-7.8255,-7.8778,-7.954,-7.8942,-7.8935,-7.9383,-7.8446,-7.7746,-7.7284,-7.713,-7.663,-7.6015,-7.6015,-7.6015,-7.6015,-7.6015,-7.5899,-7.5784,-7.5938,-7.4976,-7.3822,-7.4514,-7.4591,-7.4514,-7.4514,-7.4399,-7.4322,-7.4437,-7.3899,-7.3395,-7.3868,-7.4014,-7.4104,-7.4525,-7.4609,-7.4609,-7.4609,-7.4609,-7.4609,-7.4609,-7.4453,-7.4375,-7.4375,-7.4258,-7.414,-7.414,-7.289,-7.1992,-7.1992,-7.1992,-7.1992,-7.1992,-7.1992,-7.164,-7.0742,-7.0586,-6.9805,-6.8242,-6.8047,-6.7656,-6.6914,-6.6914,-6.6836,-6.668,-6.668,-6.668,-6.668,-6.668,-6.6758,-6.8166,-6.935,-7.0297,-7.0669,-7.0466,-6.9789,-6.8267,0.0,0.0,0.0,-6.3835,-6.3869,-6.3159,-6.5328,0.0,-6.8916,-7.1618,-7.4073,-7.5697,-7.7495,-7.8772,-7.9176,-7.958,-7.9837,-7.9837,-7.8699,-7.8148,-7.8552,-7.7818,-7.7524,-7.7965,-7.7561,-7.7304,-7.7304,-7.7304,-7.7304,-7.7304,-7.7304,-7.7304,-7.7304,-7.7304,-7.7651,-7.8309,-7.8602,-7.9244,-8.0048,-7.9583,-7.9786,-8.0362,-7.9054,-7.8246,-7.7861,-7.7438,-7.6784,-7.6015,-7.6015,-7.6015,-7.6015,-7.6015,-7.6015,-7.6015,-7.6015,-7.5476,-7.4861,-7.5245,-7.5399,-7.5399,-7.5399,-7.5053,-7.4822,-7.5245,-7.4745,-7.4306,-7.5042,-7.5376,-7.5599,-7.5895,-7.5937,-7.5937,-7.5937,-7.5937,-7.5937,-7.5937,-7.5586,-7.5273,-7.5273,-7.4883,-7.4609,-7.4609,-7.3867,-7.3164,-7.2734,-7.2265,-7.1992,-7.1992,-7.1992,-7.1836,-7.1406,-7.0937,-7.0156,-6.8945,-6.8437,-6.7773,-6.6914,-6.6914,-6.6914,-6.6914,-6.7344,-6.7344,-6.6914,-6.7383,-6.7344,-6.9485,-7.0195,-7.0567,-7.1176,-7.0635,-6.9451,-6.7489,-6.6812,0.0,0.0,-6.4208,-6.4613,-6.4613,0.0,-6.7688,0.0,-7.0735,-7.32,-7.4488,-7.6656,-7.8479,0.0,-8.0204,0.0,-8.0718,-7.9433,-7.8589,-7.8589,-7.7965,-7.7818,-7.8295,-7.7671,-7.7304,-7.7304,-7.7304,-7.7304,-7.7304,-7.7304,-7.7304,-7.7304,-7.7487,-7.7846,-7.8536,-7.9105,-7.9765,-8.0314,-8.0126,-8.0477,-8.0977,-7.9631,-7.8823,-7.8438,-7.7784,-7.6899,-7.6015,-7.6015,-7.6015,-7.6015,-7.6015,-7.6015,-7.6015,-7.6015,-7.6015,-7.6015,-7.6015,-7.6015,-7.6015,-7.6015,-7.5515,-7.513,-7.5822,-7.5476,-7.5204,-7.614,-7.6663,-7.6945,-7.7147,-7.7344,-7.7461,-7.7461,-7.7461,-7.7461,-7.7461,-7.6758,-7.6172,-7.6172,-7.5586,-7.5156,-7.5156,-7.5,-7.4609,-7.3945,-7.3086,-7.2578,-7.2578,-7.2383,-7.2265,-7.2265,-7.1445,-7.0625,-6.9805,-6.9101,-6.832,-6.7461,-6.7461,-6.7461,-6.7461,-6.7969,-6.7851,-6.7187,-6.7695,-6.7656,-6.9147,-7.0195,-7.1244,-7.1312,-7.0263,-6.8944,-6.7996,0.0,0.0,-6.4681,-6.4546,-6.4613,-6.4613,-6.4796,-6.5642,-6.7904,0.0,-7.1194,-7.4276,-7.5634,-7.7194,-7.9507,0.0,0.0,-7.9837,-7.9103,-7.8589,-7.8589,-7.8516,-7.8185,-7.7488,-7.7378,-7.7304,-7.7304,-7.7304,-7.7304,-7.7304,-7.7304,-7.7304,-7.7304,-7.7903,-7.8536,-7.9152,-7.9727,-8.0352,-8.0991,-8.0984,-8.1016,-8.1093,-8.0939,-7.9939,-7.8477,-7.84,-7.74,-7.6015,-7.6015,-7.6015,-7.6015,-7.6015,-7.6015,-7.6015,-7.6015,-7.6015,-7.6015,-7.6015,-7.6015,-7.6015,-7.6015,-7.5938,-7.5899,-7.5976,-7.5938,-7.5991,-7.6454,-7.6749,-7.6945,-7.7147,-7.7812,-7.8398,-7.8398,-7.8398,-7.8398,-7.8398,-7.7656,-7.707,-7.707,-7.6992,-7.6953,-7.6953,-7.6289,-7.5742,-7.5664,-7.4883,-7.4375,-7.4375,-7.3633,-7.3164,-7.3164,-7.2344,-7.1484,-7.0625,-7.0508,-7.0078,-6.918,-6.9219,-6.9258,-6.9258,-6.8555,-6.8164,-6.8047,-6.7344,-6.7383,-6.962,-7.05,-7.1312,-7.1312,-7.0534,-6.9553,-6.8808,0.0,-6.7523,-6.6745,-6.6981,-6.732,-6.732,-6.6914,-6.6912,-6.7954,0.0,0.0,-7.129,-7.3249,-7.5479,-7.788,-7.8446,-7.8919,-7.969,-7.9066,-7.8369,-7.7855,-7.7818,-7.7671,-7.7341,-7.7304,-7.7304,-7.7304,-7.7304,-7.7304,-7.7304,-7.7304,-7.7304,-7.7304,-7.796,-7.8602,-7.9244,-7.9847,-8.0463,-8.1093,-8.1093,-8.1093,-8.1093,-8.1093,-8.0362,-7.9285,-7.9285,-7.8554,-7.7476,-7.7476,-7.7476,-7.7476,-7.7476,-7.7169,-7.6784,-7.6784,-7.6784,-7.6669,-7.6169,-7.6015,-7.6015,-7.6015,-7.6015,-7.6015,-7.6015,-7.6015,-7.6095,-7.6488,-7.7066,-7.757,-7.7925,-7.8633,-7.9062,-7.8594,-7.8515,-7.832,-7.7812,-7.7422,-7.7187,-7.7187,-7.7187,-7.7187,-7.7187,-7.6914,-7.668,-7.668,-7.543,-7.4609,-7.4609,-7.4297,-7.4062,-7.4062,-7.3242,-7.2383,-7.1523,-7.0976,-7.0273,-6.9414,-6.9453,-6.9492,-6.9453,-6.9609,-6.9453,-6.8984,-6.9101,-6.9101,-6.9722,-7.0567,-7.1312,-7.1312,-7.0737,-7.006,0.0,0.0,-6.8944,-6.8368,-6.8707,-6.9113,-6.9113,-6.8436,-6.7895,0.0,0.0,-6.8501,-6.9376,-7.1588,-7.3977,-7.6108,0.0,-7.8185,-7.8993,-7.8552,-7.7965,-7.7378,-7.7304,-7.7304,-7.7304,-7.7304,-7.7304,-7.7304,-7.7304,-7.7304,-7.7304,-7.7304,-7.7304,-7.7304,-7.8146,-7.8804,-7.9244,-8.0046,-8.0643,-8.1093,-8.1093,-8.0939,-8.0746,-8.0977,-8.0439,-7.9438,-7.9708,-7.9285,-7.8477,-7.8477,-7.8477,-7.8477,-7.8207,-7.7746,-7.7246,-7.6976,-7.6899,-7.6784,-7.6207,-7.6169,-7.6322,-7.6053,-7.6015,-7.6015,-7.6015,-7.6015,-7.6172,-7.6838,-7.7438,-7.809,-7.8704,-7.9492,-7.9922,-7.9336,-7.9258,-7.9023,-7.8437,-7.8125,-7.7851,-7.7617,-7.7578,-7.75,-7.7226,-7.7187,-7.7187,-7.7187,-7.6328,-7.5664,-7.539,-7.5117,-7.4961,-7.4961,-7.418,-7.3281,-7.2422,-7.2031,-7.1445,-7.0586,-7.0586,-7.0586,-7.0547,-7.0664,-7.039,-6.9844,-7.0156,-7.0117,-6.9113,-7.0195,-7.1312,-7.1312,-7.0737,-7.0195,0.0,0.0,0.0,-6.9079,-6.9079,-6.9113,-6.9113,-6.8436,-6.7895,-6.7895,0.0,0.0,-6.9376,-7.1162,-7.29,0.0,-7.5525,-7.646,-7.7268,-7.7341,-7.7341,-7.7304,-7.7304,-7.7304,-7.7304,-7.7304,-7.7304,-7.7304,-7.7304,-7.7304,-7.7304,-7.7304,-7.7304,-7.7304,-7.8565,-7.9198,-7.9244,-8.0537,-8.1093,-8.1093,-8.1093,-8.0592,-7.99,-8.0746,-8.0092,-7.8592,-7.9477,-7.9285,-7.8477,-7.8477,-7.8477,-7.84,-7.7592,-7.7323,-7.7169,-7.6284,-7.6015,-7.6015,-7.6015,-7.6592,-7.7092,-7.6245,-7.6015,-7.6015,-7.6015,-7.6015,-7.6326,-7.7576,-7.7881,-7.8246,-7.9446,-8.0351,-8.0976,-8.0976,-8.0976,-8.0976,-8.0976,-8.0234,-7.9414,-7.8594,-7.8476,-7.8164,-7.7305,-7.7187,-7.7187,-7.7187,-7.7969,-7.8125,-7.7265,-7.6367,-7.5898,-7.5898,-7.5078,-7.4219,-7.332,-7.4101,-7.414,-7.3281,-7.3242,-7.3242,-7.3242,-7.1523,-7.0703,-7.0664,-6.9805,-6.9883,-6.9113,-7.0195,-7.1312,-7.1312,-7.1142,-7.0973,-7.0973,0.0,0.0,-7.0601,-7.0601,-7.0601,-7.0601,-6.9992,-6.9316,-6.8808,-6.8286,0.0,0.0,0.0,0.0,-7.4452,-7.651,-7.7671,-7.7341,-7.7304,-7.7304,-7.7304,-7.7304,-7.7304,-7.7304,-7.7304,-7.7304,-7.7304,-7.7304,-7.7304,-7.7304,-7.7304,-7.7304,-7.7304,-7.8565,-7.9198,-7.9244,-8.0537,-8.1093,-8.1093,-8.1093,-8.0939,-8.0708,-8.0977,-8.0785,-8.0285,-8.0592,-8.0516,-8.0285,-8.0285,-8.0285,-8.0246,-7.9977,-7.9131,-7.8054,-7.7784,-7.7323,-7.6784,-7.6169,-7.6207,-7.6361,-7.6092,-7.6015,-7.6015,-7.6015,-7.6519,-7.724,-7.7765,-7.8441,-7.9213,-8.0348,-8.082,-8.1015,-8.1015,-8.1015,-8.082,-8.0195,-7.9883,-7.9609,-7.9375,-7.9336,-7.9219,-7.8945,-7.8906,-7.8906,-7.8906,-7.914,-7.875,-7.7305,-7.75,-7.7422,-7.6836,-7.5976,-7.5351,-7.5078,-7.4765,-7.4453,-7.418,-7.3594,-7.3281,-7.3281,-7.2148,-7.1601,-7.1562,-7.1328,-7.1328,0.0,-7.0398,-7.1312,-7.1312,-7.1312,0.0,0.0,0.0,0.0,0.0,0.0,-7.1312,-7.1312,-7.0703,-6.9958,-6.9214,-6.8436,0.0,0.0,0.0,0.0,-7.4486,-7.6481,-7.7451,-7.69,-7.7157,-7.7304,-7.7304,-7.7304,-7.7304,-7.7304,-7.7304,-7.7304,-7.7304,-7.7304,-7.7304,-7.7304,-7.7304,-7.7304,-7.7304,-7.8565,-7.9198,-7.9244,-8.0537,-8.1093,-8.1093,-8.1093,-8.09,0.0,-8.0592,-8.0592,-8.0592,-8.0592,-8.0823,-8.1093,-8.1093,-8.09,-8.0554,-8.0246,-7.9208,-7.8054,-7.8054,-7.7707,-7.7207,-7.6669,-7.6245,-7.6015,-7.6015,-7.6015,-7.6082,-7.6519,-7.7109,-7.7855,-7.8741,-7.9452,-8.0185,-8.1248,-8.1484,-8.1484,-8.1484,-8.1484,-8.1328,-8.0781,-8.0664,-8.0586,-8.0234,-8.0195,-8.0078,-7.9726,-7.9687,-7.9687,-7.9687,-8.0,-7.9648,-7.8242,-7.8359,-7.8125,-7.7265,-7.668,-7.625,-7.5898,-7.5703,-7.543,-7.5117,-7.4219,-7.3945,-7.4297,-7.3086,-7.2305,-7.1992,-7.1992,-7.1992,0.0,0.0,0.0,0.0,0.0,0.0,0.0,0.0,0.0,0.0,0.0,0.0,0.0,-7.0737,-7.0026,-6.9214,-6.847,0.0,0.0,-6.9945,-7.2143,-7.4665,-7.5689,-7.6166,-7.6093,-7.6827,-7.7304,-7.7304,-7.7304,-7.7304,-7.7304,-7.7304,-7.7304,-7.7304,-7.7304,-7.7304,-7.7304,-7.7304,-7.7304,-7.7365,-7.8616,-7.9244,-7.929,-8.0537,-8.1093,-8.1093,-8.1093,-8.0631,-7.99,-7.9823,-7.9823,-7.9823,-7.9823,-8.0246,-8.0939,-8.0977,-8.0477,-7.9592,-7.8784,-7.8015,-7.74,-7.74,-7.7284,-7.7207,-7.7284,-7.6669,-7.6015,-7.6015,-7.6015,-7.6255,-7.7287,-7.7633,-7.8224,-8.0222,-8.0712,-8.1011,-8.2068,-8.2265,-8.2226,-8.2304,-8.2304,-8.2304,-8.2304,-8.2304,-8.2031,-8.1211,-8.1094,-8.0781,-8.0,-7.9883,-7.9883,-7.9883,-8.0625,-8.0742,-7.9883,-7.9062,-7.8203,-7.7344,-7.7226,-7.6836,-7.6015,-7.6758,-7.6836,-7.6015,-7.5156,-7.5039,-7.5703,-7.414,-7.289,-7.1992,-7.207,-7.207,0.0,0.0,0.0,0.0,0.0,0.0,0.0,0.0,0.0,0.0,0.0,0.0,0.0,0.0,0.0,-6.9316,-6.8944,-6.8944,-6.9305,-7.2022,-7.442,-7.5666,-7.6533,-7.679,-7.6166,-7.6827,-7.7304,-7.7304,-7.7304,-7.7304,-7.7304,-7.7304,-7.7304,-7.7304,-7.7304,-7.7304,-7.7304,-7.7304,-7.757,-7.8035,-7.8816,-7.9425,-7.9929,-8.0716,-8.1093,-8.1093,-8.1093,-8.0977,-8.0746,-8.0092,-7.9823,-7.9823,-7.9823,-7.9515,-7.9169,-7.9862,-7.9554,-7.8784,-7.8554,-7.8361,-7.8207,-7.8207,-7.7361,-7.6438,-7.7092,-7.6669,-7.6015,-7.6015,-7.6015,-7.6198,-7.713,-7.8098,-7.9081,-8.0221,-8.0712,-8.1169,-8.2109,-8.1797,-8.1484,-8.2187,-8.2304,-8.2304,-8.2304,-8.2304,-8.2226,-8.2031,-8.1992,-8.1914,-8.1719,-8.1679,-8.1679,-8.1679,-8.1875,-8.164,-8.0781,-7.9922,-7.9062,-7.8242,-7.7578,-7.7109,-7.6914,-7.7109,-7.7109,-7.6914,-7.6055,-7.5039,-7.3906,-7.418,-7.3515,-7.2031,-7.2695,-7.2656,0.0,0.0,0.0,0.0,0.0,0.0,0.0,0.0,0.0,0.0,0.0,0.0,0.0,0.0,-7.1454,-6.9843,-7.0035,-7.0523,-7.0804,-7.288,-7.4771,-7.5946,-7.6497,-7.6717,-7.668,-7.7047,-7.7304,-7.7304,-7.7304,-7.7304,-7.7304,-7.7304,-7.7304,-7.7304,-7.7304,-7.7304,-7.7304,-7.7304,-7.7629,-7.8309,-7.8914,-7.9513,-8.0125,-8.0783,-8.1093,-8.1093,-8.1093,-8.0862,-8.0477,-7.9977,-7.9554,-7.9208,-7.9208,-7.89,-7.8592,-7.9477,-7.9246,-7.8477,-7.8477,-7.8477,-7.8477,-7.8477,-7.79,-7.7323,-7.8169,-7.7592,-7.6592,-7.6592,-7.6592,-7.6919,-7.8243,-7.9153,-7.9973,-8.0896,-8.1362,-8.1719,-8.2187,-8.1914,-8.1758,-8.2226,-8.2304,-8.2304,-8.2304,-8.2304,-8.2304,-8.2304,-8.2304,-8.2304,-8.2304,-8.2304,-8.2304,-8.2304,-8.2304,-8.2109,-8.164,-8.0429,-7.9375,-7.8555,-7.7695,-7.7187,-7.7187,-7.7187,-7.6992,-7.6601,-7.6523,-7.5625,-7.3906,-7.4765,-7.4492,-7.3203,-7.3672,-7.3633,0.0,0.0,0.0,0.0,0.0,0.0,0.0,0.0,0.0,0.0,0.0,0.0,0.0,-7.2142,-7.2123,-7.0701,-7.135,-7.2193,-7.2587,-7.3483,-7.4551,-7.5946,-7.6203,-7.6497,-7.7084,-7.7268,-7.7304,-7.7304,-7.7304,-7.7304,-7.7304,-7.7304,-7.7304,-7.7304,-7.7304,-7.7304,-7.7304,-7.7426,-7.7789,-7.8432,-7.9058,-7.9642,-8.0277,-8.0855,-8.1016,-8.09,-8.09,-8.04,-7.9592,-7.9592,-7.9092,-7.8323,-7.8438,-7.84,-7.84,-7.9169,-7.8938,-7.8323,-7.8438,-7.8477,-7.8515,-7.8784,-7.8707,-7.8669,-7.9554,-7.8707,-7.7515,-7.763,-7.7592,-7.7872,-7.9597,-8.0243,-8.0649,-8.1704,-8.2125,-8.2304,-8.2304,-8.2304,-8.2304,-8.2304,-8.2304,-8.2304,-8.2304,-8.2304,-8.2304,-8.2304,-8.2304,-8.2304,-8.2304,-8.2304,-8.2304,-8.2304,-8.2304,-8.2304,-8.2304,-8.082,-7.9531,-7.8711,-7.7851,-7.7383,-7.7383,-7.7265,-7.6836,-7.6094,-7.6836,-7.6406,-7.4805,-7.5664,-7.5586,-7.4609,-7.4726,-7.4726,-7.1312,-7.1312,-7.1312,-7.1312,-7.1312,-7.1312,0.0,0.0,0.0,0.0,0.0,0.0,0.0,-7.1969,-7.1538,-7.1449,-7.1785,-7.2549,-7.4132,-7.516,-7.5836,-7.6056,-7.6717,-7.69,-7.635,-7.69,-7.7304,-7.7304,-7.7304,-7.7304,-7.7304,-7.7304,-7.7304,-7.7304,-7.7304,-7.7304,-7.7304,-7.7846,-7.8484,-7.9058,-7.9642,-8.0315,-8.0959,-8.1061,-8.0708,-8.0015,-8.0015,-7.9515,-7.8707,-7.8707,-7.8207,-7.7553,-7.8207,-7.8092,-7.7476,-7.763,-7.7592,-7.7592,-7.8246,-7.8477,-7.8746,-8.0208,-7.9708,-7.8669,-7.9554,-7.9092,-7.8477,-7.9208,-7.8861,-7.8545,-7.9576,-8.0135,-8.0645,-8.153,-8.2046,-8.2304,-8.2304,-8.2304,-8.2304,-8.2304,-8.2304,-8.2304,-8.2304,-8.2304,-8.2304,-8.2304,-8.2304,-8.2304,-8.2304,-8.2304,-8.2304,-8.2304,-8.2304,-8.2304,-8.2304,-8.1367,-8.0429,-7.957,-7.875,-7.8281,-7.8281,-7.7578,-7.7148,-7.6992,-7.7148,-7.6719,-7.5703,-7.6562,-7.6172,-7.4609,-7.5351,-7.5312,-7.1312,-7.1312,-7.1312,-7.1312,-7.1312,-7.1312,-7.1312,-7.1312,0.0,0.0,0.0,0.0,0.0,-7.252,-7.3168,-7.394,-7.3689,-7.3716,-7.4679,-7.519,-7.5616,-7.6056,-7.6423,-7.668,-7.6754,-7.7084,-7.7304,-7.7304,-7.7304,-7.7304,-7.7304,-7.7304,-7.7121,-7.668,-7.6644,-7.6604,-7.6494,-7.7588,-7.85,-7.9198,-7.9806,-8.0195,-8.04,-8.04,-7.9939,-7.9131,-7.9592,-7.9054,-7.79,-7.8823,-7.8169,-7.6707,-7.7977,-7.8015,-7.74,-7.8323,-7.8669,-7.8707,-7.9054,-7.9208,-7.9323,-8.0131,-7.9862,-7.9361,-8.0246,-7.99,-7.9361,-8.0246,-7.9862,-7.94,-8.0285,-8.0787,-8.1174,-8.1602,-8.2,-8.2304,-8.2304,-8.2304,-8.2304,-8.2304,-8.2304,-8.2304,-8.2304,-8.2304,-8.2304,-8.2304,-8.2304,-8.2304,-8.2304,-8.2304,-8.2304,-8.2304,-8.2304,-8.2304,-8.2304,-8.1484,-8.0625,-7.9765,-7.8945,-7.8515,-7.8515,-7.8125,-7.7695,-7.7226,-7.7187,-7.6992,-7.6601,-7.6992,-7.6797,-7.6015,-7.6406,-7.6406,-7.1312,-7.1312,-7.1312,-7.1312,-7.1312,-7.1312,-7.1312,-7.1312,-7.1312,-7.1312,-7.1457,0.0,0.0,-7.2984,-7.4367,-7.5241,-7.5146,-7.5008,-7.5422,-7.5469,-7.5689,-7.6313,-7.6387,-7.6644,-7.7268,-7.7304,-7.7304,-7.7304,-7.7304,-7.7304,-7.7304,-7.7304,-7.6937,-7.613,-7.6093,-7.6006,-7.5798,-7.7024,-7.8195,-7.916,-7.9742,-7.9957,-7.9785,-7.9592,-7.9015,-7.8246,-7.9131,-7.8554,-7.713,-7.9015,-7.8438,-7.6438,-7.7938,-7.8015,-7.7476,-7.9169,-7.9823,-7.9823,-7.9823,-7.9939,-8.0092,-8.0092,-8.0092,-8.0246,-8.09,-8.0631,-8.0246,-8.09,-8.0631,-8.0246,-8.0939,-8.1407,-8.168,-8.168,-8.2,-8.2304,-8.2304,-8.2304,-8.2304,-8.2304,-8.2304,-8.2304,-8.2304,-8.2304,-8.2304,-8.2304,-8.2304,-8.2304,-8.2304,-8.2304,-8.2304,-8.2304,-8.2304,-8.2304,-8.2304,-8.1484,-8.0781,-8.0351,-7.918,-7.8672,-7.9062,-7.8711,-7.8203,-7.7539,-7.75,-7.7383,-7.7187,-7.7383,-7.7383,-7.7187,-7.7422,-7.7383,-7.1312,-7.1312,-7.1312,-7.1312,-7.1312,-7.1312,-7.1312,-7.1312,-7.1312,-7.1312,-7.2056,-7.2507,-7.1827,-7.2528,-7.3287,-7.3363,-7.4725,-7.6052,-7.6997,-7.7157,-7.7157,-7.7231,-7.7231,-7.7268,-7.7304,-7.7304,-7.7304,-7.7304,-7.7304,-7.7304,-7.7304,-7.7304,-7.6937,-7.613,-7.6093,-7.6006,-7.5798,-7.646,-7.75,-7.8942,-7.9527,-7.9831,-7.9785,-7.8977,-7.813,-7.7438,-7.8246,-7.763,-7.6284,-7.8784,-7.8784,-7.7284,-7.8169,-7.8015,-7.7476,-7.9169,-7.9823,-7.9823,-7.9823,-8.0323,-8.1016,-8.1016,-8.1016,-8.1016,-8.1093,-8.1054,-8.1016,-8.1093,-8.1054,-8.1016,-8.1093,-8.1407,-8.168,-8.168,-8.2,-8.2304,-8.2304,-8.2304,-8.2304,-8.2304,-8.2304,-8.2304,-8.2304,-8.2304,-8.2304,-8.2304,-8.2304,-8.2304,-8.2304,-8.2304,-8.2304,-8.2304,-8.2304,-8.2304,-8.2304,-8.1484,-8.1328,-8.207,-7.9844,-7.9219,-8.0742,-7.9336,-7.8476,-7.8398,-7.8398,-7.8008,-7.7187,-7.8008,-7.8008,-7.7226,-7.8047,-7.7969,-7.1312,-7.1312,-7.1312,-7.1312,-7.1312,-7.1312,-7.1312,-7.1312,-7.1312,-7.1312,-7.2142,-7.2661,-7.2002,-7.3259,-7.4043,-7.3536,-7.5261,-7.6856,-7.7243,-7.7304,-7.7304,-7.7304,-7.7304,-7.7304,-7.7304,-7.7304,-7.7304,-7.7304,-7.7304,-7.7304,-7.7304,-7.6827,-7.6203,-7.5395,-7.4882,-7.4682,-7.4873,-7.56,-7.661,-7.7878,-7.8646,-7.8746,-7.8246,-7.79,-7.7284,-7.6553,-7.74,-7.7092,-7.613,-7.763,-7.7553,-7.663,-7.7977,-7.8977,-7.9746,-8.0362,-8.0592,-8.0592,-8.0592,-8.0823,-8.1093,-8.1093,-8.1093,-8.1093,-8.1093,-8.1093,-8.1093,-8.1093,-8.1093,-8.1093,-8.1093,-8.1298,-8.1543,-8.1648,-8.1899,-8.2168,-8.2265,-8.2304,-8.2304,-8.2304,-8.2304,-8.2304,-8.2304,-8.2304,-8.2304,-8.2304,-8.2304,-8.2304,-8.2304,-8.2304,-8.2304,-8.2304,-8.2304,-8.2304,-8.2304,-8.1992,-8.1953,-8.2265,-8.0898,-8.0351,-8.0976,-8.039,-7.9805,-7.9258,-7.875,-7.8594,-7.875,-7.8594,-7.8594,-7.875,-7.9101,-7.8789,-7.1312,-7.1312,-7.1312,-7.1312,-7.1312,-7.1312,-7.1312,-7.1312,-7.1401,-7.1688,-7.1985,-7.2206,-7.2512,-7.3308,-7.3905,-7.3609,-7.5671,-7.7304,-7.7304,-7.7304,-7.7304,-7.7304,-7.7304,-7.7231,-7.6974,-7.6937,-7.6937,-7.6937,-7.6937,-7.6937,-7.6937,-7.6387,-7.5616,-7.4551,-7.4159,-7.4093,-7.4293,-7.5036,-7.5894,-7.6899,-7.7438,-7.7553,-7.7284,-7.7015,-7.6553,-7.6053,-7.6899,-7.6823,-7.6092,-7.7515,-7.7746,-7.7323,-7.8784,-7.9708,-8.0323,-8.0592,-8.0708,-8.0708,-8.0708,-8.0862,-8.1093,-8.1093,-8.1093,-8.1093,-8.1093,-8.1093,-8.1093,-8.1093,-8.1093,-8.1093,-8.1093,-8.1311,-8.1524,-8.1687,-8.1899,-8.2125,-8.2265,-8.2304,-8.2304,-8.2304,-8.2304,-8.2304,-8.2304,-8.2304,-8.2304,-8.2304,-8.2304,-8.2304,-8.2304,-8.2304,-8.2304,-8.2304,-8.2304,-8.2304,-8.2304,-8.2304,-8.2304,-8.2304,-8.1758,-8.1406,-8.1406,-8.1133,-8.0703,-8.0117,-7.957,-7.9414,-7.9687,-7.9414,-7.9414,-7.9726,-7.9961,-7.9687,-7.1312,-7.1312,-7.1312,-7.1312,-7.1312,-7.1312,-7.1312,-7.1312,-7.1634,-7.2582,-7.1666,-7.1217,-7.3173,-7.2724,-7.2442,-7.3374,-7.5671,-7.7304,-7.7304,-7.7304,-7.7304,-7.7304,-7.7304,-7.6974,-7.6166,-7.6093,-7.6093,-7.6093,-7.6093,-7.6093,-7.6093,-7.6093,-7.5359,-7.3744,-7.429,-7.4511,-7.4293,-7.4828,-7.5413,-7.6015,-7.6015,-7.6438,-7.7246,-7.6399,-7.6015,-7.6053,-7.6899,-7.6784,-7.6207,-7.8746,-7.9785,-7.99,-8.0746,-8.0015,-7.8631,-7.9477,-7.9823,-7.9785,-7.9823,-8.0362,-8.1093,-8.1093,-8.1093,-8.1093,-8.1093,-8.1093,-8.1093,-8.1093,-8.1093,-8.1093,-8.1093,-8.1407,-8.168,-8.168,-8.1992,-8.2304,-8.2304,-8.2304,-8.2304,-8.2304,-8.2304,-8.2304,-8.2304,-8.2304,-8.2304,-8.2304,-8.2304,-8.2304,-8.2304,-8.2304,-8.2304,-8.2304,-8.2304,-8.2304,-8.2304,-8.2304,-8.2304,-8.2304,-8.2304,-8.2304,-8.2304,-8.1484,-8.1015,-8.1015,-8.1015,-8.0586,-7.9726,-8.0586,-8.0547,-7.9765,-8.0625,-8.0547,-7.1312,-7.1312,-7.1312,-7.1312,-7.1312,-7.1312,-7.1312,-7.1312,-7.1776,-7.3492,-7.3606,-7.3474,-7.3549,-7.4341,-7.4623,-7.3682,-7.5671,-7.7304,-7.7304,-7.7304,-7.7121,-7.6533,-7.646,-7.6166,-7.5322,-7.5285,-7.5285,-7.5285,-7.5285,-7.5285,-7.5285,-7.4735,-7.438,-7.4343,-7.3959,-7.4113,-7.4866,-7.5017,-7.5413,-7.6015,-7.6015,-7.613,-7.6361,-7.613,-7.6015,-7.6015,-7.6284,-7.6245,-7.6092,-7.7476,-7.8746,-7.9823,-8.0092,-7.9862,-7.9515,-8.04,-7.9939,-7.9054,-8.0285,-8.0477,-8.0285,-8.09,-8.1093,-8.1093,-8.1093,-8.1093,-8.1093,-8.1093,-8.1093,-8.1093,-8.1093,-8.1311,-8.1504,-8.1687,-8.1767,-8.1967,-8.2223,-8.2304,-8.2304,-8.2304,-8.2304,-8.2304,-8.2304,-8.2304,-8.2304,-8.2304,-8.2304,-8.2304,-8.2304,-8.2304,-8.2304,-8.2304,-8.2304,-8.2304,-8.2304,-8.2304,-8.2304,-8.2304,-8.2304,-8.2304,-8.2304,-8.2031,-8.1914,-8.1914,-8.1328,-8.1172,-8.1523,-8.1172,-8.1172,-8.1523,-8.1797,-8.1445,-7.1312,-7.1312,-7.1312,-7.1312,-7.1312,-7.1367,-7.183,-7.2228,-7.2962,-7.4535,-7.4759,-7.4658,-7.4579,-7.5097,-7.5343,-7.4706,-7.5823,-7.6827,-7.6827,-7.657,-7.6203,-7.5689,-7.5616,-7.5322,-7.4515,-7.4441,-7.4441,-7.4441,-7.4441,-7.4441,-7.4441,-7.3964,-7.3831,-7.4085,-7.3864,-7.4168,-7.5091,-7.534,-7.5654,-7.6015,-7.6015,-7.6015,-7.6015,-7.6015,-7.6015,-7.6015,-7.6015,-7.6207,-7.6553,-7.7092,-7.8092,-7.9285,-7.9285,-7.9285,-7.9361,-7.9862,-7.9631,-7.9169,-8.0208,-8.0477,-8.04,-8.0939,-8.1093,-8.1093,-8.1093,-8.1093,-8.1093,-8.1093,-8.1093,-8.1093,-8.1093,-8.1196,-8.1335,-8.1615,-8.1739,-8.1899,-8.2221,-8.2304,-8.2304,-8.2304,-8.2304,-8.2304,-8.2304,-8.2304,-8.2304,-8.2304,-8.2304,-8.2304,-8.2304,-8.2304,-8.2304,-8.2304,-8.2304,-8.2304,-8.2304,-8.2304,-8.2304,-8.2304,-8.2304,-8.2304,-8.2304,-8.2304,-8.2304,-8.2304,-8.1797,-8.1758,-8.2304,-8.1758,-8.1797,-8.2304,-8.2304,-8.2031,-7.1312,-7.1312,-7.1312,-7.1312,-7.1401,-7.1688,-7.2749,-7.3694,-7.4684,-7.558,-7.5313,-7.5212,-7.6045,-7.5434,-7.5103,-7.5971,-7.6056,-7.5983,-7.5983,-7.5359,-7.4882,-7.4808,-7.4735,-7.4368,-7.356,-7.3487,-7.3487,-7.3487,-7.356,-7.3597,-7.3597,-7.3618,-7.361,-7.3492,-7.4072,-7.4591,-7.5048,-7.5679,-7.5976,-7.5861,-7.5976,-7.6015,-7.6015,-7.6015,-7.6015,-7.6015,-7.6015,-7.6476,-7.7284,-7.7284,-7.7746,-7.8477,-7.8477,-7.8477,-7.8515,-7.8592,-7.9054,-7.9708,-7.9785,-8.0323,-8.0977,-8.0977,-8.1054,-8.1093,-8.1093,-8.1093,-8.1093,-8.1093,-8.1093,-8.1093,-8.1093,-8.1093,-8.1224,-8.1618,-8.1844,-8.2046,-8.2264,-8.2304,-8.2304,-8.2304,-8.2304,-8.2304,-8.2304,-8.2304,-8.2304,-8.2304,-8.2304,-8.2304,-8.2304,-8.2304,-8.2304,-8.2304,-8.2304,-8.2304,-8.2304,-8.2304,-8.2304,-8.2304,-8.2304,-8.2304,-8.2304,-8.2304,-8.2304,-8.2304,-8.2304,-8.2304,-8.2304,-8.2304,-8.2304,-8.2304,-8.2304,-8.2304,-7.1312,-7.1312,0.0,0.0,-7.1917,-7.2714,-7.3729,-7.4757,-7.551,-7.5718,-7.6287,-7.6763,-7.6986,-7.6374,-7.5873,-7.6093,-7.5579,-7.5175,-7.5175,-7.5028,-7.4661,-7.4037,-7.3413,-7.2716,-7.1908,-7.1835,-7.1835,-7.1835,-7.2422,-7.2753,-7.2753,-7.3202,-7.3678,-7.4072,-7.4632,-7.4857,-7.4789,-7.5601,-7.5668,-7.4976,-7.5668,-7.6015,-7.6015,-7.6015,-7.6015,-7.6015,-7.6015,-7.6476,-7.7284,-7.7284,-7.7746,-7.8477,-7.8477,-7.8477,-7.8592,-7.9285,-7.9208,-7.8861,-7.9554,-7.9939,-8.0092,-8.0092,-8.0554,-8.1093,-8.1093,-8.1093,-8.1093,-8.1093,-8.1093,-8.1093,-8.1093,-8.1093,-8.1224,-8.1618,-8.171,-8.1867,-8.2221,-8.2304,-8.2304,-8.2304,-8.2304,-8.2304,-8.2304,-8.2304,-8.2304,-8.2304,-8.2304,-8.2304,-8.2304,-8.2304,-8.2304,-8.2304,-8.2304,-8.2304,-8.2304,-8.2304,-8.2304,-8.2304,-8.2304,-8.2304,-8.2304,-8.2304,-8.2304,-8.2304,-8.2304,-8.2304,-8.2304,-8.2304,-8.2304,-8.2304,-8.2304,-8.2304,-7.1312,0.0,0.0,-7.1917,0.0,-7.3772,-7.4757,-7.5823,-7.6389,-7.5988,-7.6371,-7.6607,-7.624,-7.5836,-7.5542,-7.5542,-7.4845,-7.4331,-7.4331,-7.367,-7.3046,-7.2606,-7.1835,-7.1358,-7.1321,-7.1321,-7.1321,-7.1321,-7.1688,-7.1762,-7.1358,-7.1917,-7.2491,-7.3086,-7.3612,-7.3964,-7.413,-7.4591,-7.4591,-7.413,-7.4591,-7.4822,-7.4822,-7.563,-7.6015,-7.6015,-7.6015,-7.6245,-7.6669,-7.6669,-7.6899,-7.7284,-7.7284,-7.7784,-7.8515,-7.8592,-7.8823,-7.9131,-7.9169,-7.9438,-7.9746,-7.9323,-8.0054,-8.1016,-8.0592,-8.0785,-8.1093,-8.1093,-8.1093,-8.1093,-8.1093,-8.1093,-8.1224,-8.1618,-8.168,-8.1831,-8.2219,-8.2304,-8.2304,-8.2304,-8.2304,-8.2304,-8.2304,-8.2304,-8.2304,-8.2304,-8.2304,-8.2304,-8.2304,-8.2304,-8.2304,-8.2304,-8.2304,-8.2304,-8.2304,-8.2304,-8.2304,-8.2304,-8.2304,-8.2304,-8.2304,-8.2304,-8.2304,-8.2304,-8.2304,-8.2304,-8.2304,-8.2304,-8.2304,-8.2304,-8.2304,-8.2304,0.0,0.0,-7.1546,-7.2582,-7.3571,0.0,-7.558,-7.6563,-7.7047,-7.6093,-7.6019,-7.5836,-7.5065,-7.4808,-7.4698,-7.4698,-7.4037,-7.345,-7.3303,-7.2165,-7.1248,-7.1138,-7.0367,-7.0146,-7.0844,-7.0917,-7.0917,-7.0917,-7.1027,-7.0863,-7.0275,-7.0772,-7.132,-7.1927,-7.2469,-7.292,-7.3283,-7.3437,-7.3437,-7.3283,-7.3437,-7.3514,-7.3553,-7.5091,-7.5784,-7.5784,-7.5784,-7.5861,-7.6015,-7.6015,-7.6015,-7.6015,-7.6015,-7.6938,-7.8207,-7.7553,-7.8361,-7.9669,-7.8631,-7.8938,-7.9669,-7.8784,-7.9592,-8.0785,-8.0208,-8.0516,-8.1093,-8.1093,-8.1093,-8.1093,-8.1093,-8.1093,-8.1224,-8.1618,-8.168,-8.1831,-8.2219,-8.2304,-8.2304,-8.2304,-8.2304,-8.2304,-8.2304,-8.2304,-8.2304,-8.2304,-8.2304,-8.2304,-8.2304,-8.2304,-8.2304,-8.2304,-8.2304,-8.2304,-8.2304,-8.2304,-8.2304,-8.2304,-8.2304,-8.2304,-8.2304,-8.2304,-8.2304,-8.2304,-8.2304,-8.2304,-8.2304,-8.2304,-8.2304,-8.2304,-8.2304,-8.2304,0.0,0.0,-7.1546,0.0,-7.3571,-7.4535,0.0,0.0,-7.69,-7.5395,-7.5616,-7.5836,-7.5065,-7.4331,-7.3854,-7.3854,-7.3193,-7.2422,-7.1725,-7.1468,-7.1064,-7.033,-6.9559,-6.9119,-6.9229,-6.9229,-6.9229,-6.9229,-6.9889,-7.0421,-7.0772,-7.1366,-7.1927,-7.2469,-7.3061,-7.3073,-7.236,-7.3129,-7.3129,-7.236,-7.3129,-7.3514,-7.3553,-7.4437,-7.4861,-7.4861,-7.4861,-7.5284,-7.6015,-7.6015,-7.6015,-7.6015,-7.6015,-7.6592,-7.7438,-7.7323,-7.8361,-7.9592,-7.8015,-7.8477,-7.9669,-7.8784,-7.9169,-8.0092,-8.0746,-8.1016,-8.1093,-8.1093,-8.1093,-8.1093,-8.1093,-8.1093,-8.1224,-8.1618,-8.168,-8.1831,-8.2219,-8.2304,-8.2304,-8.2304,-8.2304,-8.2304,-8.2304,-8.2304,-8.2304,-8.2304,-8.2304,-8.2304,-8.2304,-8.2304,-8.2304,-8.2304,-8.2304,-8.2304,-8.2304,-8.2304,-8.2304,-8.2304,-8.2304,-8.2304,-8.2304,-8.2304,-8.2304,-8.2304,-8.2304,-8.2304,-8.2304,-8.2304,-8.2304,-8.2304,-8.2304,-8.2304,-7.1312,0.0,0.0,0.0,-7.4385,-7.544,-7.6396,-7.6956,-7.6974,-7.5836,-7.5836,-7.5579,-7.3891,-7.3266,-7.3046,-7.3046,-7.2716,-7.2239,-7.1431,-7.0917,-7.033,-6.9522,-6.8715,-6.8385,-6.8862,-6.8898,-6.8898,-6.8898,-6.9229,-6.9479,-6.9543,-7.011,-7.0648,-7.1166,-7.1735,-7.186,-7.1475,-7.186,-7.186,-7.1475,-7.186,-7.2283,-7.2783,-7.3129,-7.3553,-7.4091,-7.5014,-7.513,-7.4668,-7.563,-7.5707,-7.5322,-7.5822,-7.6515,-7.7246,-7.6746,-7.7361,-7.8284,-7.7553,-7.8092,-7.9015,-7.8631,-7.94,-8.0516,-8.04,-8.0708,-8.1093,-8.1093,-8.1093,-8.1093,-8.1093,-8.1093,-8.1224,-8.1618,-8.168,-8.1831,-8.2219,-8.2304,-8.2304,-8.2304,-8.2304,-8.2304,-8.2304,-8.2304,-8.2304,-8.2304,-8.2304,-8.2304,-8.2304,-8.2304,-8.2304,-8.2304,-8.2304,-8.2304,-8.2304,-8.2304,-8.2304,-8.2304,-8.2304,-8.2304,-8.2304,-8.2304,-8.2304,-8.2304,-8.2304,-8.2304,-8.2304,-8.2304,-8.2304,-8.2304,-8.2304,-8.2304,0.0,0.0,0.0,0.0,-7.483,-7.5718,0.0,0.0,-7.7084,-7.6276,-7.6093,-7.5506,-7.3487,-7.2936,-7.2753,-7.2532,-7.2496,-7.2239,-7.1431,-7.077,-7.011,-6.9302,-6.8495,-6.8238,-6.8862,-6.8715,-6.8605,-6.8605,-6.8605,-6.8609,-6.8697,-6.9064,-6.9626,-7.0298,-7.0681,-7.0898,-7.0898,-7.0898,-7.1014,-7.1245,-7.1014,-7.1475,-7.2514,-7.2514,-7.2899,-7.3591,-7.5053,-7.5091,-7.4245,-7.5476,-7.563,-7.5091,-7.5745,-7.6399,-7.6899,-7.6245,-7.6553,-7.7284,-7.7053,-7.763,-7.8477,-7.8477,-7.9515,-8.0708,-8.0246,-8.0592,-8.1093,-8.1093,-8.1093,-8.1093,-8.1093,-8.1093,-8.1224,-8.1618,-8.168,-8.1831,-8.2219,-8.2304,-8.2304,-8.2304,-8.2304,-8.2383,-8.2578,-8.2617,-8.2695,-8.2929,-8.2969,-8.2969,-8.2969,-8.2773,-8.2617,-8.2617,-8.2422,-8.2304,-8.2304,-8.2304,-8.2304,-8.2304,-8.2304,-8.2304,-8.2304,-8.2304,-8.2304,-8.2304,-8.2304,-8.2304,-8.2304,-8.2304,-8.2304,-8.2304,-8.2304,-8.2304,0.0,0.0,0.0,0.0,0.0,0.0,0.0,0.0,-7.7084,-7.6276,-7.6093,-7.5836,-7.4955,-7.4147,-7.3377,-7.2606,-7.2496,-7.2239,-7.1431,-7.1284,-7.0954,-7.0146,-6.9339,-6.8862,-6.8898,-6.8201,-6.776,-6.776,-6.776,-6.8185,-6.919,-6.9272,-6.9775,-7.0843,-7.0898,-7.0898,-7.0898,-7.0898,-7.1321,-7.2129,-7.1283,-7.1783,-7.3437,-7.3437,-7.3476,-7.3553,-7.4399,-7.5207,-7.5861,-7.5976,-7.5976,-7.5938,-7.5976,-7.6015,-7.6053,-7.6015,-7.6553,-7.7169,-7.6361,-7.713,-7.8477,-7.8477,-7.9131,-8.0015,-8.0785,-8.1054,-8.1093,-8.1093,-8.1093,-8.1093,-8.1093,-8.1093,-8.1224,-8.1618,-8.168,-8.1831,-8.2219,-8.2304,-8.2304,-8.2304,-8.2304,-8.2578,-8.3398,-8.3515,-8.3828,-8.4648,-8.4765,-8.4765,-8.4765,-8.4023,-8.3515,-8.3515,-8.2773,-8.2304,-8.2304,-8.2304,-8.2304,-8.2304,-8.2304,-8.2304,-8.2304,-8.2304,-8.2304,-8.2304,-8.2304,-8.2304,-8.2304,-8.2304,-8.2304,-8.2304,-8.2304,-8.2304,0.0,0.0,0.0,0.0,-7.431,-7.544,-7.6197,-7.6856,-7.7231,-7.6937,-7.69,-7.6644,-7.5836,-7.5028,-7.4221,-7.3413,-7.3266,-7.2826,-7.1505,-7.1321,-7.1027,-7.0183,-6.9853,-6.9669,-6.9669,-6.9412,-6.9229,-6.9229,-6.8752,-6.8976,-7.0022,-6.9577,-6.9775,-7.0871,-7.0898,-7.0898,-7.0898,-7.1437,-7.1898,-7.2206,-7.2437,-7.3168,-7.4284,-7.4284,-7.4591,-7.513,-7.5399,-7.5091,-7.4476,-7.5553,-7.5668,-7.5207,-7.5784,-7.6015,-7.6015,-7.6015,-7.6207,-7.6553,-7.7323,-7.7977,-7.8669,-7.9823,-8.0362,-8.0708,-8.1016,-8.1093,-8.1093,-8.1093,-8.1093,-8.1093,-8.1093,-8.1093,-8.1224,-8.1618,-8.1889,-8.212,-8.2265,-8.2304,-8.2461,-8.3047,-8.3125,-8.3398,-8.4297,-8.4414,-8.4336,-8.4101,-8.4062,-8.3867,-8.3281,-8.2969,-8.2773,-8.2773,-8.25,-8.2304,-8.2304,-8.2812,-8.3125,-8.3125,-8.3125,-8.3125,-8.3125,-8.2617,-8.2304,-8.2304,-8.2304,-8.2304,-8.2304,-8.2304,-8.2304,-8.2304,-8.2304,-8.2304,-7.1312,0.0,0.0,0.0,0.0,-7.5369,-7.5718,-7.6563,-7.7304,-7.7304,-7.7304,-7.7157,-7.6607,-7.6093,-7.5359,-7.4294,-7.4111,-7.3744,-7.2679,-7.2275,-7.1908,-7.1358,-7.0844,-7.0513,-7.0513,-7.0257,-7.011,-7.011,-6.9777,-6.9955,-7.0889,-7.0607,-7.0829,-7.1717,-7.1783,-7.1783,-7.1783,-7.236,-7.2783,-7.3053,-7.336,-7.4091,-7.513,-7.4822,-7.5168,-7.6015,-7.6015,-7.5361,-7.4437,-7.5553,-7.5668,-7.5207,-7.5784,-7.6015,-7.6053,-7.6322,-7.6245,-7.6245,-7.79,-7.8477,-7.8746,-8.0208,-8.0862,-8.1093,-8.1093,-8.1093,-8.1093,-8.1093,-8.1093,-8.1093,-8.1093,-8.1224,-8.1383,-8.171,-8.2059,-8.2383,-8.2656,-8.2734,-8.289,-8.3476,-8.3828,-8.4297,-8.5195,-8.5351,-8.5156,-8.457,-8.4453,-8.414,-8.3281,-8.2929,-8.2851,-8.3125,-8.289,-8.2851,-8.3164,-8.3711,-8.4023,-8.4023,-8.4023,-8.3906,-8.3594,-8.332,-8.289,-8.2304,-8.2578,-8.2578,-8.2304,-8.2304,-8.2304,-8.2304,-8.2304,-8.2304,0.0,0.0,0.0,0.0,0.0,0.0,-7.558,0.0,-7.7304,-7.7304,-7.7304,-7.7304,-7.7304,-7.7304,-7.6827,-7.5249,-7.4955,-7.4955,-7.4918,-7.4221,-7.3744,-7.3744,-7.2349,-7.1394,-7.1394,-7.066,-7.0183,-7.0183,-7.0731,-7.1257,-7.1798,-7.2357,-7.2887,-7.3486,-7.3514,-7.3514,-7.3514,-7.3514,-7.3937,-7.4707,-7.3937,-7.4437,-7.5976,-7.513,-7.5207,-7.6015,-7.6015,-7.6015,-7.6015,-7.6015,-7.6015,-7.6015,-7.6015,-7.6015,-7.6092,-7.6976,-7.6746,-7.6284,-7.7938,-7.8515,-7.8669,-7.9554,-8.04,-8.1093,-8.1093,-8.1093,-8.1093,-8.1093,-8.1093,-8.1093,-8.1124,-8.1407,-8.1739,-8.1967,-8.2168,-8.2539,-8.3398,-8.3633,-8.3633,-8.3672,-8.4375,-8.5234,-8.6094,-8.625,-8.6211,-8.6211,-8.6211,-8.5898,-8.5,-8.414,-8.3945,-8.4804,-8.414,-8.3984,-8.4844,-8.4922,-8.4922,-8.4922,-8.4922,-8.457,-8.3711,-8.4453,-8.4101,-8.2422,-8.3203,-8.3203,-8.2383,-8.2344,-8.2304,-8.2304,-8.2304,-8.2304,-7.1312,0.0,0.0,0.0,0.0,0.0,-7.558,0.0,-7.7304,-7.7304,-7.7304,-7.7304,-7.7304,-7.7304,-7.7157,-7.6717,-7.6166,-7.5579,-7.4992,-7.4735,-7.4588,-7.4588,-7.367,-7.3046,-7.3046,-7.2312,-7.1835,-7.1835,-7.188,-7.2117,-7.2666,-7.3063,-7.3321,-7.3514,-7.3514,-7.3514,-7.3514,-7.4091,-7.4476,-7.4707,-7.513,-7.5553,-7.5976,-7.5745,-7.5784,-7.6015,-7.6015,-7.6015,-7.6015,-7.6015,-7.6015,-7.6015,-7.6015,-7.6015,-7.6092,-7.6976,-7.713,-7.7169,-7.8861,-7.9438,-7.9592,-8.0477,-8.09,-8.1093,-8.1093,-8.1093,-8.1093,-8.1093,-8.1093,-8.1116,-8.1285,-8.1522,-8.1739,-8.1967,-8.2168,-8.2539,-8.3398,-8.4101,-8.4726,-8.5351,-8.5664,-8.6133,-8.6992,-8.7148,-8.6914,-8.6289,-8.6211,-8.5898,-8.5,-8.4687,-8.4648,-8.4883,-8.4687,-8.4648,-8.4883,-8.5469,-8.5859,-8.5859,-8.5859,-8.5742,-8.5508,-8.5117,-8.4687,-8.4179,-8.4414,-8.4414,-8.4179,-8.289,-8.2304,-8.2304,-8.2304,-8.2304,-7.1312,-7.16,-7.2056,-7.2666,0.0,0.0,-7.5649,-7.6563,-7.7304,-7.7304,-7.7304,-7.7304,-7.7304,-7.7304,-7.7304,-7.7304,-7.6937,-7.646,-7.5983,-7.5616,-7.5395,-7.5395,-7.4698,-7.4184,-7.4184,-7.378,-7.3523,-7.3523,-7.3885,-7.4312,-7.479,-7.4625,-7.4553,-7.4553,-7.4553,-7.4553,-7.4553,-7.5014,-7.5245,-7.5245,-7.5745,-7.6015,-7.6015,-7.6015,-7.6015,-7.6015,-7.6015,-7.6015,-7.6015,-7.6015,-7.6015,-7.6015,-7.6015,-7.6207,-7.663,-7.7476,-7.7784,-7.8054,-7.9746,-8.0092,-7.9939,-8.0823,-8.1093,-8.1093,-8.1093,-8.1093,-8.1093,-8.1093,-8.1093,-8.1176,-8.1458,-8.1618,-8.1753,-8.2059,-8.2219,-8.2539,-8.3398,-8.4297,-8.5156,-8.6015,-8.6484,-8.6914,-8.7422,-8.75,-8.7187,-8.6328,-8.5898,-8.5351,-8.4453,-8.4375,-8.4492,-8.4844,-8.5234,-8.5586,-8.5937,-8.6445,-8.6758,-8.6758,-8.6758,-8.6562,-8.6211,-8.6054,-8.5625,-8.4922,-8.5273,-8.5273,-8.4883,-8.3867,-8.3203,-8.2851,-8.2851,-8.2656,-7.1457,-7.2193,-7.3044,-7.309,-7.446,0.0,-7.5959,-7.6628,-7.7304,-7.7304,-7.7304,-7.7304,-7.7304,-7.7304,-7.7304,-7.7304,-7.7304,-7.7304,-7.7304,-7.668,-7.624,-7.624,-7.5542,-7.5028,-7.5028,-7.4955,-7.4918,-7.5,-7.6132,-7.6994,-7.7408,-7.6707,-7.6245,-7.613,-7.613,-7.6092,-7.6015,-7.6015,-7.6015,-7.6015,-7.6015,-7.6015,-7.6015,-7.6015,-7.6015,-7.6015,-7.6015,-7.6015,-7.6015,-7.6015,-7.6015,-7.6015,-7.6015,-7.6515,-7.74,-7.8207,-7.8554,-7.8861,-8.0516,-8.0592,-8.0092,-8.0862,-8.1093,-8.1093,-8.1093,-8.1093,-8.1093,-8.1093,-8.1093,-8.1196,-8.16,-8.168,-8.1819,-8.2219,-8.2304,-8.2578,-8.3554,-8.4336,-8.5195,-8.6172,-8.6953,-8.75,-8.75,-8.75,-8.7226,-8.6445,-8.5664,-8.4922,-8.414,-8.4023,-8.4336,-8.5117,-8.5898,-8.664,-8.7422,-8.75,-8.75,-8.75,-8.75,-8.7148,-8.6367,-8.7109,-8.6758,-8.5234,-8.5937,-8.5976,-8.5195,-8.5,-8.4453,-8.3594,-8.3711,-8.3281,-7.2498,-7.3252,-7.4158,-7.4976,-7.551,0.0,-7.6793,-7.7181,-7.7304,-7.7304,-7.7304,-7.7304,-7.7304,-7.7304,-7.7304,-7.7304,-7.7304,-7.7304,-7.7304,-7.7194,-7.7084,-7.7084,-7.6387,-7.5873,-7.5873,-7.5285,-7.508,-7.5676,-7.679,-7.7755,-7.8216,-7.8092,-7.7707,-7.7053,-7.7053,-7.6707,-7.6015,-7.6015,-7.6015,-7.6015,-7.6015,-7.6015,-7.6015,-7.6015,-7.6015,-7.6015,-7.6015,-7.6015,-7.6015,-7.6015,-7.6015,-7.6015,-7.6015,-7.6515,-7.74,-7.8207,-7.8938,-7.9708,-8.0746,-8.0977,-8.0862,-8.1054,-8.1093,-8.1093,-8.1093,-8.1093,-8.1093,-8.1093,-8.1093,-8.1196,-8.16,-8.168,-8.1819,-8.2219,-8.2304,-8.2734,-8.4297,-8.4765,-8.5351,-8.6953,-8.7383,-8.75,-8.75,-8.75,-8.7422,-8.7265,-8.7109,-8.6914,-8.6758,-8.6758,-8.6797,-8.6953,-8.7148,-8.7304,-8.75,-8.75,-8.75,-8.75,-8.75,-8.7422,-8.7265,-8.7422,-8.7344,-8.6992,-8.7148,-8.7148,-8.6992,-8.5586,-8.4453,-8.3633,-8.4336,-8.4179,-7.3412,-7.431,-7.512,-7.5649,-7.6197,0.0,0.0,-7.7304,-7.7304,-7.7304,-7.7304,-7.7304,-7.7304,-7.7304,-7.7304,-7.7304,-7.7304,-7.7304,-7.7304,-7.7304,-7.7304,-7.7304,-7.6937,-7.6717,-7.6717,-7.6633,-7.6973,-7.7907,-7.8172,-7.8553,-7.91,-7.8746,-7.8323,-7.79,-7.7515,-7.7092,-7.663,-7.6207,-7.6015,-7.6015,-7.6015,-7.6015,-7.6015,-7.6015,-7.6015,-7.6015,-7.6015,-7.6015,-7.6015,-7.6015,-7.6015,-7.6053,-7.6476,-7.7169,-7.7977,-7.8823,-7.9708,-8.0516,-8.0939,-8.1093,-8.1093,-8.1093,-8.1093,-8.1093,-8.1093,-8.1093,-8.1093,-8.1093,-8.1167,-8.1324,-8.1636,-8.1753,-8.1909,-8.2221,-8.2617,-8.3203,-8.4062,-8.4922,-8.582,-8.6679,-8.7187,-8.75,-8.75,-8.75,-8.75,-8.75,-8.7148,-8.6836,-8.6836,-8.6836,-8.6836,-8.6836,-8.7226,-8.75,-8.75,-8.75,-8.75,-8.75,-8.75,-8.75,-8.75,-8.75,-8.75,-8.75,-8.75,-8.75,-8.75,-8.6601,-8.5742,-8.4922,-8.5351,-8.5078,-7.435,-7.5299,-7.6094,-7.6094,-7.6728,-7.7304,0.0,0.0,0.0,-7.7304,-7.7304,-7.7304,-7.7304,-7.7304,-7.7304,-7.7304,-7.7304,-7.7304,-7.7304,-7.7304,-7.7304,-7.7304,-7.7304,-7.7304,-7.7304,-7.7903,-7.8804,-8.0008,-7.9515,-7.9394,-8.0023,-7.9361,-7.89,-7.8746,-7.813,-7.763,-7.7284,-7.6592,-7.6169,-7.6015,-7.6015,-7.6015,-7.6015,-7.6015,-7.6015,-7.6015,-7.6015,-7.6015,-7.6015,-7.6015,-7.6015,-7.6092,-7.6938,-7.7784,-7.8592,-7.9477,-8.0362,-8.1093,-8.1093,-8.1093,-8.1093,-8.1093,-8.1093,-8.1093,-8.1093,-8.1093,-8.1093,-8.1093,-8.1231,-8.1475,-8.1865,-8.1972,-8.2131,-8.2654,-8.3203,-8.3672,-8.4023,-8.5195,-8.625,-8.6406,-8.7031,-8.75,-8.75,-8.75,-8.75,-8.75,-8.6914,-8.6445,-8.6445,-8.6445,-8.6445,-8.6445,-8.707,-8.75,-8.75,-8.75,-8.75,-8.75,-8.75,-8.7578,-8.7734,-8.789,-8.789,-8.7734,-8.7734,-8.7656,-8.75,-8.7656,-8.7187,-8.6211,-8.6367,-8.5976,-7.54,-7.633,-7.7118,-7.7118,-7.7243,-7.7304,-7.7304,0.0,-7.7304,-7.7304,0.0,-7.7304,-7.7304,0.0,0.0,-7.7304,-7.7304,-7.7304,-7.7304,-7.7304,-7.7304,-7.7304,-7.7304,-7.7304,-7.7304,-7.7903,-7.8804,-8.0008,-8.001,-8.0274,-8.0907,-8.0862,-8.0439,-7.9669,-7.9554,-7.8784,-7.7323,-7.7207,-7.6746,-7.6015,-7.6015,-7.6015,-7.6015,-7.6015,-7.6015,-7.6015,-7.6015,-7.6015,-7.6015,-7.6015,-7.6015,-7.6092,-7.6938,-7.7784,-7.8592,-7.9477,-8.0362,-8.1093,-8.1093,-8.1093,-8.1093,-8.1093,-8.1093,-8.1093,-8.1093,-8.1093,-8.1093,-8.1093,-8.1231,-8.163,-8.2604,-8.244,-8.2443,-8.4178,-8.4101,-8.4023,-8.5586,-8.6054,-8.6445,-8.7187,-8.7422,-8.75,-8.75,-8.75,-8.75,-8.75,-8.7422,-8.7344,-8.7344,-8.7344,-8.7344,-8.7344,-8.7422,-8.75,-8.75,-8.75,-8.75,-8.75,-8.75,-8.7812,-8.8515,-8.9297,-8.9336,-8.8594,-8.8554,-8.8203,-8.75,-8.8203,-8.7734,-8.6211,-8.6992,-8.6875,-7.5697,-7.6653,-7.7304,-7.7304,-7.7304,-7.7304,-7.7304,-7.7304,-7.7304,-7.7304,0.0,0.0,0.0,0.0,0.0,0.0,-7.7304,-7.7304,-7.7304,-7.7304,-7.7304,-7.7304,-7.7304,-7.7592,-7.8341,-7.8653,-7.9335,-8.0608,-8.0677,-8.0783,-8.1093,-8.1093,-8.0939,-8.0554,-8.0054,-7.9477,-7.8746,-7.7784,-7.713,-7.6746,-7.6245,-7.6015,-7.6015,-7.6015,-7.6015,-7.6015,-7.6015,-7.6015,-7.6015,-7.6015,-7.6284,-7.6823,-7.7669,-7.8207,-7.8669,-8.0054,-8.0785,-8.1093,-8.1093,-8.1093,-8.1093,-8.1093,-8.1093,-8.1093,-8.1093,-8.1093,-8.1116,-8.1242,-8.1801,-8.2452,-8.3052,-8.3061,-8.3271,-8.4609,-8.4609,-8.4687,-8.5937,-8.6601,-8.707,-8.7422,-8.75,-8.75,-8.75,-8.75,-8.75,-8.75,-8.75,-8.75,-8.75,-8.75,-8.75,-8.75,-8.75,-8.75,-8.75,-8.75,-8.75,-8.75,-8.7929,-8.8359,-8.8672,-8.9531,-8.9844,-8.9453,-8.9453,-8.9297,-8.8945,-8.9297,-8.9101,-8.8398,-8.8242,-8.7734,-7.569,-7.6533,-7.7047,-7.7268,-7.7304,-7.7304,-7.7304,-7.7304,-7.7304,-7.7304,-7.7304,0.0,0.0,0.0,-7.7304,-7.7304,0.0,-7.7304,-7.7304,-7.7304,-7.7304,-7.7304,-7.7304,-7.7789,-7.9058,-7.9058,-7.9551,-8.0991,-8.0959,-8.0888,-8.1093,-8.1093,-8.1093,-8.1093,-8.0477,-8.0054,-7.9823,-7.8592,-7.7861,-7.763,-7.6746,-7.6361,-7.6361,-7.6092,-7.6015,-7.6015,-7.6015,-7.6015,-7.6015,-7.6245,-7.6746,-7.74,-7.8438,-7.8861,-7.9054,-8.0554,-8.1093,-8.1093,-8.1093,-8.1093,-8.1093,-8.1093,-8.1093,-8.1093,-8.1093,-8.1146,-8.1214,-8.1335,-8.2222,-8.3117,-8.3263,-8.3613,-8.4179,-8.5039,-8.5273,-8.5508,-8.6367,-8.7031,-8.75,-8.75,-8.75,-8.75,-8.75,-8.75,-8.75,-8.75,-8.75,-8.75,-8.75,-8.75,-8.75,-8.75,-8.75,-8.75,-8.75,-8.75,-8.7578,-8.7812,-8.8828,-8.9414,-8.9414,-9.0234,-9.0586,-9.0351,-9.0351,-9.0234,-9.0,-9.0234,-9.0234,-8.9961,-8.9101,-8.8398,-7.5469,-7.613,-7.635,-7.7121,-7.7304,-7.7304,-7.7304,-7.7304,-7.7304,-7.7304,-7.7304,-7.7304,-7.7304,-7.7304,-7.7304,-7.7304,-7.7304,0.0,0.0,-7.7304,-7.7304,-7.7304,-7.7304,-7.7789,-7.9058,-7.8653,-7.9095,-8.0959,-8.0499,-8.0427,-8.1061,-8.1093,-8.1093,-8.1093,-8.1054,-8.0669,-7.9823,-7.9746,-7.9285,-7.8438,-7.763,-7.7246,-7.7207,-7.6361,-7.6015,-7.6015,-7.6015,-7.6015,-7.6053,-7.6899,-7.7284,-7.7438,-7.9131,-7.9746,-7.9862,-8.0785,-8.1093,-8.1093,-8.1093,-8.1093,-8.1093,-8.1093,-8.1093,-8.1093,-8.1093,-8.1242,-8.1407,-8.1407,-8.2287,-8.328,-8.328,-8.4081,-8.5078,-8.5937,-8.6172,-8.6406,-8.7265,-8.7461,-8.75,-8.75,-8.75,-8.75,-8.75,-8.75,-8.75,-8.75,-8.75,-8.75,-8.75,-8.75,-8.75,-8.75,-8.75,-8.75,-8.75,-8.75,-8.7812,-8.8594,-9.0273,-9.1211,-9.1211,-9.2031,-9.2109,-9.1289,-9.125,-9.0859,-9.0,-9.0859,-9.082,-8.9961,-8.9101,-8.8672,-7.4147,-7.5285,-7.6166,-7.646,-7.6937,-7.7304,-7.7304,-7.7304,-7.7304,-7.7304,-7.7304,-7.7304,-7.7304,-7.7304,-7.7304,0.0,0.0,-7.7304,0.0,-7.7304,-7.7304,-7.7304,-7.771,-7.8272,-7.9105,-7.938,-7.97,-8.0184,-8.0581,-8.0625,-8.0285,-8.0785,-8.1093,-8.1093,-8.1093,-8.0977,-8.0669,-8.0092,-7.9669,-7.9323,-7.7938,-7.7284,-7.7284,-7.6399,-7.6015,-7.6015,-7.6015,-7.6322,-7.6861,-7.7169,-7.7938,-7.9015,-7.9592,-8.0169,-8.0708,-8.0977,-8.1093,-8.1093,-8.1093,-8.1093,-8.1093,-8.1093,-8.1093,-8.1116,-8.1258,-8.1349,-8.1458,-8.1695,-8.2513,-8.3334,-8.346,-8.4217,-8.5117,-8.5976,-8.6211,-8.6445,-8.7304,-8.75,-8.75,-8.75,-8.75,-8.75,-8.75,-8.75,-8.75,-8.75,-8.75,-8.7695,-8.8242,-8.8281,-8.8281,-8.8281,-8.8828,-8.8711,-8.7578,-8.8008,-8.8672,-8.9492,-9.0664,-9.1289,-9.1289,-9.2148,-9.2461,-9.2187,-9.2148,-9.2031,-9.1719,-9.2031,-9.1719,-9.0859,-8.9961,-8.9258,-7.2973,-7.4221,-7.5395,-7.5946,-7.6497,-7.6974,-7.7268,-7.7304,-7.7304,-7.7304,-7.7304,-7.7304,-7.7304,-7.7304,-7.7304,0.0,0.0,0.0,0.0,-7.7304,-7.7304,-7.7304,-7.7903,-7.8536,-7.9152,-7.9765,-8.0123,-8.0254,-8.0516,-8.0516,-8.0285,-8.0516,-8.0785,-8.1093,-8.1093,-8.1093,-8.1093,-8.0554,-8.0246,-8.0246,-7.8861,-7.8015,-7.7707,-7.6861,-7.6284,-7.6015,-7.6015,-7.6476,-7.7323,-7.7592,-7.8554,-7.9823,-8.0131,-8.0592,-8.1093,-8.1093,-8.1093,-8.1093,-8.1093,-8.1093,-8.1093,-8.1093,-8.1093,-8.1146,-8.1349,-8.1436,-8.1582,-8.1899,-8.2677,-8.3452,-8.3554,-8.4492,-8.5508,-8.6054,-8.6445,-8.6836,-8.7383,-8.75,-8.75,-8.75,-8.75,-8.75,-8.75,-8.75,-8.75,-8.75,-8.75,-8.7695,-8.8203,-8.8515,-8.8711,-8.8711,-8.9492,-8.957,-8.8476,-8.914,-8.9844,-9.0429,-9.1289,-9.1758,-9.1758,-9.2304,-9.332,-9.4844,-9.3398,-9.3359,-9.4883,-9.3359,-9.2148,-9.1289,-9.039,-8.9531]},{"header":{"parameterUnit":"m.s-1","parameterCategory":1,"la1":30.6,"la2":29.2853,"lo1":-89.7004,"lo2":-87.6739,"dx":0.0162,"dy":0.0183,"nx":112,"ny":82,"refTime":"2023-02-14T06:00:00:Z","depth":0,"parameterNumber":3,"parameterNumberName":"V-component_of_WINDS"},"data":[0.0,0.0,0.0,0.0,0.0,0.0,0.0,0.0,0.0,0.0,0.0,0.0,0.0,0.0,0.0,0.0,0.0,0.0,0.0,0.0,0.0,0.0,0.0,0.0,0.0,0.0,0.0,0.0,0.0,0.0,0.0,0.0,0.0,0.0,0.0,0.0,0.0,0.0,0.0,0.0,0.0,0.0,0.0,0.0,0.0,0.0,0.0,0.0,0.0,0.0,0.0,0.0,0.0,0.0,0.0,0.0,0.0,0.0,0.0,0.0,0.0,0.0,0.0,0.0,0.0,0.0,0.0,0.0,0.0,0.0,0.0,0.0,0.0,0.0,0.0,0.0,0.0,0.0,0.0,0.0,0.0,0.0,0.0,0.0,0.0,0.0,0.0,0.0,0.0,0.0,-1.1753,-0.985,-0.8019,-0.6839,-0.6683,-0.6629,-0.6476,-0.6192,0.0,0.0,0.0,0.0,0.0,0.0,0.0,0.0,0.0,0.0,0.0,0.0,0.0,0.0,0.0,0.0,0.0,0.0,0.0,0.0,0.0,0.0,0.0,0.0,0.0,0.0,0.0,0.0,0.0,0.0,0.0,0.0,0.0,0.0,0.0,0.0,0.0,0.0,0.0,0.0,0.0,0.0,0.0,0.0,0.0,0.0,0.0,0.0,0.0,0.0,0.0,0.0,0.0,0.0,0.0,0.0,0.0,0.0,0.0,0.0,0.0,0.0,0.0,0.0,0.0,0.0,0.0,0.0,0.0,0.0,0.0,0.0,0.0,0.0,0.0,0.0,0.0,0.0,0.0,0.0,0.0,0.0,0.0,0.0,0.0,0.0,0.0,0.0,0.0,0.0,0.0,0.0,0.0,0.0,0.0,0.0,0.0,0.0,0.0,0.0,0.0,0.0,0.0,0.0,-1.1644,-0.984,-0.7902,-0.67,-0.6766,-0.4974,-0.3984,-0.397,0.0,0.0,0.0,0.0,0.0,0.0,0.0,0.0,0.0,0.0,0.0,0.0,0.0,0.0,0.0,0.0,0.0,0.0,0.0,0.0,0.0,0.0,0.0,0.0,0.0,0.0,0.0,0.0,0.0,0.0,0.0,0.0,0.0,0.0,0.0,0.0,0.0,0.0,0.0,0.0,0.0,0.0,0.0,0.0,0.0,0.0,0.0,0.0,0.0,0.0,0.0,0.0,0.0,0.0,0.0,0.0,0.0,0.0,0.0,0.0,0.0,0.0,0.0,0.0,0.0,0.0,0.0,0.0,0.0,0.0,0.0,0.0,0.0,0.0,0.0,0.0,0.0,0.0,0.0,0.0,0.0,0.0,0.0,0.0,0.0,0.0,0.0,0.0,0.0,0.0,0.0,0.0,0.0,0.0,0.0,0.0,0.0,0.0,0.0,0.0,0.0,0.0,0.0,-0.9666,-0.8211,-0.6349,-0.4321,-0.3068,-0.3105,-0.2128,-0.1638,-0.1638,-0.2643,0.0,0.0,0.0,0.0,0.0,0.0,0.0,0.0,0.0,0.0,0.0,0.0,0.0,0.0,0.0,0.0,0.0,0.0,0.0,0.0,0.0,0.0,0.0,0.0,0.0,0.0,0.0,0.0,0.0,0.0,0.0,0.0,0.0,0.0,0.0,0.0,0.0,0.0,0.0,0.0,0.0,0.0,0.0,0.0,0.0,0.0,0.0,0.0,0.0,0.0,0.0,0.0,0.0,0.0,0.0,0.0,0.0,0.0,0.0,0.0,0.0,0.0,0.0,0.0,0.0,0.0,0.0,0.0,0.0,0.0,0.0,0.0,0.0,0.0,0.0,0.0,0.0,0.0,0.0,0.0,0.0,0.0,0.0,0.0,0.0,0.0,0.0,0.0,0.0,0.0,0.0,0.0,0.0,0.0,0.0,0.0,0.0,0.0,0.0,0.0,0.0,0.0,-0.6865,-0.4781,-0.3311,-0.127,0.0,0.0,0.0,0.0,0.0,0.0,0.0,0.0,0.0,0.0,0.0,0.0,0.0,0.0,0.0,0.0,0.0,0.0,0.0,0.0,0.0,0.0,0.0,0.0,0.0,0.0,0.0,0.0,0.0,0.0,0.0,0.0,0.0,0.0,0.0,0.0,0.0,0.0,0.0,0.0,0.0,0.0,0.0,0.0,0.0,0.0,0.0,0.0,0.0,0.0,0.0,0.0,0.0,0.0,0.0,0.0,0.0,0.0,0.0,0.0,0.0,0.0,0.0,0.0,0.0,0.0,0.0,0.0,0.0,0.0,0.0,0.0,0.0,0.0,0.0,0.0,0.0,0.0,0.0,0.0,0.0,0.0,0.0,0.0,0.0,0.0,0.0,0.0,0.0,0.0,0.0,0.0,0.0,0.0,0.0,0.0,0.0,0.0,0.0,0.0,0.0,0.0,0.0,0.0,0.0,0.0,0.0,0.0,-0.5547,-0.304,-0.3081,-0.1248,0.0,0.0,0.0,0.0,0.0,0.0,0.0,0.0,0.0,0.0,0.0,0.0,0.0,0.0,0.0,0.0,0.0,0.0,0.0,0.0,0.0,0.0,0.0,0.0,0.0,0.0,0.0,0.0,0.0,0.0,0.0,0.0,0.0,0.0,0.0,0.0,0.0,0.0,0.0,0.0,0.0,0.0,0.0,0.0,0.0,0.0,0.0,0.0,0.0,0.0,0.0,0.0,0.0,0.0,0.0,0.0,0.0,0.0,0.0,0.0,0.0,0.0,0.0,0.0,0.0,0.0,0.0,0.0,0.0,0.0,0.0,0.0,0.0,0.0,0.0,0.0,0.0,0.0,0.0,0.0,0.0,0.0,0.0,0.0,0.0,0.0,0.0,0.0,0.0,0.0,0.0,0.0,0.0,0.0,0.0,0.0,0.0,0.0,0.0,0.0,0.0,0.0,0.0,0.0,0.0,0.0,0.0,0.0,-0.4588,-0.2408,-0.123,-0.0465,0.0,0.0,0.0,0.0,0.0,0.0,0.0,0.0,0.0,0.0,0.0,0.0,0.0,0.0,0.0,0.0,0.0,0.0,0.0,0.0,0.0,0.0,0.0,0.0,0.0,0.0,0.0,0.0,0.0,0.0,0.0,0.0,0.0,0.0,0.0,0.0,0.0,0.0,0.0,0.0,0.0,0.0,0.0,0.0,0.0,0.0,0.0,0.0,0.0,0.0,0.0,0.0,0.0,0.0,0.0,0.0,0.0,0.0,0.0,0.0,0.0,0.0,0.0,0.0,0.0,0.0,0.0,0.0,0.0,0.0,0.0,0.0,0.0,0.0,0.0,0.0,0.0,0.0,0.0,0.0,0.0,0.0,0.0,0.0,0.0,0.0,0.0,0.0,0.0,0.0,0.0,0.0,0.0,0.0,0.0,0.0,0.0,0.0,0.0,0.0,0.0,0.0,0.0,0.0,0.0,0.0,0.0,-0.5054,-0.3081,-0.1495,-0.0152,0.0,0.0,0.0,0.0,0.0,0.0,0.0,0.0,0.0,0.0,0.0,0.0,0.0,0.0,0.0,0.0,0.0,0.0,0.0,0.0,0.0,0.0,0.0,0.0,0.0,0.0,0.0,0.0,0.0,0.0,0.0,0.0,0.0,0.0,0.0,0.0,0.0,0.0,0.0,0.0,0.0,0.0,0.0,0.0,0.0,0.0,0.0,0.0,0.0,0.0,0.0,0.0,0.0,0.0,0.0,0.0,0.0,0.0,0.0,0.0,0.0,0.0,0.0,0.0,0.0,0.0,0.0,0.0,0.0,0.0,0.0,0.0,0.0,0.0,0.0,0.0,0.0,0.0,0.0,0.0,0.0,0.0,0.0,0.0,0.0,0.0,0.0,0.0,0.0,0.0,0.0,0.0,0.0,0.0,0.0,0.0,0.0,0.0,0.0,0.0,0.0,0.0,0.0,0.0,0.0,0.0,0.0,0.0,-0.3141,-0.1169,0.0,0.0,0.0,0.0,0.0,0.0,0.0,0.0,0.0,0.0,0.0,0.0,0.0,0.0,0.0,0.0,0.0,0.0,0.0,0.0,0.0,0.0,0.0,0.0,0.0,0.0,0.0,0.0,0.0,0.0,0.0,0.0,0.0,0.0,0.0,0.0,0.0,0.0,0.0,0.0,0.0,0.0,0.0,0.0,0.0,0.0,0.0,0.0,0.0,0.0,0.0,0.0,0.0,0.0,0.0,0.0,0.0,0.0,0.0,0.0,0.0,0.0,0.0,0.0,0.0,0.0,0.0,0.0,0.0,0.0,0.0,0.0,0.0,0.0,0.0,0.0,0.0,0.0,0.0,0.0,0.0,0.0,0.0,0.0,0.0,0.0,0.0,0.0,0.0,0.0,0.0,0.0,0.0,0.0,0.0,0.0,0.0,0.0,0.0,0.0,0.0,0.0,0.0,0.0,0.0,0.0,0.0,0.0,0.0,0.0,-0.2959,-0.1154,0.0,0.0,0.0,0.0,0.0,0.0,0.0,0.0,0.0,0.0,0.0,0.0,0.0,0.0,0.0,0.0,0.0,0.0,0.0,0.0,0.0,0.0,0.0,0.0,0.0,0.0,0.0,0.0,0.0,0.0,0.0,0.0,0.0,0.0,0.0,0.0,0.0,0.0,0.0,0.0,0.0,0.0,0.0,0.0,0.0,0.0,0.0,0.0,0.0,0.0,0.0,0.0,0.0,0.0,0.0,0.0,0.0,0.0,0.0,0.0,0.0,0.0,0.0,0.0,0.0,0.0,0.0,0.0,0.0,0.0,0.0,0.0,0.0,0.0,0.0,0.0,0.0,0.0,0.0,0.0,0.0,0.0,0.0,0.0,0.0,0.0,0.0,0.0,0.0,0.0,0.0,0.0,0.0,0.0,0.0,0.0,0.0,0.0,0.0,0.0,0.0,0.0,0.0,0.0,0.0,0.0,0.0,0.0,0.0,0.0,-0.1964,-0.0718,0.0,0.0,0.0,0.0,0.0,0.0,0.0,0.0,0.0,0.0,0.0,0.0,0.0,0.0,0.0,0.0,0.0,0.0,0.0,0.0,0.0,0.0,0.0,0.0,0.0,0.0,0.0,0.0,0.0,0.0,0.0,0.0,0.0,0.0,0.0,0.0,0.0,0.0,0.0,0.0,0.0,0.0,0.0,0.0,0.0,0.0,0.0,0.0,0.0,0.0,0.0,0.0,0.0,0.0,0.0,0.0,0.0,0.0,0.0,0.0,0.0,0.0,0.0,0.0,0.0,0.0,0.0,0.0,0.0,0.0,0.0,0.0,0.0,0.0,0.0,0.0,0.0,0.0,0.0,0.0,0.0,0.0,0.0,0.0,0.0,0.0,0.0,0.0,0.0,0.0,0.0,0.0,0.0,0.0,0.0,0.0,0.0,0.0,0.0,0.0,0.0,0.0,0.0,0.0,0.0,0.0,0.0,0.0,0.0,0.0,-0.0421,0.0,0.0,0.0,0.0,0.0,0.0,0.0,0.0,0.0,0.0,0.0,0.0,0.0,0.0,0.0,0.0,0.0,0.0,0.0,0.0,0.0,0.0,0.0,0.0,0.0,0.0,0.0,0.0,0.0,0.0,0.0,0.0,0.0,0.0,0.0,0.0,0.0,0.0,0.0,0.0,0.0,0.0,0.0,0.0,0.0,0.0,0.0,0.0,0.0,0.0,0.0,0.0,0.0,0.0,0.0,0.0,0.0,0.0,0.0,0.0,0.0,0.0,0.0,0.0,0.0,0.0,0.0,0.0,0.0,-2.5064,-2.5211,0.0,0.0,0.0,0.0,0.0,0.0,0.0,0.0,0.0,0.0,0.0,0.0,0.0,0.0,0.0,0.0,0.0,0.0,0.0,0.0,0.0,0.0,0.0,0.0,0.0,0.0,0.0,0.0,0.0,0.0,0.0,0.0,0.0,0.0,0.0,0.0,0.0,0.0,0.0,0.0,-0.0281,0.0,0.0,0.0,0.0,0.0,0.0,0.0,0.0,0.0,0.0,0.0,0.0,0.0,0.0,0.0,0.0,0.0,0.0,0.0,0.0,0.0,0.0,0.0,0.0,0.0,0.0,0.0,0.0,0.0,0.0,0.0,0.0,0.0,0.0,0.0,0.0,0.0,0.0,0.0,0.0,0.0,0.0,0.0,0.0,0.0,0.0,0.0,0.0,0.0,0.0,0.0,0.0,0.0,0.0,0.0,0.0,0.0,0.0,0.0,0.0,0.0,0.0,0.0,0.0,0.0,0.0,0.0,0.0,0.0,-2.4796,-2.4863,0.0,0.0,0.0,0.0,0.0,0.0,0.0,0.0,0.0,0.0,0.0,0.0,0.0,0.0,0.0,0.0,0.0,0.0,0.0,0.0,0.0,0.0,0.0,0.0,0.0,0.0,0.0,0.0,0.0,0.0,0.0,0.0,0.0,0.0,0.0,0.0,0.0,0.0,0.0,0.0,-0.0281,0.0,0.0,0.0,0.0,0.0,0.0,0.0,0.0,0.0,0.0,0.0,0.0,0.0,0.0,0.0,0.0,0.0,0.0,0.0,0.0,0.0,0.0,0.0,0.0,0.0,0.0,0.0,0.0,0.0,0.0,0.0,0.0,0.0,0.0,0.0,0.0,0.0,0.0,0.0,0.0,0.0,0.0,0.0,0.0,0.0,0.0,0.0,0.0,0.0,0.0,0.0,0.0,0.0,0.0,0.0,0.0,0.0,0.0,0.0,0.0,0.0,0.0,0.0,-2.4409,-2.469,-2.4783,-2.4783,-2.4783,-2.4783,-2.4783,-2.473,-2.4649,-2.4903,0.0,0.0,0.0,0.0,0.0,0.0,0.0,0.0,0.0,0.0,0.0,0.0,0.0,0.0,0.0,0.0,0.0,0.0,0.0,0.0,0.0,0.0,-1.2691,-1.2691,-1.2589,-1.2501,-1.2501,0.0,0.0,0.0,0.0,0.0,0.0,0.0,0.0,0.0,0.0,0.0,-0.014,0.0,0.0,0.0,0.0,0.0,0.0,0.0,0.0,0.0,0.0,0.0,0.0,0.0,0.0,0.0,0.0,0.0,0.0,0.0,0.0,0.0,0.0,0.0,0.0,0.0,0.0,0.0,0.0,0.0,0.0,0.0,0.0,0.0,0.0,0.0,0.0,0.0,0.0,0.0,0.0,0.0,0.0,0.0,-2.6877,-2.4547,0.0,0.0,0.0,0.0,0.0,0.0,0.0,0.0,0.0,0.0,0.0,0.0,0.0,-2.3287,-2.3327,-2.3621,-2.4022,-2.4529,-2.4596,-2.4903,-2.5398,-2.5398,-2.5398,-2.5398,-2.5398,0.0,-2.4636,-2.4676,0.0,0.0,0.0,0.0,0.0,0.0,0.0,0.0,0.0,0.0,0.0,0.0,0.0,0.0,0.0,0.0,0.0,0.0,0.0,0.0,0.0,0.0,-1.2528,-1.2528,-1.2515,-1.2501,-1.2501,-1.2393,-1.225,-1.2121,-1.1952,-1.1121,0.0,0.0,0.0,0.0,0.0,0.0,0.0,0.0,0.0,0.0,0.0,0.0,0.0,0.0,0.0,0.0,0.0,0.0,0.0,0.0,0.0,0.0,0.0,0.0,0.0,0.0,0.0,0.0,0.0,0.0,0.0,0.0,0.0,0.0,0.0,0.0,0.0,0.0,0.0,0.0,0.0,0.0,0.0,0.0,0.0,0.0,0.0,0.0,0.0,-2.8126,-2.6037,-2.4296,-2.3607,-2.322,0.0,0.0,0.0,0.0,0.0,0.0,0.0,0.0,0.0,-2.3126,-2.3581,-2.3821,-2.3821,-2.4275,-2.4636,-2.489,-2.505,-2.5264,-2.5518,-2.5518,-2.5518,-2.5518,-2.5518,-2.5277,-2.489,-2.489,-2.4783,-2.4636,0.0,0.0,0.0,0.0,-2.0003,-1.7326,-1.638,-1.5401,-1.443,-1.3471,0.0,0.0,0.0,0.0,0.0,0.0,0.0,-1.2603,-1.2623,-1.2569,-1.2522,-1.261,-1.2501,-1.2386,-1.2386,-1.2264,-1.2142,-1.2074,-1.1038,-0.954,-0.7308,-0.536,0.0,0.0,0.0,0.0,0.0,0.0,0.0,0.0,0.0,0.0,0.0,0.0,0.0,0.0,0.0,0.0,0.0,0.0,0.0,0.0,0.0,0.0,0.0,0.0,0.0,0.0,0.0,0.0,0.0,0.0,0.0,0.0,0.0,0.0,0.0,0.0,0.0,0.0,0.0,0.0,0.0,0.0,0.0,0.0,0.0,0.0,0.0,-2.7478,-2.5852,-2.435,-2.3714,-2.338,0.0,0.0,0.0,0.0,0.0,0.0,-2.3086,-2.338,-2.3554,-2.3554,-2.4115,-2.4422,-2.4422,-2.493,-2.5224,-2.5304,-2.5518,-2.5665,-2.5732,-2.5732,-2.5732,-2.5732,-2.5732,-2.5531,-2.5184,-2.5104,-2.4903,-2.4636,-2.4636,-2.3116,-2.0841,-2.0841,-1.8409,-1.5055,-1.5055,-1.408,-1.2963,-1.2963,-1.2854,-1.2725,-1.2684,0.0,0.0,0.0,0.0,-1.2528,-1.2644,-1.2562,-1.2474,-1.2589,-1.242,-1.223,-1.223,-1.2142,-1.2047,-1.2013,-1.0269,-0.824,-0.6231,-0.4259,0.0,-0.0283,0.0,0.0,0.0,0.0,0.0,0.0,0.0,0.0,0.0,0.0,0.0,0.0,0.0,0.0,0.0,0.0,0.0,0.0,0.0,0.0,0.0,0.0,0.0,0.0,0.0,0.0,0.0,0.0,0.0,0.0,0.0,0.0,0.0,0.0,0.0,0.0,0.0,0.0,0.0,0.0,0.0,0.0,0.0,0.0,0.0,0.0,0.0,-2.4106,-2.3768,0.0,0.0,0.0,0.0,-2.2859,-2.314,-2.3434,-2.3714,-2.3995,-2.4155,-2.4155,-2.473,-2.5037,-2.5037,-2.5344,-2.5638,-2.5919,-2.5932,-2.6079,-2.6346,-2.6346,-2.6346,-2.6346,-2.6346,-2.6026,-2.5464,-2.5197,-2.4903,-2.4636,-2.4636,-2.2198,-1.8723,-1.8723,-1.6274,-1.2883,-1.2883,-1.2992,-1.2963,-1.2963,-1.2854,-1.2705,-1.2556,-1.2508,0.0,0.0,-1.2501,-1.2501,-1.2508,-1.2406,-1.2305,-1.2311,-1.2189,-1.2074,-1.2074,-1.2067,-1.202,-1.187,-1.0205,-0.8217,-0.6155,0.0,-0.223,-0.0276,0.0,0.0,0.0,0.0,0.0,0.0,0.0,0.0,0.0,0.0,0.0,0.0,0.0,0.0,0.0,0.0,0.0,0.0,0.0,0.0,0.0,0.0,0.0,0.0,0.0,0.0,0.0,0.0,0.0,0.0,0.0,0.0,0.0,0.0,0.0,0.0,0.0,0.0,0.0,0.0,0.0,0.0,0.0,0.0,0.0,0.0,0.0,-2.4864,-2.4609,0.0,-2.4569,-2.4222,-2.4008,-2.4008,-2.4102,-2.4209,-2.4329,-2.4609,-2.477,-2.477,-2.5344,-2.5638,-2.5638,-2.5932,-2.6132,-2.6239,-2.6239,-2.6293,-2.6386,-2.6386,-2.6386,-2.6386,-2.6386,-2.6159,-2.5772,-2.5478,-2.4298,-2.2509,-2.1291,-1.9025,-1.6599,-1.6599,-1.4822,-1.2583,-1.2583,-1.2684,-1.2813,-1.2813,-1.2773,-1.2684,-1.244,-1.2427,-1.2481,-1.2393,-1.2366,-1.2366,-1.2366,-1.2257,-1.2142,-1.2142,-1.2026,-1.1911,-1.1911,-1.0798,-0.9837,-0.9792,-0.8329,-0.6395,-0.4287,-0.2259,-0.0842,-0.0141,0.0,0.0,0.0,0.0,0.0,0.0,0.0,0.0,0.0,0.0,0.0,0.0,0.0,0.0,0.0,0.0,0.0,0.0,0.0,0.0,0.0,0.0,0.0,0.0,0.0,0.0,0.0,0.0,0.0,0.0,0.0,0.0,0.0,0.0,0.0,0.0,0.0,0.0,0.0,0.0,0.0,0.0,0.0,0.0,0.0,-2.7183,-2.6417,-2.5281,-2.5224,-2.5344,-2.5638,-2.5211,-2.497,-2.5077,-2.4983,-2.5024,-2.5211,-2.5411,-2.5518,-2.5518,-2.5999,-2.6199,-2.6106,-2.6293,-2.6386,-2.6386,-2.6386,-2.6386,-2.6386,-2.6386,-2.6386,-2.6386,-2.6386,-2.6226,-2.5932,-2.4842,-2.3352,-2.1569,-2.0113,-1.8421,-1.6447,-1.5693,-1.4176,-1.2494,-1.2447,-1.2494,-1.2576,-1.2522,-1.2508,-1.2467,-1.2271,-1.2277,-1.2332,-1.2237,-1.221,-1.221,-1.221,-1.2101,-1.1986,-1.1986,-1.1423,-1.0723,-1.0723,-0.9195,-0.7535,-0.6925,-0.5771,-0.4461,-0.3141,-0.1272,0.0,0.0,0.0,0.0,0.0,0.0,0.0,0.0,0.0,0.0,0.0,0.0,0.0,0.0,0.0,0.0,0.0,0.0,0.0,0.0,0.0,0.0,0.0,0.0,0.0,0.0,0.0,0.0,0.0,0.0,0.0,0.0,0.0,0.0,0.0,0.0,0.0,0.0,0.0,0.0,0.0,0.0,0.0,0.0,0.0,0.0,-2.6319,-2.6661,-2.6402,-2.559,-2.5558,-2.5692,-2.5985,-2.5745,-2.5692,-2.5972,-2.5732,-2.5812,-2.6386,-2.6413,-2.6413,-2.64,-2.668,-2.668,-2.6386,-2.6386,-2.6386,-2.6386,-2.6386,-2.6386,-2.6386,-2.6386,-2.6386,-2.6386,-2.6386,-2.6226,-2.5777,-2.3426,-2.2366,-2.1954,-2.1545,-2.023,-1.827,-1.6142,-1.4176,-1.2481,-1.2338,-1.2291,-1.2264,-1.2108,-1.206,-1.206,-1.2054,-1.206,-1.206,-1.2054,-1.2054,-1.2054,-1.2054,-1.1938,-1.1823,-1.1823,-1.0245,-0.8703,-0.8703,-0.711,-0.521,-0.3288,-0.2852,-0.2851,-0.2849,-0.1272,0.0,0.0,0.0,0.0,0.0,0.0,0.0,0.0,0.0,0.0,0.0,0.0,0.0,0.0,0.0,0.0,0.0,0.0,0.0,0.0,0.0,0.0,0.0,0.0,0.0,0.0,0.0,0.0,0.0,0.0,0.0,0.0,0.0,0.0,0.0,0.0,0.0,0.0,0.0,0.0,0.0,0.0,0.0,0.0,-2.7862,-2.6602,-2.6691,-2.6253,-2.606,-2.636,-2.6653,-2.6894,-2.7188,-2.6947,-2.6814,-2.6894,-2.6827,-2.6854,-2.7014,-2.7028,-2.6921,-2.6707,-2.6774,-2.668,-2.6386,-2.6386,-2.6386,-2.6386,-2.6386,-2.6386,-2.6386,-2.6386,-2.6386,-2.6386,-2.6386,-2.6226,-2.5777,-2.3426,-2.2366,-2.165,-1.8501,-1.6904,-1.6151,-1.4022,-1.2958,-1.2481,-1.2338,-1.2291,-1.2264,-1.2108,-1.206,-1.204,-1.1932,-1.1972,-1.204,-1.1925,-1.1898,-1.1898,-1.1898,-1.1789,-1.1681,-1.1681,-1.0179,-0.8703,-0.8703,-0.6094,-0.3486,-0.304,-0.1724,-0.0855,-0.0847,-0.0283,0.0,0.0,0.0,0.0,0.0,0.0,0.0,0.0,0.0,0.0,0.0,0.0,0.0,0.0,0.0,0.0,0.0,0.0,0.0,0.0,0.0,0.0,0.0,0.0,0.0,0.0,0.0,0.0,0.0,0.0,0.0,0.0,0.0,0.0,0.0,0.0,0.0,0.0,0.0,0.0,0.0,0.0,0.0,0.0,-2.6944,-2.6296,-2.6673,-2.6224,-2.6199,-2.7081,-2.7348,-2.7562,-2.7856,-2.7736,-2.7629,-2.7629,-2.7522,-2.7495,-2.7629,-2.7522,-2.7375,-2.7188,-2.7188,-2.6987,-2.6573,-2.6573,-2.6507,-2.6386,-2.6386,-2.6386,-2.6386,-2.6386,-2.6386,-2.6386,-2.6266,-2.6186,-2.6092,-2.429,-2.3108,-2.1789,0.0,0.0,0.0,0.0,-1.2501,-1.2481,-1.2338,-1.225,-1.2169,-1.2013,-1.1925,-1.1857,-1.1769,-1.1803,-1.1857,-1.1769,-1.1742,-1.1742,-1.1742,-1.1681,-1.1325,-1.0593,-0.8853,-0.7255,-0.6383,-0.3923,-0.1744,-0.1735,-0.0722,0.0,0.0,0.0,0.0,0.0,0.0,0.0,0.0,0.0,0.0,0.0,0.0,0.0,0.0,0.0,0.0,0.0,0.0,0.0,0.0,0.0,0.0,0.0,0.0,0.0,0.0,0.0,0.0,0.0,0.0,0.0,0.0,0.0,0.0,0.0,0.0,0.0,0.0,0.0,0.0,0.0,0.0,0.0,0.0,0.0,0.0,0.0,-2.601,-2.5665,-2.676,-2.672,-2.6881,-2.7655,-2.7749,-2.7856,-2.8123,-2.8136,-2.8136,-2.8136,-2.7896,-2.7869,-2.8123,-2.7896,0.0,0.0,0.0,-2.7415,-2.6827,-2.6827,-2.668,-2.6386,-2.6386,-2.6386,-2.6386,-2.6386,-2.6386,-2.6373,-2.6119,-2.6132,-2.6279,-2.5338,-2.3579,-2.1333,-1.7204,-1.5387,-1.4935,-1.3112,-1.2501,-1.2481,-1.2318,0.0,0.0,-1.1864,-1.1721,-1.1619,-1.1619,-1.1619,-1.1619,-1.1619,-1.1619,-1.1619,-1.1619,-1.1619,-1.1181,-0.9141,-0.7255,-0.5229,-0.3342,-0.1311,0.0,0.0,0.0,0.0,0.0,0.0,0.0,0.0,0.0,0.0,0.0,0.0,0.0,0.0,0.0,0.0,0.0,0.0,0.0,0.0,0.0,0.0,0.0,0.0,0.0,0.0,0.0,0.0,0.0,0.0,0.0,0.0,0.0,0.0,0.0,0.0,0.0,0.0,0.0,0.0,0.0,0.0,0.0,0.0,0.0,0.0,0.0,0.0,0.0,-2.7881,-2.7158,-2.6734,-2.7428,-2.7682,-2.7869,-2.803,-2.8056,-2.8083,-2.8136,-2.8136,-2.8136,-2.8136,-2.8096,-2.8083,-2.8136,-2.8083,-2.7949,-2.7709,-2.7696,-2.7415,-2.6827,-2.6827,-2.668,-2.6386,-2.6386,0.0,-2.6386,-2.6386,-2.6386,-2.6386,-2.6333,-2.6199,-2.5869,-2.409,-2.0968,-1.7089,-1.5932,-1.4475,-1.2958,-1.2656,-1.2501,-1.2461,-1.2196,-1.2088,-1.202,-1.1748,-1.164,-1.1619,-1.1619,-1.1619,0.0,-1.1619,-1.1619,-1.1619,-1.1619,-1.1619,-1.1181,-0.9141,-0.7255,-0.5229,-0.3342,-0.1311,0.0,0.0,0.0,0.0,0.0,0.0,0.0,0.0,0.0,0.0,0.0,0.0,0.0,0.0,0.0,0.0,0.0,0.0,0.0,0.0,0.0,0.0,0.0,0.0,0.0,0.0,0.0,0.0,0.0,0.0,0.0,0.0,0.0,0.0,0.0,0.0,0.0,0.0,0.0,0.0,0.0,0.0,0.0,0.0,0.0,-2.7797,-2.7379,0.0,-2.7466,-2.7537,-2.7291,-2.7255,-2.7843,-2.8043,-2.8136,-2.8136,-2.8136,-2.8136,-2.8136,-2.8136,-2.8136,-2.8136,-2.8136,-2.8136,-2.8136,-2.8136,-2.807,-2.7923,-2.7923,-2.7709,-2.7268,-2.7121,-2.6894,-2.66,-2.6453,-2.6386,-2.6386,-2.6386,-2.6386,-2.6386,-2.6239,-2.6172,-2.5989,-2.3622,-2.0602,-1.7334,-1.6068,-1.433,-1.2501,-1.2501,-1.2501,-1.2481,-1.2332,-1.2182,-1.2047,-1.1979,-1.1803,-1.1633,-1.1701,-1.1674,-1.1619,-1.1619,-1.1619,-1.1619,-1.1619,-1.1674,-1.097,-0.7991,-0.6597,-0.5025,-0.206,-0.0736,0.0,0.0,0.0,0.0,0.0,0.0,0.0,0.0,0.0,0.0,0.0,0.0,0.0,0.0,0.0,0.0,0.0,0.0,0.0,0.0,0.0,0.0,0.0,0.0,0.0,0.0,0.0,0.0,0.0,0.0,0.0,0.0,0.0,0.0,0.0,0.0,0.0,0.0,0.0,0.0,0.0,0.0,-2.8815,-2.8793,-2.8223,-2.7555,-2.6676,-2.7256,-2.7691,-2.6934,-2.7201,-2.7602,-2.8083,-2.8136,-2.8136,-2.8136,-2.8136,-2.8136,-2.8136,-2.8136,-2.8136,-2.8136,-2.8136,-2.8136,-2.8136,-2.8136,-2.8136,-2.8136,-2.8136,-2.8003,-2.7696,-2.7468,-2.7201,-2.6907,-2.6667,-2.656,-2.656,-2.656,-2.6533,-2.6453,-2.6159,-2.6016,-2.5542,-2.3478,-2.0957,-1.8242,-1.6379,-1.4454,-1.2583,-1.2522,-1.2501,-1.2501,-1.2467,-1.2305,-1.2121,-1.2216,-1.1999,-1.1721,-1.1803,-1.1748,-1.166,-1.166,-1.164,-1.1633,-1.1687,-1.1769,-1.0773,-0.6739,-0.5931,-0.4945,-0.0894,0.0,0.0,0.0,0.0,0.0,0.0,0.0,0.0,0.0,0.0,0.0,0.0,0.0,0.0,0.0,0.0,0.0,0.0,0.0,0.0,0.0,0.0,0.0,0.0,0.0,0.0,0.0,0.0,0.0,0.0,0.0,0.0,0.0,0.0,0.0,-3.8767,-3.5869,-3.3131,-3.182,-3.1445,-3.0781,0.0,-2.826,-2.7733,-2.5413,-2.518,-2.565,-2.5945,-2.6567,-2.6948,-2.7161,-2.7682,-2.807,-2.8136,-2.8136,-2.8136,-2.8136,-2.8136,-2.8136,-2.8136,-2.8136,-2.8136,-2.8136,-2.8136,-2.8136,-2.8136,-2.8136,-2.8136,-2.8136,-2.8136,-2.8003,-2.7696,-2.7669,-2.7509,-2.7215,-2.7188,-2.7161,-2.7161,-2.7161,-2.7028,-2.676,-2.6466,-2.5225,-2.346,-2.3081,-2.0495,-1.6638,-1.6461,-1.4929,-1.2874,-1.2603,-1.2501,-1.2481,-1.2359,-1.2291,-1.2244,-1.2128,-1.2054,-1.1986,-1.187,-1.1823,-1.1809,-1.1809,-1.1714,-1.1681,-1.1945,-1.1925,-1.0822,-0.6884,-0.5965,-0.4892,-0.0892,0.0,0.0,0.0,0.0,0.0,0.0,0.0,0.0,0.0,0.0,0.0,0.0,0.0,0.0,0.0,0.0,0.0,0.0,0.0,0.0,0.0,0.0,0.0,0.0,0.0,0.0,0.0,0.0,0.0,0.0,0.0,0.0,0.0,0.0,0.0,-3.8166,-3.4848,-3.2193,-3.2211,-3.2441,-3.2459,-3.1838,-3.0476,-2.9147,-2.8427,-2.705,-2.6026,-2.6613,-2.7054,-2.7428,-2.7736,-2.7976,-2.8136,-2.8136,-2.8136,-2.8136,-2.8136,-2.8136,-2.8136,-2.8136,-2.8136,-2.8136,-2.8136,-2.8136,-2.8136,-2.8136,-2.8136,-2.8136,-2.8136,-2.8136,-2.8083,-2.7963,-2.7789,-2.7642,-2.7509,-2.7348,-2.7268,-2.7268,-2.7268,-2.7201,-2.7054,-2.5282,-2.4037,-2.334,-2.1585,-1.9174,-1.6377,-1.6258,-1.4906,-1.2935,-1.2712,-1.2637,-1.2617,-1.2467,-1.2359,-1.2291,-1.2311,-1.2203,-1.2067,-1.2088,-1.2033,-1.1945,-1.1857,-1.1789,-1.1748,-1.1796,-1.1884,-1.0909,-0.6861,-0.6043,-0.5035,-0.0912,0.0,0.0,0.0,0.0,0.0,0.0,0.0,0.0,0.0,0.0,0.0,0.0,0.0,0.0,0.0,0.0,0.0,0.0,0.0,0.0,0.0,0.0,0.0,0.0,0.0,0.0,0.0,0.0,0.0,0.0,0.0,0.0,0.0,0.0,0.0,-3.6949,-3.3976,-3.1953,-3.3047,-3.3555,-3.3895,-3.4317,-3.2923,-3.1259,-3.0953,-2.9079,-2.7685,-2.7579,-2.7682,-2.7896,-2.811,-2.8217,-2.8243,-2.815,-2.8217,-2.8243,-2.815,-2.807,-2.8056,-2.8136,-2.8136,-2.8136,-2.8136,-2.8136,-2.8136,-2.8136,-2.8136,-2.8136,-2.8136,-2.8136,-2.8136,-2.8136,-2.7923,-2.7816,-2.7816,-2.7602,-2.7509,-2.7509,-2.7415,-2.7388,-2.7348,-2.52,-2.3584,-2.2515,-2.0523,-1.8105,-1.548,-1.5345,-1.4348,-1.3064,-1.2908,-1.2827,-1.2773,-1.2617,-1.2494,-1.242,-1.2481,-1.2359,-1.2196,-1.2271,-1.221,-1.2101,-1.1986,-1.1925,-1.1891,-1.187,-1.1993,-1.1045,-0.6923,-0.6121,-0.5125,-0.0926,0.0,0.0,0.0,0.0,0.0,0.0,0.0,0.0,0.0,0.0,0.0,0.0,0.0,0.0,0.0,0.0,0.0,0.0,0.0,0.0,0.0,0.0,0.0,0.0,0.0,0.0,0.0,0.0,0.0,0.0,0.0,0.0,0.0,0.0,0.0,0.0,0.0,-3.2559,-3.4219,-3.4648,-3.445,-3.4,-3.4306,-3.39,-3.0685,-3.042,-3.0334,-2.8547,-2.8123,-2.8136,-2.8136,-2.839,-2.8484,-2.819,-2.8404,-2.8484,-2.8177,-2.7883,-2.7829,-2.811,-2.8136,-2.8136,-2.8136,-2.8136,-2.8136,-2.8136,-2.8136,-2.8136,-2.8136,-2.8136,-2.8136,-2.8136,-2.8136,-2.8123,-2.8123,-2.8123,-2.8123,-2.811,-2.7816,-2.7682,-2.7669,-2.7362,-2.4583,-2.0395,-2.0385,-1.7634,-1.3556,-1.3556,-1.339,-1.337,-1.3214,-1.3071,-1.2935,-1.2779,-1.2718,-1.2691,-1.2549,-1.2494,-1.2461,-1.2332,-1.2284,-1.2284,-1.2277,-1.2169,-1.2121,-1.24,-1.2379,-1.1237,-0.7317,-0.6351,-0.5072,-0.0924,0.0,0.0,0.0,0.0,0.0,0.0,0.0,0.0,0.0,0.0,0.0,0.0,0.0,0.0,0.0,0.0,0.0,0.0,0.0,0.0,0.0,0.0,0.0,0.0,0.0,0.0,0.0,0.0,0.0,0.0,0.0,0.0,0.0,0.0,0.0,0.0,0.0,-3.3769,-3.5215,-3.6211,-3.6872,-3.7,-3.6664,-3.6118,-3.4967,-3.3405,-3.1874,-3.1364,-2.9968,-2.9015,-2.9015,-2.8662,-2.827,-2.8163,-2.823,-2.8257,-2.815,-2.8056,-2.803,-2.8136,-2.7963,-2.7936,-2.8123,-2.8136,-2.8136,-2.8136,-2.8136,-2.8136,-2.8136,-2.8136,-2.8136,-2.8136,-2.8136,-2.8136,-2.8136,-2.8136,-2.8136,-2.8136,-2.7829,-2.7696,-2.7503,-2.4175,-2.1785,-2.0056,-1.6965,-1.4758,-1.3403,-1.3403,-1.3403,-1.3397,-1.3342,-1.3295,-1.3207,-1.2854,-1.2664,-1.2569,-1.2522,-1.2501,-1.2494,-1.2447,-1.2433,-1.2413,-1.2318,-1.225,-1.221,-1.221,-1.225,-1.1219,-0.7099,-0.62,-0.5131,-0.0936,0.0,0.0,0.0,0.0,0.0,0.0,0.0,0.0,0.0,0.0,0.0,0.0,0.0,0.0,0.0,0.0,0.0,0.0,0.0,0.0,0.0,0.0,0.0,0.0,0.0,0.0,0.0,0.0,0.0,0.0,0.0,0.0,0.0,0.0,0.0,0.0,-3.5051,-3.5117,-3.6562,-3.7656,-3.8496,-3.8945,-3.8709,-3.8235,-3.7294,-3.533,-3.3617,-3.2715,-3.0748,-2.913,-2.913,-2.827,-2.7709,-2.7816,-2.7923,-2.803,-2.8136,-2.8043,-2.803,-2.8136,-2.7869,-2.7816,-2.8123,-2.8136,-2.8136,-2.8136,-2.8136,-2.8136,-2.8136,-2.8136,-2.8136,-2.8136,-2.8136,-2.8136,-2.8136,-2.8136,-2.8136,-2.8136,-2.7949,-2.7802,-2.7503,-2.3442,-2.121,-2.0056,-1.6311,-1.4268,-1.3403,-1.3403,-1.3403,-1.3403,-1.3403,-1.3363,-1.3275,-1.299,-1.2827,-1.2732,-1.2684,-1.263,-1.2583,-1.2583,-1.2549,-1.2481,-1.2393,-1.2366,-1.2345,-1.2244,-1.2291,-1.1281,-0.7107,-0.622,-0.5162,-0.0942,0.0,0.0,0.0,0.0,0.0,0.0,0.0,0.0,0.0,0.0,0.0,0.0,0.0,0.0,0.0,0.0,0.0,0.0,0.0,0.0,0.0,0.0,0.0,0.0,0.0,0.0,0.0,0.0,0.0,0.0,0.0,0.0,0.0,0.0,0.0,-3.5032,-3.543,-3.6504,-3.8164,-3.8926,-3.9394,-3.9824,-4.0234,-3.9759,-3.7257,-3.6345,-3.5308,0.0,0.0,-2.8818,-2.8818,-2.7717,-2.6987,-2.7268,-2.7562,-2.7843,-2.811,-2.7909,-2.7856,-2.8123,-2.7883,-2.7843,-2.8123,-2.8136,-2.8136,-2.8136,-2.8136,-2.8136,-2.8136,-2.8136,-2.8136,-2.8136,-2.8136,-2.8136,-2.8136,-2.8136,-2.8136,-2.8136,-2.8136,-2.7976,-2.7363,-2.5298,-2.2644,-1.9901,-1.774,-1.5498,-1.3403,-1.3403,-1.3403,-1.3403,-1.3403,-1.3308,-1.3186,-1.3186,-1.3166,-1.3125,-1.3003,-1.2854,-1.2718,-1.2725,-1.263,-1.2515,-1.2515,-1.2515,-1.2515,-1.2515,-1.2508,-1.1405,-0.7345,-0.6254,-0.5162,-0.0942,0.0,0.0,0.0,0.0,0.0,0.0,0.0,0.0,0.0,0.0,0.0,0.0,0.0,0.0,0.0,0.0,0.0,0.0,0.0,0.0,0.0,0.0,0.0,0.0,0.0,0.0,0.0,0.0,0.0,0.0,0.0,0.0,0.0,0.0,0.0,-3.583,-3.6543,-3.7617,-3.8379,-3.9394,-4.0215,-4.0332,-4.0449,-4.0141,-3.8744,-3.7766,-3.6523,-3.5219,-3.2638,-3.0743,-3.0743,-2.9022,-2.7829,-2.7909,-2.8177,-2.8323,-2.8163,-2.8283,-2.831,-2.8163,-2.807,-2.8056,-2.8136,-2.8136,-2.8136,-2.8136,-2.8136,-2.8136,-2.8136,-2.8136,-2.8136,-2.8136,-2.8136,-2.8136,-2.8136,-2.8136,-2.8136,-2.8136,-2.8136,-2.7123,-2.4963,-2.2743,-2.0159,-1.7583,-1.5308,-1.3922,-1.3403,-1.3403,-1.3403,-1.3403,-1.3403,-1.3376,-1.3342,-1.3342,-1.3125,-1.2854,-1.2935,-1.2779,-1.2583,-1.2698,-1.2705,-1.2671,-1.2671,-1.2671,-1.2671,-1.2671,-1.2589,-1.1405,-0.7345,-0.6254,-0.5162,-0.0942,0.0,0.0,0.0,0.0,0.0,0.0,0.0,0.0,0.0,0.0,0.0,0.0,0.0,0.0,0.0,0.0,0.0,0.0,0.0,0.0,0.0,0.0,0.0,0.0,0.0,0.0,0.0,0.0,0.0,0.0,0.0,0.0,0.0,0.0,0.0,-3.6838,-3.7656,-3.8633,-3.9277,-4.0117,-4.0703,-4.0332,-4.0254,-3.9941,-3.8867,-3.7773,-3.6816,-3.6152,-3.3269,-3.1023,0.0,0.0,0.0,-2.7722,-2.8016,-2.8243,-2.8337,-2.8497,-2.8591,-2.8537,-2.8297,-2.8203,-2.8337,-2.8217,-2.8136,-2.8136,-2.8136,-2.8136,-2.8136,-2.8136,-2.8136,-2.8136,-2.8136,-2.8136,-2.8136,-2.8136,-2.8136,-2.8136,-2.7096,-2.5748,-2.3943,-2.0665,-1.8325,-1.6877,-1.4311,-1.3444,-1.3492,-1.3424,-1.3403,-1.3403,-1.3403,-1.3403,-1.3403,-1.3403,-1.3193,-1.2949,-1.3105,-1.299,-1.2813,-1.2901,-1.2881,-1.2834,-1.2834,-1.2786,-1.2745,-1.2813,-1.2718,-1.151,-0.7453,-0.6353,-0.5243,-0.0956,0.0,0.0,0.0,0.0,0.0,0.0,0.0,0.0,0.0,0.0,0.0,0.0,0.0,0.0,0.0,0.0,0.0,0.0,0.0,0.0,0.0,0.0,0.0,0.0,0.0,0.0,0.0,0.0,0.0,0.0,0.0,0.0,0.0,0.0,0.0,-3.7695,-3.8672,-3.957,-4.0332,-4.0801,-4.0879,-4.0078,-3.9805,-3.9355,-3.8027,0.0,-3.6523,-3.6035,-3.3214,-3.097,-3.0778,0.0,-2.7027,-2.7295,-2.7629,-2.8016,-2.8551,-2.8604,-2.8711,-2.8951,-2.847,-2.827,-2.8577,-2.8323,-2.8136,-2.8136,-2.8136,-2.8136,-2.8136,-2.8136,-2.8136,-2.8136,-2.8136,-2.8136,-2.8136,-2.8136,-2.7968,-2.7617,-2.5556,-2.4221,-2.3146,-1.9015,-1.7078,-1.6552,-1.4405,-1.3526,-1.3614,-1.3485,-1.3417,-1.3403,-1.3403,-1.3403,-1.3403,-1.3403,-1.3315,-1.3227,-1.3356,-1.3288,-1.3146,-1.3166,-1.3085,-1.299,-1.299,-1.2895,-1.282,-1.2956,-1.2874,-1.1671,-0.7424,-0.6475,-0.5344,-0.0976,0.0,0.0,0.0,0.0,0.0,0.0,0.0,0.0,0.0,0.0,0.0,0.0,0.0,0.0,0.0,0.0,0.0,0.0,0.0,0.0,0.0,0.0,0.0,0.0,0.0,0.0,0.0,0.0,0.0,0.0,0.0,0.0,0.0,0.0,0.0,-3.8301,-3.9355,-4.0332,-4.0488,-4.0586,-4.0508,-4.0019,-3.9336,0.0,0.0,-3.6777,-3.6426,-3.5644,-3.439,-3.3127,-3.1975,-3.056,-2.9058,-2.823,-2.8257,-2.8484,0.0,-2.8604,-2.8631,-2.8671,-2.835,-2.827,-2.8577,-2.8323,-2.8136,-2.8136,-2.8136,-2.8136,-2.8136,-2.8136,-2.8136,-2.8136,-2.8136,-2.8136,-2.8136,-2.8136,-2.7109,-2.5203,-2.4861,-2.2589,-1.8912,-1.7863,-1.6419,-1.4534,-1.4009,-1.3709,-1.3627,-1.36,-1.3512,-1.3403,-1.3403,-1.3403,-1.3403,-1.3403,-1.3383,-1.3363,-1.339,-1.322,-1.3017,-1.3139,-1.3152,-1.3139,-1.3139,-1.3119,-1.3105,-1.3125,-1.303,-1.1789,-0.7601,-0.6475,-0.5344,-0.0976,0.0,0.0,0.0,0.0,0.0,0.0,0.0,0.0,0.0,0.0,0.0,0.0,0.0,0.0,0.0,0.0,0.0,0.0,0.0,0.0,0.0,0.0,0.0,0.0,0.0,0.0,0.0,0.0,0.0,0.0,0.0,0.0,0.0,0.0,0.0,-3.9355,-4.0039,-4.0586,-4.0801,-4.0684,-4.0293,-3.9414,0.0,0.0,0.0,-3.6855,-3.6875,-3.6465,-3.547,0.0,-3.3799,-3.1699,-3.0115,-2.9627,-2.8974,-2.8671,-2.8818,-2.8965,-2.9058,-2.9058,-2.8644,-2.8444,-2.8591,-2.8323,-2.8217,-2.8377,-2.823,-2.8136,-2.8136,-2.8136,-2.8136,-2.8136,-2.8136,-2.8136,-2.8136,-2.8136,-2.6927,-2.4691,-2.347,-2.1048,-1.7746,-1.6372,-1.5148,-1.417,-1.3939,-1.3797,-1.3729,-1.3654,-1.3539,-1.3403,-1.3403,-1.3403,-1.3403,-1.3403,-1.3403,-1.3403,-1.3403,-1.3308,-1.32,-1.3268,-1.3295,-1.3295,-1.3295,-1.3234,-1.3193,-1.3268,-1.318,-1.2268,-0.9048,-0.6595,-0.3962,-0.0662,0.0,0.0,0.0,0.0,0.0,0.0,0.0,0.0,0.0,0.0,0.0,0.0,0.0,0.0,0.0,0.0,0.0,0.0,0.0,0.0,0.0,0.0,0.0,0.0,0.0,0.0,0.0,0.0,0.0,0.0,0.0,0.0,0.0,0.0,0.0,-4.0117,-4.0527,-4.0742,-4.1094,-4.0781,-4.0098,-3.8965,-3.8574,0.0,0.0,-3.707,-3.7305,-3.7305,0.0,-3.5612,0.0,-3.2797,-3.0695,-3.0854,-2.9425,-2.8564,0.0,-2.9192,0.0,-2.9379,-2.8911,-2.8604,-2.8604,-2.8377,-2.8323,-2.8497,-2.827,-2.8136,-2.8136,-2.8136,-2.8136,-2.8136,-2.8136,-2.8136,-2.8136,-2.763,-2.6236,-2.3824,-2.1566,-1.915,-1.6888,-1.5031,-1.419,-1.4278,-1.4041,-1.3899,-1.3831,-1.3715,-1.3559,-1.3403,-1.3403,-1.3403,-1.3403,-1.3403,-1.3403,-1.3403,-1.3403,-1.3403,-1.3403,-1.3403,-1.3403,-1.3403,-1.3403,-1.3315,-1.3247,-1.337,-1.3308,-1.2585,-1.0024,-0.6202,-0.2687,-0.0505,0.0,0.0,0.0,0.0,0.0,0.0,0.0,0.0,0.0,0.0,0.0,0.0,0.0,0.0,0.0,0.0,0.0,0.0,0.0,0.0,0.0,0.0,0.0,0.0,0.0,0.0,0.0,0.0,0.0,0.0,0.0,0.0,0.0,0.0,0.0,-3.9922,-4.0527,-4.1133,-4.1172,-4.0566,-3.9805,-3.9258,0.0,0.0,-3.7344,-3.7266,-3.7305,-3.7305,-3.7222,-3.6761,-3.5537,0.0,-3.1884,-3.0956,-2.9033,-2.8096,-2.8938,0.0,0.0,-2.9058,-2.8791,-2.8604,-2.8604,-2.8577,-2.8457,-2.8203,-2.8163,-2.8136,-2.8136,-2.8136,-2.8136,-2.8136,-2.8136,-2.8136,-2.8136,-2.6066,-2.3824,-2.1394,-1.9141,-1.6896,-1.4646,-1.4462,-1.4285,-1.4299,-1.4272,-1.4095,-1.3838,-1.3824,-1.3648,-1.3403,-1.3403,-1.3403,-1.3403,-1.3403,-1.3403,-1.3403,-1.3403,-1.3403,-1.3403,-1.3403,-1.3403,-1.3403,-1.3403,-1.339,-1.3383,-1.3397,-1.339,-1.2376,-0.8036,-0.503,-0.2687,-0.0505,0.0,0.0,0.0,0.0,0.0,0.0,0.0,0.0,0.0,0.0,0.0,0.0,0.0,0.0,0.0,0.0,0.0,0.0,0.0,0.0,0.0,0.0,0.0,0.0,0.0,0.0,0.0,0.0,0.0,0.0,0.0,0.0,0.0,0.0,0.0,-4.0195,-4.0703,-4.1172,-4.1172,-4.0723,-4.0156,-3.9726,0.0,-3.8984,-3.8535,-3.8672,-3.8867,-3.8867,-3.8633,-3.8243,-3.7667,0.0,0.0,-3.4004,-3.1281,-2.9542,-3.0482,-2.933,-2.8724,-2.9005,-2.8778,-2.8524,-2.8337,-2.8323,-2.827,-2.815,-2.8136,-2.8136,-2.8136,-2.8136,-2.8136,-2.8136,-2.8136,-2.8136,-2.8136,-2.5896,-2.347,-2.1048,-1.8802,-1.6553,-1.4299,-1.4299,-1.4299,-1.4299,-1.4299,-1.417,-1.398,-1.398,-1.3851,-1.3661,-1.3661,-1.3661,-1.3661,-1.3661,-1.3607,-1.3539,-1.3539,-1.3539,-1.3519,-1.3431,-1.3403,-1.3403,-1.3403,-1.3403,-1.3403,-1.3403,-1.3403,-1.2222,-0.7702,-0.6065,-0.4405,-0.085,0.0,0.0,0.0,0.0,0.0,0.0,0.0,0.0,0.0,0.0,0.0,0.0,0.0,0.0,0.0,0.0,0.0,0.0,0.0,0.0,0.0,0.0,0.0,0.0,0.0,0.0,0.0,0.0,0.0,0.0,0.0,0.0,0.0,0.0,0.0,-4.0254,-4.0742,-4.1172,-4.1172,-4.084,-4.0449,0.0,0.0,-3.9805,-3.9473,-3.9668,-3.9902,-3.9902,-3.9512,-3.9199,0.0,0.0,-3.5659,-3.5923,-3.2625,-3.0453,-3.1331,0.0,-2.8457,-2.8751,-2.8591,-2.8377,-2.8163,-2.8136,-2.8136,-2.8136,-2.8136,-2.8136,-2.8136,-2.8136,-2.8136,-2.8136,-2.8136,-2.8136,-2.8136,-2.5203,-2.2783,-2.1048,-1.8113,-1.5858,-1.4299,-1.4299,-1.4272,-1.4238,-1.4278,-1.4183,-1.4007,-1.4055,-1.398,-1.3838,-1.3838,-1.3838,-1.3838,-1.379,-1.3709,-1.362,-1.3573,-1.3559,-1.3539,-1.3437,-1.3431,-1.3458,-1.341,-1.3403,-1.3403,-1.3403,-1.3403,-1.2235,-0.7737,-0.6775,-0.5461,-0.103,0.0,0.0,0.0,0.0,0.0,0.0,0.0,0.0,0.0,0.0,0.0,0.0,0.0,0.0,0.0,0.0,0.0,0.0,0.0,0.0,0.0,0.0,0.0,0.0,0.0,0.0,0.0,0.0,0.0,0.0,0.0,0.0,0.0,0.0,0.0,-3.9902,-4.0527,-4.1172,-4.1172,-4.084,-4.0527,0.0,0.0,0.0,-3.9883,-3.9883,-3.9902,-3.9902,-3.9512,-3.9199,-3.9199,0.0,0.0,-3.5923,-3.243,-3.0196,0.0,-2.8991,-2.7829,-2.8123,-2.815,-2.815,-2.8136,-2.8136,-2.8136,-2.8136,-2.8136,-2.8136,-2.8136,-2.8136,-2.8136,-2.8136,-2.8136,-2.8136,-2.8136,-2.3458,-2.1221,-2.1048,-1.6386,-1.4299,-1.4299,-1.4299,-1.4211,-1.4089,-1.4238,-1.4122,-1.3858,-1.4014,-1.398,-1.3838,-1.3838,-1.3838,-1.3824,-1.3682,-1.3634,-1.3607,-1.3451,-1.3403,-1.3403,-1.3403,-1.3505,-1.3593,-1.3444,-1.3403,-1.3403,-1.3403,-1.3403,-1.226,-0.7812,-0.6643,-0.5472,-0.104,0.0,0.0,0.0,0.0,0.0,0.0,0.0,0.0,0.0,0.0,0.0,0.0,0.0,0.0,0.0,0.0,0.0,0.0,0.0,0.0,0.0,0.0,0.0,0.0,0.0,0.0,0.0,0.0,0.0,0.0,0.0,0.0,0.0,0.0,0.0,-3.9902,-4.0527,-4.1172,-4.1172,-4.1074,-4.0976,-4.0976,0.0,0.0,-4.0762,-4.0762,-4.0762,-4.0762,-4.041,-4.0019,-3.9726,-3.8831,0.0,0.0,0.0,0.0,-3.0839,-2.9369,-2.827,-2.815,-2.8136,-2.8136,-2.8136,-2.8136,-2.8136,-2.8136,-2.8136,-2.8136,-2.8136,-2.8136,-2.8136,-2.8136,-2.8136,-2.8136,-2.8136,-2.3458,-2.1221,-2.1048,-1.6386,-1.4299,-1.4299,-1.4299,-1.4272,-1.4231,-1.4278,-1.4245,-1.4156,-1.4211,-1.4197,-1.4156,-1.4156,-1.4156,-1.415,-1.4102,-1.3953,-1.3763,-1.3715,-1.3634,-1.3539,-1.3431,-1.3437,-1.3464,-1.3417,-1.3403,-1.3403,-1.3403,-1.2291,-1.034,-0.7488,-0.5485,-0.3632,-0.0701,0.0,0.0,0.0,0.0,0.0,0.0,0.0,0.0,0.0,0.0,0.0,0.0,0.0,0.0,0.0,0.0,0.0,0.0,0.0,0.0,0.0,0.0,0.0,0.0,0.0,0.0,0.0,0.0,0.0,0.0,0.0,0.0,0.0,0.0,0.0,0.0,-4.0644,-4.1172,-4.1172,-4.1172,0.0,0.0,0.0,0.0,0.0,0.0,-4.1172,-4.1172,-4.082,-4.0391,-3.9961,-3.9512,0.0,0.0,0.0,0.0,-2.9717,-2.8785,-2.819,-2.7989,-2.8083,-2.8136,-2.8136,-2.8136,-2.8136,-2.8136,-2.8136,-2.8136,-2.8136,-2.8136,-2.8136,-2.8136,-2.8136,-2.8136,-2.8136,-2.3458,-2.1221,-2.1048,-1.6386,-1.4299,-1.4299,-1.4299,-1.4265,0.0,-1.4211,-1.4211,-1.4211,-1.4211,-1.4251,-1.4299,-1.4299,-1.4265,-1.4204,-1.415,-1.3966,-1.3763,-1.3763,-1.3702,-1.3614,-1.3519,-1.3444,-1.3403,-1.3403,-1.3403,-1.3244,-1.2291,-1.1009,-0.9215,-0.6197,-0.4338,-0.28,-0.0532,0.0,0.0,0.0,0.0,0.0,0.0,0.0,0.0,0.0,0.0,0.0,0.0,0.0,0.0,0.0,0.0,0.0,0.0,0.0,0.0,0.0,0.0,0.0,0.0,0.0,0.0,0.0,0.0,0.0,0.0,0.0,0.0,0.0,0.0,0.0,0.0,0.0,0.0,0.0,0.0,0.0,0.0,0.0,0.0,0.0,0.0,0.0,0.0,-4.084,-4.043,-3.9961,-3.9531,0.0,0.0,-3.3737,-3.1182,-2.7731,-2.7549,-2.7722,-2.7696,-2.7963,-2.8136,-2.8136,-2.8136,-2.8136,-2.8136,-2.8136,-2.8136,-2.8136,-2.8136,-2.8136,-2.8136,-2.8136,-2.8136,-2.7968,-2.3287,-2.1048,-2.0875,-1.6386,-1.4299,-1.4299,-1.4299,-1.4217,-1.4089,-1.4075,-1.4075,-1.4075,-1.4075,-1.415,-1.4272,-1.4278,-1.419,-1.4034,-1.3892,-1.3756,-1.3648,-1.3648,-1.3627,-1.3614,-1.3627,-1.3519,-1.3403,-1.3403,-1.3403,-1.2932,-1.0862,-1.0048,-0.874,-0.4555,-0.3348,-0.2652,-0.0537,0.0,0.0,0.0,0.0,0.0,0.0,0.0,0.0,0.0,0.0,0.0,0.0,0.0,0.0,0.0,0.0,0.0,0.0,0.0,0.0,0.0,0.0,0.0,0.0,0.0,0.0,0.0,0.0,0.0,0.0,0.0,0.0,0.0,0.0,0.0,0.0,0.0,0.0,0.0,0.0,0.0,0.0,0.0,0.0,0.0,0.0,0.0,0.0,0.0,0.0,-4.0019,-3.9805,-3.8217,-3.3802,-3.0572,-2.8381,-2.7727,-2.7856,-2.7949,-2.7722,-2.7963,-2.8136,-2.8136,-2.8136,-2.8136,-2.8136,-2.8136,-2.8136,-2.8136,-2.8136,-2.8136,-2.8136,-2.8136,-2.7279,-2.5543,-2.26,-2.0356,-1.8453,-1.569,-1.4299,-1.4299,-1.4299,-1.4278,-1.4238,-1.4122,-1.4075,-1.4075,-1.4075,-1.4021,-1.396,-1.4082,-1.4027,-1.3892,-1.3851,-1.3817,-1.379,-1.379,-1.3641,-1.3478,-1.3593,-1.3519,-1.3403,-1.3403,-1.3403,-1.3264,-1.2907,-1.0109,-0.7266,-0.6313,-0.3348,-0.0708,-0.0179,0.0,0.0,0.0,0.0,0.0,0.0,0.0,0.0,0.0,0.0,0.0,0.0,0.0,0.0,0.0,0.0,0.0,0.0,0.0,0.0,0.0,0.0,0.0,0.0,0.0,0.0,0.0,0.0,0.0,0.0,0.0,0.0,0.0,0.0,0.0,0.0,0.0,0.0,0.0,0.0,0.0,0.0,0.0,0.0,0.0,0.0,0.0,0.0,0.0,-3.9812,-4.0121,-3.8423,-3.574,-3.1895,-2.8892,-2.7215,-2.7642,-2.7843,-2.7923,-2.7909,-2.8043,-2.8136,-2.8136,-2.8136,-2.8136,-2.8136,-2.8136,-2.8136,-2.8136,-2.8136,-2.8136,-2.8136,-2.8136,-2.7109,-2.4691,-2.2256,-2.0009,-1.7763,-1.5337,-1.4299,-1.4299,-1.4299,-1.4258,-1.419,-1.4102,-1.4027,-1.3966,-1.3966,-1.3912,-1.3858,-1.4014,-1.3973,-1.3838,-1.3838,-1.3838,-1.3838,-1.3838,-1.3736,-1.3634,-1.3783,-1.3682,-1.3505,-1.3505,-1.3505,-1.3217,-1.2393,-0.9544,-0.647,-0.5657,-0.2664,0.0,0.0,0.0,0.0,0.0,0.0,0.0,0.0,0.0,0.0,0.0,0.0,0.0,0.0,0.0,0.0,0.0,0.0,0.0,0.0,0.0,0.0,0.0,0.0,0.0,0.0,0.0,0.0,0.0,0.0,0.0,0.0,0.0,0.0,0.0,0.0,0.0,0.0,0.0,0.0,0.0,0.0,0.0,0.0,0.0,0.0,0.0,0.0,0.0,0.0,-3.9374,-3.8753,-3.9797,-3.6355,-3.271,-3.0438,-2.8207,-2.7134,-2.7642,-2.7736,-2.7843,-2.8056,-2.8123,-2.8136,-2.8136,-2.8136,-2.8136,-2.8136,-2.8136,-2.8136,-2.8136,-2.8136,-2.8136,-2.8136,-2.7799,-2.6406,-2.4166,-2.1739,-1.9488,-1.7247,-1.5168,-1.4285,-1.4265,-1.4265,-1.4177,-1.4034,-1.4034,-1.3946,-1.381,-1.3831,-1.3824,-1.3824,-1.396,-1.3919,-1.381,-1.3831,-1.3838,-1.3844,-1.3892,-1.3878,-1.3871,-1.4027,-1.3878,-1.3668,-1.3688,-1.3682,-1.3206,-1.1541,-0.8965,-0.6347,-0.4639,-0.1971,0.0,0.0,0.0,0.0,0.0,0.0,0.0,0.0,0.0,0.0,0.0,0.0,0.0,0.0,0.0,0.0,0.0,0.0,0.0,0.0,0.0,0.0,0.0,0.0,0.0,0.0,0.0,0.0,0.0,0.0,0.0,0.0,0.0,0.0,0.0,0.0,0.0,-4.1172,-4.1172,-4.1172,-4.1172,-4.1172,-4.1172,0.0,0.0,0.0,0.0,0.0,0.0,0.0,-3.9688,-4.0063,-3.819,-3.54,-3.2871,-3.0896,-2.8851,-2.7602,-2.7682,-2.7923,-2.7989,-2.7789,-2.7989,-2.8136,-2.8136,-2.8136,-2.8136,-2.8136,-2.8136,-2.8136,-2.8136,-2.8136,-2.8136,-2.8136,-2.6236,-2.3995,-2.1739,-1.9488,-1.7071,-1.4822,-1.4476,-1.4231,-1.4109,-1.4109,-1.4021,-1.3878,-1.3878,-1.379,-1.3675,-1.379,-1.377,-1.3661,-1.3688,-1.3682,-1.3682,-1.3797,-1.3838,-1.3885,-1.4143,-1.4055,-1.3871,-1.4027,-1.3946,-1.3838,-1.3966,-1.3905,-1.3673,-1.3674,-1.0194,-0.6878,-0.6596,-0.3224,0.0,0.0,0.0,0.0,0.0,0.0,0.0,0.0,0.0,0.0,0.0,0.0,0.0,0.0,0.0,0.0,0.0,0.0,0.0,0.0,0.0,0.0,0.0,0.0,0.0,0.0,0.0,0.0,0.0,0.0,0.0,0.0,0.0,0.0,0.0,0.0,0.0,-4.1172,-4.1172,-4.1172,-4.1172,-4.1172,-4.1172,-4.1172,-4.1172,0.0,0.0,0.0,0.0,0.0,-3.7751,-3.648,-3.2727,-3.2232,-3.148,-2.9229,-2.8112,-2.7522,-2.7682,-2.7816,-2.7909,-2.7936,-2.8056,-2.8136,-2.8136,-2.8136,-2.8136,-2.8136,-2.8136,-2.807,-2.7909,-2.7896,-2.7315,-2.5966,-2.3721,-2.2139,-2.1221,-1.8976,-1.6498,-1.4177,-1.4177,-1.4095,-1.3953,-1.4034,-1.3939,-1.3736,-1.3899,-1.3783,-1.3526,-1.3749,-1.3756,-1.3648,-1.381,-1.3871,-1.3878,-1.3939,-1.3966,-1.3987,-1.4129,-1.4082,-1.3994,-1.415,-1.4089,-1.3994,-1.415,-1.4082,-1.4,-1.4156,-1.0636,-0.7102,-0.7139,-0.3401,0.0,0.0,0.0,0.0,0.0,0.0,0.0,0.0,0.0,0.0,0.0,0.0,0.0,0.0,0.0,0.0,0.0,0.0,0.0,0.0,0.0,0.0,0.0,0.0,0.0,0.0,0.0,0.0,0.0,0.0,0.0,0.0,0.0,0.0,0.0,0.0,0.0,-4.1172,-4.1172,-4.1172,-4.1172,-4.1172,-4.1172,-4.1172,-4.1172,-4.1172,-4.1172,-4.0841,0.0,0.0,-3.5794,-3.3305,-2.9828,-3.017,-3.0305,-2.7825,-2.7468,-2.7549,-2.7776,-2.7802,-2.7896,-2.8123,-2.8136,-2.8136,-2.8136,-2.8136,-2.8136,-2.8136,-2.8136,-2.8003,-2.7709,-2.7696,-2.6543,-2.4081,-2.1904,-2.0587,-2.0288,-1.8044,-1.5904,-1.4068,-1.4034,-1.3933,-1.3797,-1.3953,-1.3851,-1.36,-1.3933,-1.3831,-1.3478,-1.3743,-1.3756,-1.3661,-1.396,-1.4075,-1.4075,-1.4075,-1.4095,-1.4122,-1.4122,-1.4122,-1.415,-1.4265,-1.4217,-1.415,-1.4265,-1.4217,-1.415,-1.4272,-1.0717,-0.7146,-0.7146,-0.3401,0.0,0.0,0.0,0.0,0.0,0.0,0.0,0.0,0.0,0.0,0.0,0.0,0.0,0.0,0.0,0.0,0.0,0.0,0.0,0.0,0.0,0.0,0.0,0.0,0.0,0.0,0.0,0.0,0.0,0.0,0.0,0.0,0.0,0.0,0.0,0.0,0.0,-4.1172,-4.1172,-4.1172,-4.1172,-4.1172,-4.1172,-4.1172,-4.1172,-4.1172,-4.1172,-3.9531,-3.7946,-3.7391,-3.557,-3.398,-3.3627,-3.2298,-3.0534,-2.8406,-2.8083,-2.8083,-2.811,-2.811,-2.8123,-2.8136,-2.8136,-2.8136,-2.8136,-2.8136,-2.8136,-2.8136,-2.8136,-2.8003,-2.7709,-2.7696,-2.6543,-2.4081,-2.1744,-1.9683,-1.7682,-1.5458,-1.4256,-1.4068,-1.3926,-1.3777,-1.3654,-1.3797,-1.3688,-1.3451,-1.3892,-1.3892,-1.3627,-1.3783,-1.3756,-1.3661,-1.396,-1.4075,-1.4075,-1.4075,-1.4163,-1.4285,-1.4285,-1.4285,-1.4285,-1.4299,-1.4292,-1.4285,-1.4299,-1.4292,-1.4285,-1.4299,-1.0717,-0.7146,-0.7146,-0.3401,0.0,0.0,0.0,0.0,0.0,0.0,0.0,0.0,0.0,0.0,0.0,0.0,0.0,0.0,0.0,0.0,0.0,0.0,0.0,0.0,0.0,0.0,0.0,0.0,0.0,0.0,0.0,0.0,0.0,0.0,0.0,0.0,0.0,0.0,0.0,0.0,0.0,-4.1172,-4.1172,-4.1172,-4.1172,-4.1172,-4.1172,-4.1172,-4.1172,-4.1172,-4.1172,-3.9374,-3.7223,-3.5312,-3.2044,-3.0292,-3.1404,-3.0407,-2.9118,-2.8305,-2.8136,-2.8136,-2.8136,-2.8136,-2.8136,-2.8136,-2.8136,-2.8136,-2.8136,-2.8136,-2.8136,-2.8136,-2.7963,-2.7736,-2.7442,-2.7255,-2.5351,-2.147,-2.0611,-1.8569,-1.5138,-1.4222,-1.3885,-1.3797,-1.3736,-1.3627,-1.3498,-1.3648,-1.3593,-1.3424,-1.3688,-1.3675,-1.3512,-1.3749,-1.3926,-1.4061,-1.417,-1.4211,-1.4211,-1.4211,-1.4251,-1.4299,-1.4299,-1.4299,-1.4299,-1.4299,-1.4299,-1.4299,-1.4299,-1.4299,-1.4299,-1.4299,-1.1788,-0.893,-0.7502,-0.4651,-0.1793,-0.0359,0.0,0.0,0.0,0.0,0.0,0.0,0.0,0.0,0.0,0.0,0.0,0.0,0.0,0.0,0.0,0.0,0.0,0.0,0.0,0.0,0.0,0.0,0.0,0.0,0.0,0.0,0.0,0.0,0.0,0.0,0.0,0.0,0.0,0.0,0.0,-4.1172,-4.1172,-4.1172,-4.1172,-4.1172,-4.1172,-4.1172,-4.1172,-4.1016,-4.0353,-3.8679,-3.6395,-3.3046,-3.074,-2.9485,-3.0114,-2.9047,-2.8136,-2.8136,-2.8136,-2.8136,-2.8136,-2.8136,-2.811,-2.8016,-2.8003,-2.8003,-2.8003,-2.8003,-2.8003,-2.8003,-2.7802,-2.7522,-2.7134,-2.6261,-2.3896,-1.9907,-1.9231,-1.7173,-1.3559,-1.3654,-1.3675,-1.3627,-1.358,-1.3498,-1.341,-1.3559,-1.3546,-1.3417,-1.3668,-1.3709,-1.3634,-1.3892,-1.4055,-1.4163,-1.4211,-1.4231,-1.4231,-1.4231,-1.4258,-1.4299,-1.4299,-1.4299,-1.4299,-1.4299,-1.4299,-1.4299,-1.4299,-1.4299,-1.4299,-1.4299,-1.1971,-0.9108,-0.7506,-0.4651,-0.1971,-0.0359,0.0,0.0,0.0,0.0,0.0,0.0,0.0,0.0,0.0,0.0,0.0,0.0,0.0,0.0,0.0,0.0,0.0,0.0,0.0,0.0,0.0,0.0,0.0,0.0,0.0,0.0,0.0,0.0,0.0,0.0,0.0,0.0,0.0,0.0,0.0,-4.1172,-4.1172,-4.1172,-4.1172,-4.1172,-4.1172,-4.1172,-4.1172,-4.0529,-3.839,-3.7108,-3.5314,-3.106,-3.1999,-3.2633,-3.058,-2.9047,-2.8136,-2.8136,-2.8136,-2.8136,-2.8136,-2.8136,-2.8016,-2.7722,-2.7696,-2.7696,-2.7696,-2.7696,-2.7696,-2.7696,-2.7696,-2.7428,-2.6841,-2.4677,-2.2425,-1.9907,-1.762,-1.5514,-1.3403,-1.3403,-1.3478,-1.362,-1.3471,-1.3403,-1.341,-1.3559,-1.3539,-1.3437,-1.3885,-1.4068,-1.4089,-1.4238,-1.4109,-1.3865,-1.4014,-1.4075,-1.4068,-1.4075,-1.417,-1.4299,-1.4299,-1.4299,-1.4299,-1.4299,-1.4299,-1.4299,-1.4299,-1.4299,-1.4299,-1.4299,-1.0717,-0.7146,-0.7146,-0.358,0.0,0.0,0.0,0.0,0.0,0.0,0.0,0.0,0.0,0.0,0.0,0.0,0.0,0.0,0.0,0.0,0.0,0.0,0.0,0.0,0.0,0.0,0.0,0.0,0.0,0.0,0.0,0.0,0.0,0.0,0.0,0.0,0.0,0.0,0.0,0.0,0.0,-4.1172,-4.1172,-4.1172,-4.1172,-4.1172,-4.1172,-4.1172,-4.1172,-4.0197,-3.6442,-3.4128,-3.2138,-3.0465,-2.9659,-2.9583,-3.0144,-2.9047,-2.8136,-2.8136,-2.8136,-2.807,-2.7856,-2.7829,-2.7722,-2.7415,-2.7402,-2.7402,-2.7402,-2.7402,-2.7402,-2.7402,-2.7201,-2.6339,-2.4515,-2.3675,-2.1427,-1.7629,-1.6975,-1.5514,-1.3403,-1.3403,-1.3424,-1.3464,-1.3424,-1.3403,-1.3403,-1.3451,-1.3444,-1.3417,-1.3661,-1.3885,-1.4075,-1.4122,-1.4082,-1.4021,-1.4177,-1.4095,-1.3939,-1.4156,-1.419,-1.4156,-1.4265,-1.4299,-1.4299,-1.4299,-1.4299,-1.4299,-1.4299,-1.4299,-1.4299,-1.4299,-1.1971,-0.9286,-0.7506,-0.6076,-0.4116,-0.0718,0.0,0.0,0.0,0.0,0.0,0.0,0.0,0.0,0.0,0.0,0.0,0.0,0.0,0.0,0.0,0.0,0.0,0.0,0.0,0.0,0.0,0.0,0.0,0.0,0.0,0.0,0.0,0.0,0.0,0.0,0.0,0.0,0.0,0.0,0.0,-4.1172,-4.1172,-4.1172,-4.1172,-4.1172,-4.0997,-4.0021,-3.9216,-3.7578,-3.4164,-3.2119,-3.0543,-2.9377,-2.9015,-2.8921,-2.9052,-2.8538,-2.7963,-2.7963,-2.7869,-2.7736,-2.7549,-2.7522,-2.7415,-2.7121,-2.7094,-2.7094,-2.7094,-2.7094,-2.7094,-2.7094,-2.6921,-2.5783,-2.3537,-2.2406,-2.022,-1.6647,-1.5671,-1.4706,-1.3403,-1.3403,-1.3403,-1.3403,-1.3403,-1.3403,-1.3403,-1.3403,-1.3437,-1.3498,-1.3593,-1.377,-1.398,-1.398,-1.398,-1.3994,-1.4082,-1.4041,-1.396,-1.4143,-1.419,-1.4177,-1.4272,-1.4299,-1.4299,-1.4299,-1.4299,-1.4299,-1.4299,-1.4299,-1.4299,-1.4299,-1.3224,-1.125,-0.7859,-0.6433,-0.4651,-0.0897,0.0,0.0,0.0,0.0,0.0,0.0,0.0,0.0,0.0,0.0,0.0,0.0,0.0,0.0,0.0,0.0,0.0,0.0,0.0,0.0,0.0,0.0,0.0,0.0,0.0,0.0,0.0,0.0,0.0,0.0,0.0,0.0,0.0,0.0,0.0,-4.1172,-4.1172,-4.1172,-4.1172,-4.1016,-4.0353,-3.8073,-3.5943,-3.3839,-3.1887,-3.1003,-3.0006,-2.8054,-2.9335,-2.9963,-2.8027,-2.7682,-2.7655,-2.7655,-2.7428,-2.7255,-2.7228,-2.7201,-2.7068,-2.6774,-2.6747,-2.6747,-2.6747,-2.6774,-2.6787,-2.6787,-2.6613,-2.5346,-2.282,-2.0716,-1.8598,-1.6295,-1.4368,-1.3397,-1.3376,-1.3397,-1.3403,-1.3403,-1.3403,-1.3403,-1.3403,-1.3403,-1.3485,-1.3627,-1.3627,-1.3709,-1.3838,-1.3838,-1.3838,-1.3844,-1.3858,-1.3939,-1.4055,-1.4068,-1.4163,-1.4278,-1.4278,-1.4292,-1.4299,-1.4299,-1.4299,-1.4299,-1.4299,-1.4299,-1.4299,-1.4299,-1.4299,-1.3046,-0.8219,-0.5544,-0.3224,-0.0538,0.0,0.0,0.0,0.0,0.0,0.0,0.0,0.0,0.0,0.0,0.0,0.0,0.0,0.0,0.0,0.0,0.0,0.0,0.0,0.0,0.0,0.0,0.0,0.0,0.0,0.0,0.0,0.0,0.0,0.0,0.0,0.0,0.0,0.0,0.0,-4.1172,-4.1172,0.0,0.0,-3.9864,-3.8054,-3.596,-3.3676,-3.2052,-3.1557,-3.005,-2.8701,-2.8211,-2.8176,-2.8179,-2.7696,-2.7509,-2.7362,-2.7362,-2.7308,-2.7175,-2.6947,-2.672,-2.6466,-2.6172,-2.6146,-2.6146,-2.6146,-2.636,-2.648,-2.648,-2.4849,-2.2878,-2.0716,-1.8435,-1.6253,-1.403,-1.3501,-1.3342,-1.322,-1.3342,-1.3403,-1.3403,-1.3403,-1.3403,-1.3403,-1.3403,-1.3485,-1.3627,-1.3627,-1.3709,-1.3838,-1.3838,-1.3838,-1.3858,-1.398,-1.3966,-1.3905,-1.4027,-1.4095,-1.4122,-1.4122,-1.4204,-1.4299,-1.4299,-1.4299,-1.4299,-1.4299,-1.4299,-1.4299,-1.4299,-1.4299,-1.3046,-0.8219,-0.679,-0.5186,-0.0897,0.0,0.0,0.0,0.0,0.0,0.0,0.0,0.0,0.0,0.0,0.0,0.0,0.0,0.0,0.0,0.0,0.0,0.0,0.0,0.0,0.0,0.0,0.0,0.0,0.0,0.0,0.0,0.0,0.0,0.0,0.0,0.0,0.0,0.0,0.0,-4.1172,0.0,0.0,-3.9864,0.0,-3.5782,-3.3676,-3.1407,-2.9898,-2.9741,-2.8744,-2.7883,-2.7749,-2.7602,-2.7495,-2.7495,-2.7241,-2.7054,-2.7054,-2.6814,-2.6587,-2.6426,-2.6146,-2.5972,-2.5959,-2.5959,-2.5959,-2.5959,-2.6092,-2.6119,-2.5972,-2.3889,-2.1817,-1.9583,-1.7503,-1.5384,-1.3071,-1.3152,-1.3152,-1.3071,-1.3152,-1.3193,-1.3193,-1.3336,-1.3403,-1.3403,-1.3403,-1.3444,-1.3519,-1.3519,-1.3559,-1.3627,-1.3627,-1.3715,-1.3844,-1.3858,-1.3899,-1.3953,-1.396,-1.4007,-1.4061,-1.3987,-1.4116,-1.4285,-1.4211,-1.4245,-1.4299,-1.4299,-1.4299,-1.4299,-1.4299,-1.4299,-1.3046,-0.8219,-0.7146,-0.5722,-0.1076,0.0,0.0,0.0,0.0,0.0,0.0,0.0,0.0,0.0,0.0,0.0,0.0,0.0,0.0,0.0,0.0,0.0,0.0,0.0,0.0,0.0,0.0,0.0,0.0,0.0,0.0,0.0,0.0,0.0,0.0,0.0,0.0,0.0,0.0,0.0,0.0,0.0,-4.0685,-3.839,-3.6281,0.0,-3.1887,-2.9774,-2.8043,-2.7696,-2.7669,-2.7602,-2.7321,-2.7228,-2.7188,-2.7188,-2.6947,-2.6734,-2.668,-2.6266,-2.5932,-2.5892,-2.5611,-2.5531,-2.5785,-2.5812,-2.5812,-2.5812,-2.5852,-2.5617,-2.5058,-2.2995,-2.0957,-1.8769,-1.6731,-1.4836,-1.2922,-1.2949,-1.2949,-1.2922,-1.2949,-1.2963,-1.2969,-1.3241,-1.3363,-1.3363,-1.3363,-1.3376,-1.3403,-1.3403,-1.3403,-1.3403,-1.3403,-1.3566,-1.379,-1.3675,-1.3817,-1.4048,-1.3865,-1.3919,-1.4048,-1.3892,-1.4034,-1.4245,-1.4143,-1.4197,-1.4299,-1.4299,-1.4299,-1.4299,-1.4299,-1.4299,-1.3046,-0.8219,-0.7146,-0.5722,-0.1076,0.0,0.0,0.0,0.0,0.0,0.0,0.0,0.0,0.0,0.0,0.0,0.0,0.0,0.0,0.0,0.0,0.0,0.0,0.0,0.0,0.0,0.0,0.0,0.0,0.0,0.0,0.0,0.0,0.0,0.0,0.0,0.0,0.0,0.0,0.0,0.0,0.0,-4.0685,0.0,-3.6281,-3.4164,0.0,0.0,-2.7989,-2.7442,-2.7522,-2.7602,-2.7321,-2.7054,-2.6881,-2.6881,-2.664,-2.636,-2.6106,-2.6012,-2.5865,-2.5598,-2.5317,-2.5157,-2.5197,-2.5197,-2.5197,-2.5197,-2.5438,-2.4765,-2.2995,-2.0801,-1.8769,-1.6731,-1.4533,-1.3214,-1.2759,-1.2895,-1.2895,-1.2759,-1.2895,-1.2963,-1.2969,-1.3125,-1.32,-1.32,-1.32,-1.3275,-1.3403,-1.3403,-1.3403,-1.3403,-1.3403,-1.3505,-1.3654,-1.3634,-1.3817,-1.4034,-1.3756,-1.3838,-1.4048,-1.3892,-1.396,-1.4122,-1.4238,-1.4285,-1.4299,-1.4299,-1.4299,-1.4299,-1.4299,-1.4299,-1.3046,-0.8219,-0.7146,-0.5722,-0.1076,0.0,0.0,0.0,0.0,0.0,0.0,0.0,0.0,0.0,0.0,0.0,0.0,0.0,0.0,0.0,0.0,0.0,0.0,0.0,0.0,0.0,0.0,0.0,0.0,0.0,0.0,0.0,0.0,0.0,0.0,0.0,0.0,0.0,0.0,0.0,-4.1172,0.0,0.0,0.0,-3.4489,-3.2217,-3.0093,-2.8964,-2.8016,-2.7602,-2.7602,-2.7509,-2.6894,-2.6667,-2.6587,-2.6587,-2.6466,-2.6293,-2.5999,-2.5812,-2.5598,-2.5304,-2.501,-2.489,-2.5064,-2.5077,-2.5077,-2.5077,-2.5197,-2.4263,-2.2094,-1.9938,-1.7942,-1.594,-1.3781,-1.2671,-1.2603,-1.2671,-1.2671,-1.2603,-1.2671,-1.2745,-1.2834,-1.2895,-1.2969,-1.3064,-1.3227,-1.3247,-1.3166,-1.3336,-1.3349,-1.3281,-1.337,-1.3492,-1.362,-1.3532,-1.3641,-1.3804,-1.3675,-1.377,-1.3933,-1.3865,-1.4,-1.4197,-1.4177,-1.4231,-1.4299,-1.4299,-1.4299,-1.4299,-1.4299,-1.4299,-1.3046,-0.8219,-0.7146,-0.5722,-0.1076,0.0,0.0,0.0,0.0,0.0,0.0,0.0,0.0,0.0,0.0,0.0,0.0,0.0,0.0,0.0,0.0,0.0,0.0,0.0,0.0,0.0,0.0,0.0,0.0,0.0,0.0,0.0,0.0,0.0,0.0,0.0,0.0,0.0,0.0,0.0,0.0,0.0,0.0,0.0,-3.3512,-3.1557,0.0,0.0,-2.8056,-2.7762,-2.7696,-2.7482,-2.6747,-2.6547,-2.648,-2.64,-2.6386,-2.6293,-2.5999,-2.5758,-2.5518,-2.5224,-2.493,-2.4836,-2.5064,-2.501,-2.497,-2.497,-2.497,-2.3792,-2.1003,-1.9478,-1.736,-1.4782,-1.3259,-1.2501,-1.2501,-1.2501,-1.2522,-1.2562,-1.2522,-1.2603,-1.2786,-1.2786,-1.2854,-1.2976,-1.3234,-1.3241,-1.3091,-1.3308,-1.3336,-1.3241,-1.3356,-1.3471,-1.3559,-1.3444,-1.3498,-1.3627,-1.3587,-1.3688,-1.3838,-1.3838,-1.4021,-1.4231,-1.415,-1.4211,-1.4299,-1.4299,-1.4299,-1.4299,-1.4299,-1.4299,-1.3046,-0.8219,-0.7146,-0.5722,-0.1076,0.0,0.0,0.0,0.0,0.0,0.0,0.0,0.0,0.0,0.0,0.0,0.0,0.0,0.0,0.0,0.0,0.0,0.0,0.0,0.0,0.0,0.0,0.0,0.0,0.0,0.0,0.0,0.0,0.0,0.0,0.0,0.0,0.0,0.0,0.0,0.0,0.0,0.0,0.0,0.0,0.0,0.0,0.0,-2.8056,-2.7762,-2.7696,-2.7602,-2.7281,-2.6987,-2.6707,-2.6426,-2.6386,-2.6293,-2.5999,-2.5945,-2.5825,-2.5531,-2.5237,-2.5064,-2.5077,-2.4823,-2.4663,-2.4663,-2.4663,-2.298,-1.9025,-1.8723,-1.6751,-1.2811,-1.2501,-1.2501,-1.2501,-1.2501,-1.2576,-1.2718,-1.2569,-1.2657,-1.2949,-1.2949,-1.2956,-1.2969,-1.3119,-1.3261,-1.3376,-1.3397,-1.3397,-1.339,-1.3397,-1.3403,-1.341,-1.3403,-1.3498,-1.3607,-1.3464,-1.36,-1.3838,-1.3838,-1.3953,-1.4109,-1.4245,-1.4292,-1.4299,-1.4299,-1.4299,-1.4299,-1.4299,-1.4299,-1.3046,-0.8219,-0.7146,-0.5722,-0.1076,0.0,0.0,0.0,0.0,0.0,0.0,0.0,0.0,0.0,0.0,0.0,0.0,0.0,0.0,0.0,0.0,0.0,0.0,0.0,0.0,0.0,0.0,0.0,0.0,0.0,0.0,0.0,0.0,0.0,0.0,0.0,0.0,0.0,0.0,0.0,0.0,0.0,0.0,0.0,-3.4651,-3.2217,-3.0592,-2.9118,-2.811,-2.8003,-2.7989,-2.7896,-2.7602,-2.7308,-2.7014,-2.672,-2.6667,-2.6507,-2.6026,-2.5959,-2.5852,-2.5545,-2.5424,-2.5358,-2.5358,-2.5264,-2.5197,-2.5197,-2.5024,-2.3079,-1.909,-1.8643,-1.6751,-1.2656,-1.2501,-1.2501,-1.2501,-1.2596,-1.2678,-1.2732,-1.2773,-1.2901,-1.3098,-1.3098,-1.3152,-1.3247,-1.3295,-1.3241,-1.3132,-1.3322,-1.3342,-1.3261,-1.3363,-1.3403,-1.3403,-1.3403,-1.3437,-1.3498,-1.3634,-1.3749,-1.3871,-1.4075,-1.417,-1.4231,-1.4285,-1.4299,-1.4299,-1.4299,-1.4299,-1.4299,-1.4299,-1.4299,-1.3046,-0.8219,-0.4829,-0.215,-0.0359,0.0,0.0,0.0,0.0,0.0,0.0,0.0,0.0,0.0,0.0,0.0,0.0,0.0,0.0,0.0,0.0,0.0,0.0,0.0,0.0,0.0,0.0,0.0,0.0,0.0,0.0,0.0,0.0,0.0,0.0,0.0,0.0,0.0,0.0,0.0,-4.1172,0.0,0.0,0.0,0.0,-3.2381,-3.1557,-2.9774,-2.8136,-2.8136,-2.8136,-2.8083,-2.7883,-2.7696,-2.7428,-2.7041,-2.6974,-2.6841,-2.6453,-2.6306,-2.6172,-2.5972,-2.5785,-2.5665,-2.5665,-2.5571,-2.5518,-2.5518,-2.4709,-2.273,-1.9327,-1.826,-1.619,-1.2807,-1.2657,-1.2657,-1.2657,-1.2759,-1.2834,-1.2881,-1.2935,-1.3064,-1.3247,-1.3193,-1.3254,-1.3403,-1.3403,-1.3288,-1.3125,-1.3322,-1.3342,-1.3261,-1.3363,-1.3403,-1.341,-1.3458,-1.3444,-1.3444,-1.3736,-1.3838,-1.3885,-1.4143,-1.4258,-1.4299,-1.4299,-1.4299,-1.4299,-1.4299,-1.4299,-1.4299,-1.4299,-1.3046,-1.0895,-0.679,-0.2866,0.0,0.0,0.0,0.0,0.0,0.0,0.0,0.0,0.0,0.0,0.0,0.0,0.0,0.0,0.0,0.0,0.0,0.0,0.0,0.0,0.0,0.0,0.0,0.0,0.0,0.0,0.0,0.0,0.0,0.0,0.0,0.0,0.0,0.0,0.0,0.0,0.0,0.0,0.0,0.0,0.0,0.0,0.0,-3.1887,0.0,-2.8136,-2.8136,-2.8136,-2.8136,-2.8136,-2.8136,-2.7963,-2.7388,-2.7281,-2.7281,-2.7268,-2.7014,-2.6841,-2.6841,-2.6333,-2.5985,-2.5985,-2.5718,-2.5545,-2.5545,-2.3495,-2.1446,-1.9406,-1.7038,-1.4995,-1.3123,-1.2963,-1.2963,-1.2963,-1.2963,-1.3037,-1.3173,-1.3037,-1.3125,-1.3397,-1.3247,-1.3261,-1.3403,-1.3403,-1.3403,-1.3403,-1.3403,-1.3403,-1.3403,-1.3403,-1.3403,-1.3417,-1.3573,-1.3532,-1.3451,-1.3743,-1.3844,-1.3871,-1.4027,-1.4177,-1.4299,-1.4299,-1.4299,-1.4299,-1.4299,-1.4299,-1.4299,-1.4122,-1.0717,-0.6433,-0.4116,-0.1793,0.0,0.0,0.0,0.0,0.0,0.0,0.0,0.0,0.0,0.0,0.0,0.0,0.0,0.0,0.0,0.0,0.0,0.0,0.0,0.0,0.0,0.0,0.0,0.0,0.0,0.0,0.0,0.0,0.0,0.0,0.0,0.0,0.0,0.0,0.0,0.0,0.0,-4.1172,0.0,0.0,0.0,0.0,0.0,-3.1887,0.0,-2.8136,-2.8136,-2.8136,-2.8136,-2.8136,-2.8136,-2.8083,-2.7923,-2.7722,-2.7509,-2.7295,-2.7201,-2.7148,-2.7148,-2.6814,-2.6587,-2.6587,-2.6319,-2.6146,-2.6146,-2.3877,-2.1705,-1.9641,-1.5864,-1.3589,-1.2963,-1.2963,-1.2963,-1.2963,-1.3064,-1.3132,-1.3173,-1.3247,-1.3322,-1.3397,-1.3356,-1.3363,-1.3403,-1.3403,-1.3403,-1.3403,-1.3403,-1.3403,-1.3403,-1.3403,-1.3403,-1.3417,-1.3573,-1.36,-1.3607,-1.3905,-1.4007,-1.4034,-1.419,-1.4265,-1.4299,-1.4299,-1.4299,-1.4299,-1.4299,-1.4299,-1.3938,-1.2148,-0.9468,-0.6433,-0.4116,-0.1793,0.0,0.0,0.0,0.0,0.0,0.0,0.0,0.0,0.0,0.0,0.0,0.0,0.0,0.0,0.0,0.0,0.0,0.0,0.0,0.0,0.0,0.0,0.0,0.0,0.0,0.0,0.0,0.0,0.0,0.0,0.0,0.0,0.0,0.0,0.0,0.0,0.0,-4.1172,-4.0509,-3.9531,-3.8231,0.0,0.0,-3.1722,-2.9774,-2.8136,-2.8136,-2.8136,-2.8136,-2.8136,-2.8136,-2.8136,-2.8136,-2.8003,-2.7829,-2.7655,-2.7522,-2.7442,-2.7442,-2.7188,-2.7001,-2.7001,-2.6854,-2.676,-2.676,-2.3651,-2.0434,-1.7267,-1.4675,-1.3146,-1.3146,-1.3146,-1.3146,-1.3146,-1.3227,-1.3268,-1.3268,-1.3356,-1.3403,-1.3403,-1.3403,-1.3403,-1.3403,-1.3403,-1.3403,-1.3403,-1.3403,-1.3403,-1.3403,-1.3403,-1.3437,-1.3512,-1.3661,-1.3715,-1.3763,-1.4061,-1.4122,-1.4095,-1.4251,-1.4299,-1.4299,-1.4299,-1.4299,-1.4299,-1.4299,-1.4299,-1.3584,-1.0002,-0.8219,-0.6255,-0.2866,-0.1076,0.0,0.0,0.0,0.0,0.0,0.0,0.0,0.0,0.0,0.0,0.0,0.0,0.0,0.0,0.0,0.0,0.0,0.0,0.0,0.0,0.0,0.0,0.0,0.0,0.0,0.0,0.0,0.0,0.0,0.0,0.0,0.0,0.0,0.0,0.0,0.0,0.0,-4.0841,-3.9198,-3.7419,-3.7241,-3.4327,0.0,-3.1076,-2.9607,-2.8136,-2.8136,-2.8136,-2.8136,-2.8136,-2.8136,-2.8136,-2.8136,-2.8136,-2.8136,-2.8136,-2.7909,-2.7749,-2.7749,-2.7495,-2.7308,-2.7308,-2.7281,-2.7268,-2.6928,-2.2732,-1.8307,-1.3823,-1.3526,-1.3444,-1.3424,-1.3424,-1.3417,-1.3403,-1.3403,-1.3403,-1.3403,-1.3403,-1.3403,-1.3403,-1.3403,-1.3403,-1.3403,-1.3403,-1.3403,-1.3403,-1.3403,-1.3403,-1.3403,-1.3403,-1.3492,-1.3648,-1.379,-1.3851,-1.3905,-1.4197,-1.4211,-1.4122,-1.4258,-1.4299,-1.4299,-1.4299,-1.4299,-1.4299,-1.4299,-1.4299,-1.3224,-0.8397,-0.7146,-0.5901,-0.1076,0.0,0.0,0.0,0.0,0.0,0.0,0.0,0.0,0.0,0.0,0.0,0.0,0.0,0.0,0.0,0.0,0.0,0.0,0.0,0.0,0.0,0.0,0.0,0.0,0.0,0.0,0.0,0.0,0.0,0.0,0.0,0.0,0.0,0.0,0.0,0.0,0.0,0.0,-3.8548,-3.6922,-3.4975,-3.3186,-3.2052,0.0,-2.9286,-2.8473,-2.8136,-2.8136,-2.8136,-2.8136,-2.8136,-2.8136,-2.8136,-2.8136,-2.8136,-2.8136,-2.8136,-2.8096,-2.8056,-2.8056,-2.7802,-2.7615,-2.7615,-2.7402,-2.6587,-2.4589,-2.0396,-1.6527,-1.3968,-1.377,-1.3702,-1.3587,-1.3587,-1.3526,-1.3403,-1.3403,-1.3403,-1.3403,-1.3403,-1.3403,-1.3403,-1.3403,-1.3403,-1.3403,-1.3403,-1.3403,-1.3403,-1.3403,-1.3403,-1.3403,-1.3403,-1.3492,-1.3648,-1.379,-1.3919,-1.4055,-1.4238,-1.4278,-1.4258,-1.4292,-1.4299,-1.4299,-1.4299,-1.4299,-1.4299,-1.4299,-1.4299,-1.3224,-0.8397,-0.7146,-0.5901,-0.1076,0.0,0.0,0.0,0.0,0.0,0.0,0.0,0.0,0.0,0.0,0.0,0.0,0.0,0.0,0.0,0.0,0.0,0.0,0.0,0.0,0.0,0.0,0.0,0.0,0.0,0.0,0.0,0.0,0.0,0.0,0.0,0.0,0.0,0.0,0.0,0.0,0.0,0.0,-3.6602,-3.4651,-3.2858,-3.1722,-3.0592,0.0,0.0,-2.8136,-2.8136,-2.8136,-2.8136,-2.8136,-2.8136,-2.8136,-2.8136,-2.8136,-2.8136,-2.8136,-2.8136,-2.8136,-2.8136,-2.8136,-2.8003,-2.7923,-2.7923,-2.6762,-2.4639,-2.1057,-1.8587,-1.6339,-1.4125,-1.3885,-1.381,-1.3736,-1.3668,-1.3593,-1.3512,-1.3437,-1.3403,-1.3403,-1.3403,-1.3403,-1.3403,-1.3403,-1.3403,-1.3403,-1.3403,-1.3403,-1.3403,-1.3403,-1.3403,-1.341,-1.3485,-1.3607,-1.3749,-1.3899,-1.4055,-1.4197,-1.4272,-1.4299,-1.4299,-1.4299,-1.4299,-1.4299,-1.4299,-1.4299,-1.4299,-1.4299,-1.3401,-1.161,-0.804,-0.6255,-0.4472,-0.0897,0.0,0.0,0.0,0.0,0.0,0.0,0.0,0.0,0.0,0.0,0.0,0.0,0.0,0.0,0.0,0.0,0.0,0.0,0.0,0.0,0.0,0.0,0.0,0.0,0.0,0.0,0.0,0.0,0.0,0.0,0.0,0.0,0.0,0.0,0.0,0.0,0.0,0.0,-3.4473,-3.2546,-3.0744,-3.0744,-2.9453,-2.8136,0.0,0.0,0.0,-2.8136,-2.8136,-2.8136,-2.8136,-2.8136,-2.8136,-2.8136,-2.8136,-2.8136,-2.8136,-2.8136,-2.8136,-2.8136,-2.8136,-2.8136,-2.8136,-2.6066,-2.2783,-1.8104,-1.7628,-1.6514,-1.429,-1.3994,-1.3912,-1.3885,-1.3777,-1.3688,-1.3627,-1.3505,-1.3431,-1.3403,-1.3403,-1.3403,-1.3403,-1.3403,-1.3403,-1.3403,-1.3403,-1.3403,-1.3403,-1.3403,-1.3403,-1.3417,-1.3566,-1.3715,-1.3858,-1.4014,-1.417,-1.4299,-1.4299,-1.4299,-1.4299,-1.4299,-1.4299,-1.4299,-1.4299,-1.4299,-1.4299,-1.4299,-1.2503,-1.0184,-0.7702,-0.5373,-0.3047,-0.0541,0.0,0.0,0.0,0.0,0.0,0.0,0.0,0.0,0.0,0.0,0.0,0.0,0.0,0.0,0.0,0.0,0.0,0.0,0.0,0.0,0.0,0.0,0.0,0.0,0.0,0.0,0.0,0.0,0.0,0.0,0.0,0.0,0.0,0.0,0.0,0.0,0.0,0.0,-3.1811,-3.026,-2.8642,-2.8642,-2.8305,-2.8136,-2.8136,0.0,-2.8136,-2.8136,0.0,-2.8136,-2.8136,0.0,0.0,-2.8136,-2.8136,-2.8136,-2.8136,-2.8136,-2.8136,-2.8136,-2.8136,-2.8136,-2.8136,-2.6066,-2.2783,-1.8104,-1.7738,-1.6697,-1.4448,-1.4258,-1.4183,-1.4048,-1.4027,-1.3892,-1.3634,-1.3614,-1.3532,-1.3403,-1.3403,-1.3403,-1.3403,-1.3403,-1.3403,-1.3403,-1.3403,-1.3403,-1.3403,-1.3403,-1.3403,-1.3417,-1.3566,-1.3715,-1.3858,-1.4014,-1.417,-1.4299,-1.4299,-1.4299,-1.4299,-1.4299,-1.4299,-1.4299,-1.4299,-1.4299,-1.4299,-1.4299,-1.2503,-1.0204,-0.7772,-0.5403,-0.3059,-0.0551,0.0,0.0,0.0,0.0,0.0,0.0,0.0,0.0,0.0,0.0,0.0,0.0,0.0,0.0,0.0,0.0,0.0,0.0,0.0,0.0,0.0,0.0,0.0,0.0,0.0,0.0,0.0,0.0,0.0,0.0,0.0,0.0,0.0,0.0,0.0,0.0,0.0,0.0,-2.9627,-2.8659,-2.8136,-2.8136,-2.8136,-2.8136,-2.8136,-2.8136,-2.8136,-2.8136,0.0,0.0,0.0,0.0,0.0,0.0,-2.8136,-2.8136,-2.8136,-2.8136,-2.8136,-2.8136,-2.8136,-2.7096,-2.4326,-2.3298,-2.0702,-1.6034,-1.5682,-1.5337,-1.4299,-1.4299,-1.4272,-1.4204,-1.4116,-1.4014,-1.3885,-1.3715,-1.36,-1.3532,-1.3444,-1.3403,-1.3403,-1.3403,-1.3403,-1.3403,-1.3403,-1.3403,-1.3403,-1.3403,-1.3451,-1.3546,-1.3695,-1.379,-1.3871,-1.4116,-1.4245,-1.4299,-1.4299,-1.4299,-1.4299,-1.4299,-1.4299,-1.4299,-1.4299,-1.4299,-1.3938,-1.2686,-1.0406,-0.8121,-0.5625,-0.3263,-0.1272,-0.0185,0.0,0.0,0.0,0.0,0.0,0.0,0.0,0.0,0.0,0.0,0.0,0.0,0.0,0.0,0.0,0.0,0.0,0.0,0.0,0.0,0.0,0.0,0.0,0.0,0.0,0.0,0.0,0.0,0.0,0.0,0.0,0.0,0.0,0.0,0.0,0.0,0.0,0.0,-2.8111,-2.7856,-2.8043,-2.8123,-2.8136,-2.8136,-2.8136,-2.8136,-2.8136,-2.8136,-2.8136,0.0,0.0,0.0,-2.8136,-2.8136,0.0,-2.8136,-2.8136,-2.8136,-2.8136,-2.8136,-2.8136,-2.6406,-2.1739,-2.1739,-2.0019,-1.4646,-1.4822,-1.4992,-1.4299,-1.4299,-1.4299,-1.4299,-1.419,-1.4116,-1.4075,-1.3858,-1.3729,-1.3688,-1.3532,-1.3464,-1.3464,-1.3417,-1.3403,-1.3403,-1.3403,-1.3403,-1.3403,-1.3444,-1.3532,-1.3648,-1.3831,-1.3905,-1.3939,-1.4204,-1.4299,-1.4299,-1.4299,-1.4299,-1.4299,-1.4299,-1.4299,-1.4299,-1.4299,-1.3761,-1.2863,-1.125,-0.8461,-0.5812,-0.3999,-0.1824,0.0,0.0,0.0,0.0,0.0,0.0,0.0,0.0,0.0,0.0,0.0,0.0,0.0,0.0,0.0,0.0,0.0,0.0,0.0,0.0,0.0,0.0,0.0,0.0,0.0,0.0,0.0,0.0,0.0,0.0,0.0,0.0,0.0,0.0,0.0,0.0,0.0,0.0,0.0,0.0,-2.7468,-2.7709,-2.7789,-2.807,-2.8136,-2.8136,-2.8136,-2.8136,-2.8136,-2.8136,-2.8136,-2.8136,-2.8136,-2.8136,-2.8136,-2.8136,-2.8136,0.0,0.0,-2.8136,-2.8136,-2.8136,-2.8136,-2.6406,-2.1739,-2.3298,-2.1749,-1.4822,-1.6378,-1.6729,-1.4476,-1.4299,-1.4299,-1.4299,-1.4292,-1.4224,-1.4075,-1.4061,-1.398,-1.3831,-1.3688,-1.362,-1.3614,-1.3464,-1.3403,-1.3403,-1.3403,-1.3403,-1.341,-1.3559,-1.3627,-1.3654,-1.3953,-1.4061,-1.4082,-1.4245,-1.4299,-1.4299,-1.4299,-1.4299,-1.4299,-1.4299,-1.4299,-1.4299,-1.4299,-1.2686,-1.0717,-1.0717,-0.738,-0.3636,-0.3636,-0.1835,0.0,0.0,0.0,0.0,0.0,0.0,0.0,0.0,0.0,0.0,0.0,0.0,0.0,0.0,0.0,0.0,0.0,0.0,0.0,0.0,0.0,0.0,0.0,0.0,0.0,0.0,0.0,0.0,0.0,0.0,0.0,0.0,0.0,0.0,0.0,0.0,0.0,0.0,0.0,0.0,-2.6987,-2.7402,-2.7722,-2.7829,-2.8003,-2.8136,-2.8136,-2.8136,-2.8136,-2.8136,-2.8136,-2.8136,-2.8136,-2.8136,-2.8136,0.0,0.0,-2.8136,0.0,-2.8136,-2.8136,-2.8136,-2.6758,-2.4679,-2.1566,-2.0529,-1.84,-1.45,-1.4935,-1.5125,-1.4156,-1.4245,-1.4299,-1.4299,-1.4299,-1.4278,-1.4224,-1.4122,-1.4048,-1.3987,-1.3743,-1.3627,-1.3627,-1.3471,-1.3403,-1.3403,-1.3403,-1.3458,-1.3553,-1.3607,-1.3743,-1.3933,-1.4034,-1.4136,-1.4231,-1.4278,-1.4299,-1.4299,-1.4299,-1.4299,-1.4299,-1.4299,-1.4299,-1.3938,-1.2325,-1.1433,-1.0002,-0.6968,-0.4866,-0.3274,-0.1639,-0.0551,0.0,0.0,0.0,0.0,0.0,0.0,0.0,0.0,0.0,0.0,0.0,0.0,0.0,0.0,0.0,0.0,0.0,0.0,0.0,0.0,0.0,0.0,0.0,0.0,0.0,0.0,0.0,0.0,0.0,0.0,0.0,0.0,0.0,0.0,0.0,0.0,0.0,0.0,0.0,0.0,-2.656,-2.7014,-2.7442,-2.7642,-2.7843,-2.8016,-2.8123,-2.8136,-2.8136,-2.8136,-2.8136,-2.8136,-2.8136,-2.8136,-2.8136,0.0,0.0,0.0,0.0,-2.8136,-2.8136,-2.8136,-2.6066,-2.3824,-2.1394,-1.915,-1.6848,-1.4331,-1.4197,-1.4197,-1.4156,-1.4197,-1.4245,-1.4299,-1.4299,-1.4299,-1.4299,-1.4204,-1.415,-1.415,-1.3905,-1.3756,-1.3702,-1.3553,-1.3451,-1.3403,-1.3403,-1.3485,-1.3634,-1.3682,-1.3851,-1.4075,-1.4129,-1.4211,-1.4299,-1.4299,-1.4299,-1.4299,-1.4299,-1.4299,-1.4299,-1.4299,-1.4299,-1.3761,-1.1433,-1.018,-0.8575,-0.4651,-0.3068,-0.2003,-0.0365,0.0,0.0,0.0,0.0,0.0,0.0,0.0,0.0,0.0,0.0,0.0,0.0,0.0,0.0,0.0,0.0,0.0,0.0,0.0,0.0,0.0,0.0,0.0,0.0,0.0,0.0,0.0,0.0,0.0,0.0,0.0,0.0,0.0,0.0,0.0,0.0,0.0,0.0,0.0,0.0,0.0]}]]